GEFSCGP_500_meanwind_000.txt.gz
Wind_Speed
15 16 16 15 13 14 16 18 18 20 23 27 30 30 31 32 32 34 38 40 41 42 44 46 48 51 55 55 53 52 52 51 49 46 44 42 43 43 44 44 43 42 41 41
15 16 16 15 16 17 19 20 22 24 28 30 32 32 35 37 37 38 41 44 45 47 49 51 51 53 56 54 51 51 49 47 45 43 41 41 40 40 40 39 37 37 37 38
16 15 15 15 17 19 21 23 26 28 30 34 37 36 40 41 43 44 47 49 50 52 52 52 50 51 54 51 50 50 50 45 41 40 38 37 36 36 34 33 34 35 37 39
14 14 14 15 19 22 23 27 29 31 34 37 41 44 44 45 46 48 49 51 53 55 55 54 49 50 49 49 52 54 53 50 46 41 36 35 34 34 34 33 34 36 38 41
14 13 15 18 23 25 28 30 32 34 38 42 45 49 50 52 53 54 55 57 58 59 59 53 49 51 51 52 53 52 48 47 46 41 35 34 34 34 34 34 35 38 42 46
15 16 19 24 27 31 34 37 38 41 45 48 51 55 54 54 57 58 59 59 59 57 53 48 50 53 51 50 50 46 44 46 42 34 32 33 33 32 32 34 37 41 45 48
20 23 27 30 34 37 40 43 46 49 52 54 57 61 60 60 60 59 58 56 54 51 45 41 46 48 48 47 46 45 48 49 42 33 33 33 31 31 32 37 40 42 43 47
27 31 34 37 41 44 47 49 51 55 58 59 61 64 63 62 58 54 51 48 46 45 40 36 41 45 47 49 48 50 55 51 35 32 33 31 31 32 34 40 40 41 43 46
36 39 40 44 47 50 53 55 57 59 62 64 66 66 66 64 55 48 43 41 42 41 39 39 41 44 47 51 51 56 58 39 33 33 33 32 32 32 37 39 39 42 42 38
42 46 47 49 51 52 56 58 59 59 63 68 68 67 64 61 53 46 42 42 41 41 41 42 44 47 49 53 53 57 48 36 34 33 31 32 32 34 37 37 40 43 39 36
49 51 53 54 55 56 57 58 59 61 63 64 67 67 64 58 52 48 43 41 41 42 42 43 46 50 52 53 50 54 47 37 36 32 32 32 32 35 36 37 40 39 36 35
54 57 59 59 59 60 61 62 61 60 63 65 63 68 61 55 52 49 47 46 46 45 42 41 44 48 49 46 44 46 41 38 34 32 33 34 34 35 34 36 38 36 35 36
59 61 63 63 63 63 63 62 66 65 64 64 61 64 55 52 49 49 49 51 50 46 44 38 39 43 40 35 33 33 34 34 33 34 35 35 35 34 33 35 36 35 35 35
63 63 63 65 67 65 65 67 70 67 68 66 63 60 54 53 52 48 45 46 46 43 39 37 35 34 32 32 33 33 35 35 33 33 33 35 35 33 34 35 36 36 36 34
61 61 61 65 66 66 69 71 69 67 67 68 68 61 55 55 52 48 44 42 41 42 40 40 39 36 34 36 37 38 40 36 34 34 35 35 36 35 36 36 37 38 36 34
60 61 63 64 65 69 73 69 66 66 66 66 64 59 57 54 51 46 43 41 39 41 43 39 37 36 35 36 37 39 39 36 36 35 35 36 36 36 37 38 38 39 37 36
64 67 70 70 68 73 74 69 66 64 63 63 62 61 56 54 51 49 47 42 37 38 40 38 37 37 37 37 37 38 37 36 35 36 38 36 36 37 38 39 40 41 39 37
66 67 68 69 70 72 70 62 57 58 60 60 62 61 57 52 45 47 49 44 38 36 36 36 37 36 36 33 32 34 34 35 35 38 39 38 38 38 39 41 42 43 40 37
64 64 64 64 66 71 65 53 52 55 55 52 55 57 57 61 54 49 43 42 41 34 34 38 39 38 30 25 28 33 34 31 33 37 39 39 39 39 41 43 44 43 39 37
65 65 63 61 62 65 56 46 47 52 52 45 48 49 50 54 56 51 41 27 28 29 34 36 36 31 27 31 34 38 41 39 37 37 39 40 40 41 42 44 45 42 38 37
62 61 59 58 60 62 56 50 49 50 48 43 42 43 44 44 42 39 41 43 34 31 33 35 31 26 28 32 37 40 41 39 37 38 40 41 43 43 43 44 43 40 39 37
60 56 57 60 62 58 54 53 52 52 49 47 43 43 43 40 38 37 37 42 49 44 34 31 25 25 30 34 35 36 38 37 37 38 42 45 45 44 44 42 41 39 39 38
52 50 55 58 57 52 48 48 48 48 49 46 43 41 44 41 37 34 31 29 29 40 45 39 26 24 30 34 34 36 39 40 41 42 45 46 44 42 41 40 40 39 38 39
45 49 52 53 46 45 46 47 50 51 52 50 49 46 44 43 39 36 37 35 30 31 33 38 37 33 32 31 32 35 37 37 39 44 45 43 41 39 38 39 38 38 38 39
42 48 49 46 40 37 40 49 55 59 57 54 51 47 48 50 44 40 38 38 39 38 31 33 38 35 31 29 33 40 39 38 42 44 42 41 38 37 37 38 38 39 39 40
42 46 45 40 43 38 39 51 59 58 48 41 43 43 41 41 42 39 37 41 41 36 29 28 32 34 33 32 37 41 41 42 43 41 40 38 36 36 37 38 38 40 42 42

GEFSCGP_500_meanwind_006.txt.gz
Wind_Speed
27 26 25 26 25 25 26 25 23 22 22 22 22 23 23 25 29 31 33 36 39 42 45 47 48 50 52 53 55 58 60 60 60 59 58 58 56 53 51 50 50 49 49 48
27 26 26 27 26 26 26 25 24 23 26 27 27 27 28 31 34 38 42 44 46 49 51 52 53 54 56 58 59 60 62 63 62 60 59 57 54 51 50 50 51 50 49 47
26 26 27 27 27 27 27 26 26 26 28 30 34 35 35 41 45 48 51 53 54 55 56 57 58 59 60 60 60 61 63 62 61 58 57 56 54 52 52 52 52 51 49 45
26 26 25 25 25 24 24 26 28 31 34 36 39 44 47 51 54 56 58 59 61 60 60 61 62 63 62 62 62 62 63 62 61 58 55 55 54 53 53 52 50 49 48 46
23 22 21 21 22 24 26 30 34 37 41 45 48 52 55 57 60 62 64 64 64 63 64 64 64 62 61 61 60 61 62 62 60 58 56 54 51 50 49 47 46 46 46 45
18 19 19 21 24 28 32 37 41 45 49 52 55 57 60 63 65 66 67 67 67 67 67 66 64 62 60 58 58 59 60 60 60 58 56 52 49 48 46 44 44 45 45 43
20 21 23 26 31 35 40 45 51 54 56 58 61 65 67 68 69 69 70 69 69 68 66 65 64 61 57 55 55 56 57 57 57 56 55 52 50 49 48 45 46 47 46 43
26 28 31 34 39 43 48 52 56 59 62 64 67 70 69 70 69 69 68 68 69 69 68 65 61 57 54 53 53 54 54 54 54 54 54 53 53 52 51 49 48 48 45 42
32 33 35 39 44 48 53 57 60 63 67 69 69 71 71 71 70 68 70 72 72 71 69 64 57 53 52 51 51 52 53 53 52 53 54 56 55 54 53 49 45 41 39 38
34 35 39 44 49 53 57 60 61 63 67 71 72 70 72 72 72 74 75 75 73 70 66 62 56 51 49 49 50 52 53 53 52 53 54 56 56 54 52 47 42 38 36 36
40 42 44 48 53 57 58 59 62 66 67 69 71 69 72 73 75 77 77 76 73 69 64 59 54 50 48 48 49 52 54 54 53 54 54 53 53 53 51 46 41 38 37 37
43 45 48 52 56 57 59 62 63 64 66 69 74 77 73 75 76 77 77 75 71 65 58 53 49 47 45 46 48 50 52 52 52 53 51 49 51 54 52 48 42 39 38 38
46 49 52 54 56 59 60 61 63 66 71 74 78 82 77 75 74 73 72 68 63 58 54 50 48 47 46 47 47 47 49 48 48 48 47 45 48 49 47 43 40 39 39 39
51 53 55 57 57 59 61 64 66 70 75 79 79 78 74 70 70 68 63 59 55 53 52 52 51 49 50 51 47 43 42 42 42 42 40 42 44 43 41 38 36 37 38 38
54 55 56 57 59 62 66 69 71 73 75 76 75 72 67 66 66 64 60 56 52 49 49 49 49 45 42 45 46 43 38 37 37 36 38 40 39 36 35 36 36 36 36 36
54 55 56 57 60 64 69 72 72 73 73 70 68 65 61 61 61 60 58 55 51 48 47 46 44 38 33 34 37 38 34 33 34 36 36 34 30 29 32 34 36 37 36 36
53 56 59 61 65 70 76 72 75 75 70 65 64 63 61 59 59 58 56 52 49 46 44 40 35 32 28 26 28 31 32 33 34 34 31 28 28 28 30 32 34 35 36 37
55 59 64 68 72 78 74 71 73 71 65 56 56 56 55 56 57 55 54 54 50 46 42 37 32 28 24 21 20 22 25 29 32 32 30 27 24 25 27 29 32 34 35 37
60 65 70 75 78 82 70 66 65 66 60 52 52 51 53 58 62 59 54 54 52 48 43 38 33 30 26 23 20 19 22 27 31 31 29 26 25 27 29 31 34 36 38 39
65 69 74 77 79 76 62 60 59 59 53 48 48 53 59 65 69 64 54 50 47 46 43 38 34 32 29 26 23 22 25 27 29 29 28 27 27 28 30 34 37 39 41 42
69 72 76 77 74 64 56 55 54 53 51 45 50 57 62 65 64 61 54 46 41 39 38 34 31 29 28 26 25 24 25 28 30 29 28 27 27 29 32 37 40 41 42 42
70 73 75 74 67 56 53 51 49 48 46 48 52 57 61 62 59 55 49 42 35 33 32 30 27 25 23 22 23 24 25 27 28 28 28 27 28 30 33 37 39 41 43 45
68 71 71 67 57 51 47 44 43 42 42 45 50 54 58 58 54 50 42 32 25 24 25 25 23 22 21 21 23 25 26 26 27 27 27 27 30 32 35 37 39 40 41 43
67 69 65 58 51 48 42 38 36 36 38 42 46 48 51 52 49 44 36 26 18 14 17 19 21 23 25 26 27 28 28 28 28 28 29 30 33 35 37 40 42 43 43 42
65 65 58 51 47 41 35 33 30 30 34 39 41 42 44 45 44 41 35 27 19 14 13 16 21 25 29 30 30 29 29 30 31 31 32 34 35 38 40 43 44 44 43 41
61 56 50 45 41 38 34 31 28 30 33 36 37 37 39 39 39 37 35 30 24 19 17 17 19 22 25 26 27 26 27 29 32 34 35 36 38 41 43 44 44 44 42 41

GEFSCGP_500_meanwind_012.txt.gz
Wind_Speed
23 24 24 24 23 23 22 22 21 22 22 19 17 18 23 25 28 30 32 35 38 41 43 45 47 49 51 53 53 53 54 55 56 57 58 58 58 57 57 56 55 54 54 54
21 21 21 21 21 21 21 20 19 19 20 18 17 22 27 29 32 36 40 43 45 46 48 50 51 53 53 54 54 54 54 55 56 57 58 59 59 58 57 56 55 55 55 54
18 18 18 19 18 18 19 18 18 18 20 22 25 30 35 38 41 44 47 49 50 50 51 52 52 53 53 53 54 54 54 55 56 57 58 59 59 59 58 57 56 55 55 55
15 15 15 16 17 18 18 20 21 23 27 29 33 40 44 47 49 52 53 53 54 55 56 56 56 56 57 58 58 59 59 59 59 60 61 61 61 61 60 58 57 57 56 55
16 16 17 18 20 22 24 26 29 31 34 37 41 45 49 53 56 56 57 57 58 58 58 59 61 63 65 66 67 67 68 67 67 65 64 64 64 63 62 60 59 58 57 56
18 19 20 22 24 27 29 31 34 36 39 42 45 49 54 57 58 58 58 59 60 62 65 67 70 72 74 75 75 75 75 74 72 69 67 66 65 64 63 61 59 57 56 55
20 21 24 25 28 30 33 36 39 42 45 48 50 54 57 58 58 59 61 64 67 71 74 77 79 80 80 80 80 79 78 75 72 69 67 65 64 64 63 60 57 54 52 51
24 26 27 29 32 35 37 40 43 47 50 53 55 57 59 59 62 64 68 72 76 79 82 83 83 83 83 82 80 78 74 71 68 65 63 61 61 60 58 55 52 49 47 47
29 31 33 35 38 40 43 46 48 51 54 54 54 56 60 63 66 71 76 79 81 83 84 85 84 82 80 77 73 70 66 63 60 59 57 55 54 55 53 51 50 48 48 48
33 35 37 40 42 44 46 48 50 52 54 55 55 61 66 68 73 76 80 82 83 84 84 82 80 76 71 67 63 60 57 55 52 52 52 51 52 54 53 51 49 47 46 47
37 40 41 43 46 48 49 50 51 52 55 59 62 63 70 73 77 81 82 82 81 79 75 72 69 65 61 57 54 52 51 50 49 49 51 51 53 52 50 49 47 45 44 45
41 43 45 47 48 49 50 51 52 54 58 62 66 71 74 76 79 79 77 75 71 66 63 62 62 61 57 53 50 48 48 47 47 48 51 53 53 52 51 50 48 45 44 44
44 46 48 49 49 50 51 52 54 59 63 66 70 74 75 77 76 71 68 64 59 57 58 61 63 62 59 54 50 48 46 46 45 45 48 52 53 53 53 50 45 44 44 45
46 47 47 48 50 52 52 54 58 63 68 70 72 75 74 72 68 63 58 54 53 56 61 65 66 63 58 53 48 45 42 40 39 39 41 46 51 52 49 43 42 44 44 43
46 47 48 50 51 53 56 58 64 69 71 72 73 72 67 64 60 56 52 51 54 59 65 67 65 59 52 46 43 40 36 33 31 31 33 37 42 45 42 41 42 42 39 36
48 49 51 52 54 57 59 65 71 73 73 69 68 63 59 55 52 49 47 50 55 62 65 65 59 50 41 37 34 32 31 28 26 24 25 28 33 38 40 41 39 35 32 32
49 51 54 56 59 62 68 71 74 76 70 64 63 59 56 51 44 43 45 49 55 61 63 60 49 37 30 26 24 24 25 25 23 21 19 20 24 28 31 32 31 28 29 32
51 54 57 60 64 69 71 75 77 75 64 58 54 52 50 43 38 40 43 48 52 57 57 51 40 29 21 17 17 19 22 23 23 21 18 17 18 21 23 23 24 25 27 29
55 58 61 64 68 73 76 78 74 71 60 53 50 47 41 35 34 35 39 44 48 51 50 44 34 25 18 14 15 18 20 22 23 22 20 18 19 20 21 22 24 25 27 27
57 60 64 68 73 76 77 75 68 65 54 50 46 42 38 33 32 33 37 40 43 44 43 38 31 24 18 14 15 17 18 20 21 21 21 21 22 22 23 24 25 26 27 27
60 63 67 72 75 75 73 68 63 54 51 46 41 39 37 35 33 34 35 37 38 39 38 35 30 25 20 18 17 17 18 19 20 22 23 24 25 25 25 26 27 28 29 29
63 67 70 74 74 69 67 59 53 48 43 42 40 38 35 33 32 32 33 35 36 36 36 34 30 27 24 23 22 21 21 21 22 23 25 27 28 29 29 30 30 31 32 32
65 69 73 73 69 65 56 50 47 43 41 39 38 36 33 31 31 31 33 34 35 36 36 35 33 30 28 26 26 26 26 27 27 28 29 30 32 33 33 34 34 35 35 36
68 71 72 69 64 56 49 46 42 40 40 38 36 33 31 31 31 31 33 34 35 37 38 37 36 34 32 30 29 28 28 28 29 30 31 32 33 35 37 38 38 39 39 40
71 72 69 63 58 49 44 43 41 40 38 36 34 32 31 31 31 32 33 34 36 37 39 40 39 36 34 33 32 31 31 30 29 29 30 31 32 34 36 39 42 43 44 45
71 69 65 58 52 46 42 41 41 39 37 35 33 31 31 31 32 33 34 35 36 38 40 41 39 37 35 33 32 31 31 31 31 31 31 31 32 34 36 39 42 45 47 49

GEFSCGP_500_meanwind_018.txt.gz
Wind_Speed
15 16 16 17 18 18 19 19 20 21 21 20 20 24 29 27 28 31 34 36 38 40 41 43 43 44 45 45 47 48 50 51 53 55 56 57 57 58 58 58 58 57 57 56
17 16 17 17 17 18 18 19 20 21 23 23 23 27 32 32 33 35 37 39 41 43 44 44 44 45 45 46 48 51 53 55 57 58 60 61 61 62 62 62 62 61 61 60
19 19 20 20 20 21 22 23 25 26 28 29 31 33 35 35 36 38 40 42 43 44 45 45 46 47 49 51 54 58 61 63 65 67 68 69 69 69 68 68 68 67 66 65
20 21 21 22 23 25 27 28 30 32 35 36 38 40 41 42 42 43 44 45 46 47 48 50 52 54 57 60 63 67 70 72 74 76 77 77 77 77 75 74 73 72 70 69
21 22 23 25 27 29 31 33 35 38 40 41 42 43 45 48 49 48 48 49 51 53 56 59 62 64 66 69 72 74 77 80 82 83 84 83 82 81 79 78 76 75 73 71
20 23 25 28 30 32 35 37 39 42 44 46 46 46 51 53 52 54 56 58 60 63 66 68 70 72 74 76 78 80 82 83 84 85 84 83 81 78 76 74 72 72 71 70
23 23 27 30 33 36 38 41 42 44 45 44 46 49 53 51 56 60 64 67 70 72 73 73 75 78 79 80 81 81 80 79 78 77 75 74 72 70 68 66 65 66 68 69
26 29 30 33 35 38 40 42 43 45 46 47 50 51 55 57 60 65 69 73 74 74 74 75 78 79 79 79 78 76 73 70 67 66 66 65 65 63 61 59 58 59 61 63
26 30 33 34 36 38 40 42 44 46 49 52 53 54 57 59 66 71 74 75 75 75 75 75 76 76 75 73 69 65 64 64 63 65 66 66 64 61 57 54 53 54 56 57
29 30 33 36 37 39 42 44 46 49 52 55 58 57 58 65 72 75 75 76 77 76 76 76 74 72 67 62 58 58 62 65 66 67 66 63 58 55 53 52 50 50 51 52
30 33 36 40 42 44 45 48 50 53 55 58 62 61 64 68 71 74 76 75 75 75 74 72 68 62 55 52 53 57 60 61 61 57 52 46 44 44 46 47 46 46 47 49
33 36 39 42 44 46 49 51 53 56 58 59 63 67 61 66 71 72 71 69 69 69 66 61 54 48 46 48 51 54 55 53 49 43 37 34 33 34 37 40 41 42 44 46
37 40 42 45 48 51 53 55 56 58 60 63 66 68 64 68 68 67 66 66 65 61 54 48 44 43 44 46 48 50 49 46 41 35 31 29 28 28 30 32 34 36 39 42
39 41 44 46 50 54 56 56 56 60 64 68 70 71 71 70 70 67 65 63 59 52 47 43 41 41 42 44 46 46 45 41 37 32 30 28 27 27 26 26 26 28 33 36
41 44 47 50 54 56 59 60 61 65 69 73 73 72 69 68 65 61 59 56 50 45 42 39 38 38 39 42 43 43 41 38 35 32 30 28 27 26 25 23 23 23 25 29
45 49 52 54 57 61 65 65 67 72 74 74 74 69 64 61 57 54 53 50 44 41 38 36 35 36 38 40 41 41 39 37 34 32 30 28 27 26 24 22 22 22 23 24
48 52 56 58 61 65 66 70 72 75 73 72 70 63 60 56 53 52 51 47 42 39 36 35 34 35 37 38 40 40 39 37 34 32 31 28 27 26 24 22 21 20 21 22
52 56 59 62 66 65 71 72 74 74 68 68 62 58 55 53 51 50 48 43 40 37 34 33 33 35 36 38 40 40 39 38 35 33 31 29 28 26 24 23 21 20 20 21
55 58 61 64 67 68 74 74 73 72 64 64 58 53 50 49 47 44 41 39 37 35 34 34 34 36 37 39 40 41 40 38 36 34 32 30 29 28 26 24 22 21 21 22
57 60 62 65 68 71 76 75 72 69 58 56 51 49 49 48 47 43 40 38 36 35 34 34 35 36 38 40 41 42 41 40 38 36 34 32 31 30 29 27 25 24 24 24
58 62 64 67 69 72 76 74 70 61 57 53 48 48 47 46 45 43 41 39 38 36 36 36 36 37 39 41 42 42 42 41 40 38 36 34 33 32 31 30 29 28 28 28
59 62 65 68 70 71 74 70 64 56 50 48 48 48 46 44 43 41 40 39 38 37 37 37 38 39 41 43 44 44 44 43 41 39 38 36 34 33 33 32 32 32 32 32
59 62 65 68 70 72 70 64 57 51 47 46 46 46 45 43 42 41 40 39 39 39 39 39 40 42 44 45 46 45 45 44 42 40 38 37 36 35 34 34 34 33 34 35
61 63 65 69 71 70 67 61 53 48 46 46 47 46 44 43 42 41 40 40 40 40 41 42 43 45 47 48 48 47 47 46 44 42 40 38 37 36 36 35 35 36 36 37
61 64 67 69 72 70 65 59 51 46 45 46 47 46 44 42 41 41 41 41 42 43 44 46 47 49 49 50 49 49 49 48 47 45 43 41 40 39 38 38 38 38 38 39
62 65 68 70 72 69 63 56 49 45 45 46 46 45 42 41 41 42 43 44 45 46 48 49 51 52 52 52 52 52 52 51 50 48 47 46 45 44 43 43 43 42 42 42

GEFSCGP_500_meanwind_024.txt.gz
Wind_Speed
14 13 12 12 12 13 14 16 18 19 21 23 26 27 28 30 31 32 33 35 37 39 41 43 45 47 48 49 50 51 52 53 54 55 57 58 59 60 61 62 64 64 65 65
10 11 11 12 13 15 16 18 20 22 24 26 29 30 31 33 34 36 38 41 44 46 47 48 49 50 51 52 54 55 57 59 61 62 63 64 65 66 66 67 68 69 70 70
10 11 12 14 16 18 19 21 22 24 26 29 32 33 35 37 39 42 45 49 52 54 56 56 57 58 59 59 60 61 62 64 65 66 67 69 70 71 72 72 72 73 74 74
10 11 13 15 17 19 22 24 26 28 30 33 36 39 40 43 46 49 52 55 58 60 62 65 67 68 68 68 67 66 66 67 69 71 72 74 74 75 75 75 75 75 76 77
11 13 15 17 19 21 24 26 29 31 34 37 40 44 46 48 52 55 58 60 62 65 68 71 73 74 74 74 73 72 72 74 75 77 77 77 77 76 76 76 76 76 77 78
14 15 17 20 22 24 27 30 33 36 39 42 45 49 53 55 58 60 63 65 67 70 73 74 75 76 77 78 78 78 78 79 79 79 78 76 73 71 69 69 70 71 72 73
13 16 18 21 24 27 29 33 36 41 44 46 50 53 57 61 64 66 68 70 71 73 74 74 75 77 78 80 80 81 81 80 78 74 68 62 58 56 56 57 59 61 64 67
17 19 21 24 27 30 34 37 41 44 47 50 53 58 63 66 68 69 71 72 72 73 73 75 77 78 80 81 81 80 77 73 67 58 51 46 45 46 48 50 53 56 59 62
20 23 25 27 30 34 38 42 45 48 53 56 58 62 67 69 71 71 70 70 70 72 73 75 77 79 80 79 76 71 64 55 47 41 38 38 39 40 43 45 47 48 49 50
21 25 29 32 35 38 42 46 49 53 56 59 62 66 69 71 70 68 67 67 68 70 72 74 74 74 71 66 59 52 44 38 35 33 34 34 36 37 40 40 40 40 39 39
23 27 31 35 39 42 45 48 53 56 58 61 65 68 71 69 65 63 63 64 66 68 67 66 63 59 54 49 44 39 35 32 31 31 31 32 34 36 37 37 36 35 35 34
27 30 34 38 42 45 48 52 55 58 61 64 67 70 70 65 62 62 62 63 62 61 58 55 51 48 45 41 37 33 31 29 29 29 30 31 33 34 35 35 34 33 32 31
30 33 37 41 45 48 50 54 57 60 64 66 68 66 68 62 60 61 60 58 56 54 51 48 46 43 40 36 33 30 29 28 29 30 31 33 34 34 34 34 33 32 31 29
31 34 38 42 46 49 52 55 59 63 67 70 69 69 67 64 62 59 54 52 52 50 47 46 43 40 37 34 31 30 30 30 31 32 34 34 35 35 34 33 32 31 30 28
33 36 39 43 48 52 55 57 62 66 70 71 71 70 67 63 59 55 52 51 49 47 45 43 41 39 36 33 32 31 31 32 33 34 36 36 36 36 35 34 32 31 29 27
34 38 42 45 50 54 56 61 65 68 71 71 71 67 64 58 53 51 50 49 47 45 43 41 40 39 37 35 33 33 33 34 35 37 38 38 38 37 36 34 32 31 30 28
36 41 45 48 52 57 59 63 66 70 71 72 70 68 62 54 50 49 48 46 44 42 41 40 40 39 38 37 37 36 37 38 39 40 40 40 39 39 37 35 33 31 30 29
38 43 47 50 54 58 61 64 67 70 71 70 67 62 55 51 48 48 46 44 41 41 40 40 40 40 40 40 40 41 41 42 43 44 43 43 42 40 38 36 34 32 31 30
40 45 49 52 55 59 62 65 68 71 70 69 64 56 49 46 45 45 44 42 41 41 41 42 42 43 43 44 44 45 46 46 47 47 46 45 43 42 40 38 35 33 32 31
42 46 50 53 57 60 63 66 69 71 68 66 59 52 48 45 43 42 42 42 42 43 44 45 46 46 47 48 48 49 49 50 50 50 49 48 46 44 42 39 36 34 33 32
44 48 51 55 58 60 64 67 69 68 68 64 55 49 45 44 43 44 44 45 45 46 47 48 50 51 51 52 52 53 53 53 53 53 52 50 48 46 44 42 39 36 35 34
46 49 52 56 59 61 65 66 67 67 65 57 50 45 43 43 44 45 46 47 48 49 50 52 53 54 55 55 55 55 54 54 53 52 51 50 48 47 45 44 42 40 38 37
47 50 53 56 59 62 64 66 67 66 59 51 45 43 43 43 45 46 48 50 51 53 54 55 56 56 56 56 55 53 52 51 50 49 48 47 46 45 44 43 42 42 42 41
48 50 53 57 60 63 65 66 65 61 54 47 43 42 43 45 47 49 51 53 54 55 56 57 57 56 54 52 50 49 48 48 48 47 46 46 45 44 43 42 41 41 42 43
48 52 54 57 60 62 64 65 63 57 50 44 42 42 44 47 49 52 54 55 56 57 58 57 54 51 48 46 46 47 47 47 47 47 46 45 44 43 41 40 39 38 39 40
49 52 55 57 60 61 63 65 61 54 47 43 42 44 46 49 52 55 56 57 58 58 55 51 47 45 44 45 45 46 46 47 47 47 47 46 44 42 40 38 37 36 35 34

GEFSCGP_500_meanwind_030.txt.gz
Wind_Speed
7 7 8 9 10 11 13 15 18 20 22 25 29 32 35 38 41 44 46 50 53 56 58 61 63 65 66 68 69 70 70 70 70 70 70 70 70 69 69 69 69 69 69 69
6 6 7 8 11 13 15 18 21 23 26 29 33 37 39 42 45 47 51 54 58 61 64 67 69 72 73 75 75 75 75 75 75 75 75 75 75 75 75 75 74 74 74 74
5 6 8 10 13 16 19 21 24 27 30 33 38 42 44 46 48 52 56 60 64 67 71 74 77 79 80 81 80 80 80 80 80 80 80 80 80 79 80 80 80 80 80 80
6 8 11 13 16 19 21 24 27 31 35 38 42 46 47 50 53 57 61 66 70 73 77 80 81 82 83 83 83 83 83 83 82 81 81 80 81 81 81 81 82 82 83 84
9 11 13 15 18 20 23 27 31 34 38 41 45 49 53 55 58 62 67 71 74 78 80 81 82 82 82 82 81 80 78 76 75 73 72 71 70 70 70 71 72 73 75 78
11 14 16 18 20 23 27 31 35 38 42 45 49 53 57 59 64 68 72 75 77 79 79 79 78 78 76 74 71 68 65 62 60 58 56 54 52 50 48 48 49 51 54 58
15 17 19 22 24 27 31 35 38 42 45 49 52 56 60 64 69 72 75 77 78 78 77 75 72 70 66 62 58 56 54 51 49 47 45 42 39 36 34 32 32 34 36 39
18 20 22 24 27 30 34 37 41 45 48 51 54 58 63 68 71 74 76 77 76 74 71 68 65 61 57 53 51 49 47 46 44 41 39 36 33 30 29 28 27 27 28 30
21 23 25 27 29 33 37 40 44 47 51 54 57 61 67 70 72 74 75 74 72 68 64 60 57 54 51 48 47 46 45 44 42 39 36 34 32 30 28 27 26 26 26 27
23 25 27 29 31 35 39 43 47 50 54 57 60 66 68 71 73 74 74 71 67 61 57 54 51 48 47 46 46 46 45 43 41 39 37 34 32 30 29 28 28 28 28 29
25 26 29 30 33 37 41 44 48 52 55 60 65 68 70 72 73 74 72 67 61 55 52 50 48 47 47 47 47 46 44 43 42 40 38 36 34 33 32 31 31 30 30 31
26 27 30 32 35 38 42 46 50 53 58 61 66 69 72 73 73 73 69 62 56 52 50 49 48 48 48 48 47 47 46 44 43 42 40 39 37 36 35 35 34 34 34 34
27 29 32 35 38 41 44 48 51 54 58 62 66 68 72 73 72 69 64 58 52 49 49 49 50 50 50 50 50 49 48 47 46 45 44 43 42 41 41 40 39 39 38 38
28 30 32 35 38 41 45 49 52 55 59 63 66 69 71 72 70 65 60 55 51 49 50 50 51 52 52 53 53 53 52 52 51 50 48 47 47 46 45 45 44 43 42 41
30 31 33 35 39 41 45 49 53 57 61 64 67 69 72 72 69 63 58 53 50 50 51 53 54 55 55 56 56 55 55 55 54 52 51 50 50 49 48 48 47 47 46 44
29 31 33 35 39 42 46 51 55 59 63 65 68 70 72 70 66 60 55 52 51 52 54 56 57 58 58 58 57 57 56 55 54 53 52 51 50 49 49 48 48 47 47 46
29 32 35 38 41 45 48 54 58 61 64 67 68 70 72 69 63 59 54 52 53 55 58 59 60 60 60 60 58 56 54 52 50 49 49 48 48 47 47 46 46 45 45 45
30 33 37 40 44 48 52 56 60 63 65 68 69 71 71 68 62 57 54 54 55 58 60 61 61 60 59 57 54 51 50 49 49 49 49 49 48 47 46 45 44 44 43 42
30 33 38 42 46 50 54 58 62 65 66 68 70 71 69 66 60 55 54 55 58 60 62 62 60 59 56 53 50 49 49 50 50 50 49 49 48 47 46 45 43 42 40 40
31 34 38 43 48 53 56 60 64 66 67 69 70 70 68 64 59 56 56 57 60 62 61 60 58 54 50 49 48 48 49 49 50 51 51 50 49 48 47 45 43 40 38 37
34 37 40 45 50 54 59 63 65 66 68 69 70 69 66 62 58 58 58 60 61 61 59 57 53 50 48 47 47 48 50 51 53 53 53 52 51 50 48 46 43 41 38 35
36 40 43 48 52 56 60 63 65 66 68 69 69 68 64 60 57 58 59 60 60 59 56 52 49 47 46 47 48 50 52 54 55 55 55 54 53 51 49 47 45 42 39 36
36 40 44 48 52 57 60 63 65 66 67 68 69 66 62 58 57 58 59 60 59 57 52 48 45 45 47 49 51 52 54 55 56 56 55 54 53 52 51 49 46 43 40 37
38 41 45 50 54 58 61 63 65 66 67 69 68 65 60 57 57 58 59 58 56 53 48 44 44 45 48 50 52 54 56 57 57 57 56 55 54 52 51 50 48 45 41 38
40 43 46 51 55 58 61 63 65 66 67 68 66 62 58 57 57 58 58 56 52 48 44 43 44 46 49 52 54 55 57 58 58 57 56 56 55 54 53 51 50 47 43 40
40 43 47 51 56 59 61 63 64 66 67 67 64 60 57 56 57 57 56 53 48 44 42 43 45 47 50 53 55 57 58 59 58 57 56 57 57 56 56 54 51 48 45 40

GEFSCGP_500_meanwind_036.txt.gz
Wind_Speed
2 1 3 5 8 11 13 16 18 20 24 27 30 33 35 38 41 45 48 52 57 62 65 68 71 74 76 78 80 80 79 77 74 71 68 64 62 60 59 60 64 68 73 78
2 4 6 9 12 14 16 18 21 24 27 30 34 36 37 41 45 48 53 58 62 67 70 72 74 76 78 78 78 76 72 68 64 61 57 54 52 49 48 48 49 53 58 65
5 7 9 11 14 16 19 22 25 28 30 32 38 39 40 44 48 53 58 62 67 70 73 75 76 78 78 76 73 69 63 59 56 53 51 49 47 46 45 45 44 44 46 50
7 9 11 14 16 19 22 25 28 30 33 36 39 44 44 48 52 57 62 67 70 73 75 76 77 76 74 71 66 60 56 53 52 51 49 47 46 44 43 42 41 41 41 42
9 11 13 16 19 21 24 27 30 33 36 39 42 46 49 52 57 62 66 70 72 74 75 76 76 74 70 65 59 55 52 52 51 50 49 48 47 45 43 41 40 39 38 38
10 12 15 17 20 23 26 29 33 36 40 42 45 49 53 56 61 65 69 72 74 75 75 75 74 70 66 60 55 53 52 53 53 52 51 51 49 47 45 43 41 38 37 35
12 14 16 19 21 24 27 31 36 41 44 45 47 50 56 60 64 68 71 73 74 75 75 74 70 66 61 57 54 54 55 55 55 55 54 53 51 49 47 44 42 39 36 35
13 15 18 20 22 25 28 31 35 40 43 46 49 53 59 63 67 70 72 74 75 75 74 71 67 63 59 57 56 57 58 58 58 57 56 54 52 51 49 47 44 41 38 36
15 17 19 21 23 26 29 33 36 39 44 49 53 57 61 66 69 71 73 74 74 73 71 68 65 61 59 59 59 60 60 59 58 57 55 53 52 50 49 48 46 44 42 38
16 18 20 22 23 26 30 34 38 41 46 52 56 61 64 67 70 72 73 74 74 72 68 66 63 62 62 62 62 61 60 59 57 55 53 51 49 48 46 45 45 44 43 41
17 19 21 22 24 27 31 34 38 42 46 52 58 63 65 68 71 73 73 73 72 69 66 64 64 64 63 63 62 60 59 56 53 51 49 48 46 45 44 43 42 42 42 42
18 19 20 22 24 27 31 34 39 44 50 54 59 64 67 69 71 72 73 72 70 67 65 65 65 64 63 62 61 58 55 52 50 49 48 47 47 46 45 44 43 42 41 41
18 20 22 23 25 28 33 37 42 46 51 55 60 64 68 69 71 72 72 71 68 66 65 65 64 63 62 61 58 55 52 50 49 48 48 47 47 46 45 44 43 42 41 40
19 21 23 26 29 32 36 39 43 47 52 57 61 65 68 70 71 72 72 70 68 66 65 65 64 62 60 57 54 52 50 49 49 48 48 48 47 46 45 43 42 41 40 39
21 22 23 25 28 31 35 39 43 48 53 59 63 67 69 71 72 73 71 69 67 66 65 64 62 59 57 53 51 50 50 50 50 50 49 48 48 47 46 44 42 41 39 38
23 24 24 25 28 31 35 40 45 50 56 61 65 68 71 71 72 72 70 68 66 65 64 62 59 56 53 51 50 50 51 51 51 51 50 49 49 48 46 43 42 40 39 38
24 26 28 29 31 33 38 43 47 52 57 63 66 69 72 71 72 71 69 67 65 64 62 59 56 53 51 50 51 51 52 52 52 52 51 49 48 47 45 44 43 41 40 38
26 28 30 32 35 37 41 44 49 54 59 64 68 71 71 72 71 68 66 65 64 63 60 56 52 50 50 50 51 53 53 53 53 52 51 50 48 47 47 47 46 44 43 41
27 30 32 35 37 39 42 46 51 56 61 65 69 71 71 71 70 67 66 64 63 60 57 53 50 49 50 51 52 53 54 55 54 53 52 50 49 49 50 50 49 47 46 45
28 30 32 35 38 41 44 48 52 58 63 66 69 70 70 70 68 67 65 64 61 58 53 51 49 49 50 51 53 54 55 55 54 53 53 52 52 53 54 53 53 51 50 48
29 31 32 35 37 41 45 50 54 59 63 67 69 69 69 69 67 65 64 62 59 55 51 49 49 49 50 51 53 55 56 56 55 54 54 53 54 56 57 57 56 55 53 50
33 35 36 39 41 44 47 50 54 59 63 66 68 68 68 67 66 64 62 60 57 52 49 48 48 49 50 52 54 55 56 56 56 55 55 55 56 58 59 60 59 57 55 49
33 35 37 38 40 43 46 50 55 60 63 66 68 68 68 66 64 62 60 58 54 50 48 47 47 48 50 52 54 55 56 56 56 56 56 56 57 58 61 63 61 59 55 46
34 35 36 38 40 43 46 50 55 60 64 66 67 67 66 65 63 61 59 56 52 48 46 46 46 47 49 51 53 55 56 57 57 57 57 57 57 59 62 64 64 61 56 46
37 37 37 38 40 43 46 50 55 60 63 65 66 66 65 63 61 59 57 54 50 47 46 46 46 46 48 50 52 54 56 57 57 57 57 58 58 60 62 65 66 63 59 51
36 36 37 38 40 43 46 50 55 60 63 65 65 65 64 62 60 58 55 53 49 46 45 45 45 45 47 49 51 53 56 57 57 57 57 58 59 60 62 64 66 65 61 55

GEFSCGP_500_meanwind_042.txt.gz
Wind_Speed
5 7 9 12 14 17 19 21 23 24 27 29 30 32 32 35 40 43 47 51 56 60 64 68 71 75 78 80 82 83 83 81 77 72 67 62 59 57 55 54 54 53 52 51
8 10 12 14 17 19 21 23 25 24 25 29 32 33 33 37 42 46 51 55 59 63 67 71 75 78 80 81 82 81 80 76 73 69 65 61 59 58 57 56 56 55 55 54
10 12 14 17 19 20 22 24 27 30 30 30 34 35 35 40 45 50 55 59 63 67 72 75 78 80 81 81 81 79 77 73 69 66 63 61 59 58 56 55 55 55 54 54
12 14 16 18 20 22 24 25 27 30 32 33 34 39 39 45 50 55 59 62 67 71 75 78 79 80 81 80 79 77 73 70 68 66 63 61 58 55 54 52 51 50 50 51
13 16 18 20 22 24 26 28 29 31 32 35 36 42 45 50 55 58 62 66 70 74 76 78 79 80 80 79 77 74 71 68 66 63 60 57 55 53 51 49 48 47 46 47
16 18 19 21 24 26 28 29 30 31 35 39 43 47 49 52 57 61 65 69 72 74 77 78 80 80 79 78 75 72 68 65 63 60 57 55 53 51 49 47 46 45 44 43
17 19 21 23 25 26 28 30 33 36 38 41 43 45 49 54 59 63 67 70 73 76 78 79 80 79 78 76 72 68 65 63 60 57 56 55 53 51 49 47 45 43 42 41
19 20 22 24 26 27 29 30 32 35 38 39 43 48 52 56 60 63 67 72 75 77 78 78 78 78 76 73 69 66 63 61 58 57 56 55 53 51 49 48 46 44 42 40
21 22 24 25 26 28 30 30 32 35 39 43 46 50 53 57 61 65 69 73 75 76 77 77 78 77 74 70 67 64 62 59 58 57 57 55 53 51 49 48 46 43 41 40
22 22 23 24 25 27 29 32 34 36 41 45 47 52 55 58 62 67 71 73 75 76 76 77 77 75 71 67 64 62 60 59 58 58 57 55 53 51 49 46 44 42 40 39
22 22 22 23 25 27 29 31 33 37 40 45 51 54 55 59 64 68 71 73 75 76 76 76 75 72 68 64 62 61 59 59 58 58 57 55 52 49 47 45 43 42 40 39
22 23 23 23 24 26 29 33 35 37 41 44 49 54 57 61 65 69 72 74 75 75 75 75 74 69 65 62 61 60 59 59 58 58 57 54 51 49 46 45 43 43 42 41
23 23 24 24 24 25 28 31 35 38 41 44 48 54 58 63 67 70 72 73 74 74 75 74 71 66 63 61 60 59 59 59 59 58 56 54 51 49 47 46 46 45 45 44
23 23 25 27 29 30 32 34 36 39 42 45 49 54 59 64 67 70 72 73 74 74 74 72 68 64 61 60 59 58 58 59 59 58 56 54 52 50 49 48 49 49 48 47
24 24 25 26 28 30 32 34 36 39 42 45 50 54 60 64 68 71 73 73 73 73 72 70 66 62 60 58 58 58 58 59 59 58 56 55 52 52 51 51 51 52 52 51
27 26 25 26 27 29 31 33 36 38 42 46 51 56 61 66 68 71 72 73 72 72 71 68 64 60 58 57 57 57 58 58 59 58 57 55 53 53 53 54 54 55 55 54
31 30 29 28 29 30 32 36 38 40 43 48 53 57 62 67 69 71 72 72 71 71 69 65 61 59 57 57 57 57 57 58 59 58 57 56 55 55 55 56 58 58 58 57
34 34 32 32 32 33 36 38 40 42 44 50 54 58 63 67 70 71 71 71 70 69 67 63 59 57 56 56 56 56 57 58 59 58 58 57 57 57 57 59 60 61 61 59
37 37 36 35 36 35 36 39 43 45 46 51 55 59 64 67 70 70 70 70 69 67 64 61 58 56 55 55 55 56 56 57 58 58 59 59 58 59 59 61 62 63 62 58
39 38 37 36 37 39 39 42 44 47 49 53 56 60 64 68 69 69 69 68 67 66 63 59 56 55 54 54 54 55 55 56 58 59 59 60 60 60 61 62 64 65 63 59
42 41 38 37 36 37 40 43 45 47 50 53 57 61 65 67 68 68 67 66 66 64 61 58 56 54 53 53 53 54 55 57 57 58 60 61 61 61 62 63 64 65 64 59
46 45 43 42 41 41 43 44 46 48 50 53 57 61 64 67 67 67 66 65 64 63 60 57 54 53 53 52 53 53 54 56 57 58 59 60 61 62 62 63 64 65 64 60
46 46 44 43 41 42 43 44 46 48 50 53 57 61 64 66 66 66 65 64 63 61 58 55 53 52 52 52 52 53 53 55 56 57 58 59 61 62 62 63 64 64 65 62
46 45 44 43 42 42 43 45 46 48 50 53 57 61 64 65 66 65 64 63 62 60 57 54 52 51 51 51 52 52 52 54 55 56 57 58 59 61 62 63 64 64 65 63
48 47 45 43 43 43 43 45 46 48 51 53 57 60 63 65 65 64 63 62 61 58 56 53 51 50 50 50 51 51 51 52 53 55 56 57 58 60 61 63 64 65 65 64
46 47 46 45 45 45 45 46 47 49 51 54 57 60 63 64 64 63 62 61 60 57 55 52 50 49 49 49 50 50 50 51 52 53 54 55 57 59 60 61 63 64 64 63

GEFSCGP_500_meanwind_048.txt.gz
Wind_Speed
12 14 16 18 20 21 23 23 24 25 27 27 27 28 29 33 36 38 40 44 47 51 56 61 66 70 74 78 81 83 84 85 85 82 78 73 69 67 64 63 61 59 57 56
13 15 17 19 21 23 25 25 25 26 27 27 27 27 29 33 36 39 42 46 50 55 60 65 69 74 77 80 82 83 85 85 82 78 74 70 67 65 63 61 59 58 56 54
15 16 19 20 22 23 25 25 26 26 27 28 29 27 30 34 37 41 45 49 54 58 63 68 72 76 79 80 82 83 84 82 78 74 70 66 64 62 60 58 56 54 52 50
15 18 19 21 22 23 24 25 26 26 27 29 31 32 32 36 40 44 48 52 56 61 66 71 74 76 78 80 82 83 81 78 75 71 68 66 64 61 59 56 53 51 48 46
16 19 20 21 23 24 25 26 26 26 27 28 31 33 36 39 43 47 51 54 59 64 68 71 74 76 78 80 81 81 78 75 72 69 67 65 64 61 58 55 51 48 45 44
17 19 20 22 23 24 25 26 26 26 27 29 32 35 38 42 45 49 52 56 61 66 69 71 74 76 78 79 80 78 75 72 69 67 66 64 63 60 56 53 49 45 43 41
19 20 21 21 22 23 24 26 27 29 30 32 35 37 40 43 47 50 54 58 63 66 68 71 74 76 77 78 78 75 73 70 68 66 65 63 61 58 56 52 49 45 43 41
18 19 20 21 21 23 24 26 28 31 33 33 34 38 41 45 48 52 56 59 63 67 70 73 74 76 77 78 76 73 70 68 66 65 63 62 60 58 56 53 50 47 44 42
18 19 19 20 21 23 25 26 28 31 34 35 37 40 43 47 50 53 56 60 65 68 71 73 74 76 77 76 74 71 68 66 65 63 62 61 59 58 55 53 51 48 47 45
19 19 20 20 21 23 25 28 30 32 36 39 40 41 45 47 50 54 58 62 66 69 71 73 74 76 76 74 71 69 67 65 64 62 61 60 59 57 56 54 52 50 50 49
20 20 20 21 22 23 25 27 29 31 34 39 43 43 45 48 51 55 59 64 67 69 71 73 74 75 74 72 69 67 65 63 62 61 60 60 59 58 57 56 54 54 53 52
22 21 20 21 22 23 25 27 29 32 35 38 42 44 46 49 52 56 60 64 67 70 71 72 73 73 72 69 67 65 63 62 61 60 60 59 59 58 58 57 56 56 56 55
24 23 22 22 22 23 25 27 29 32 35 38 41 43 47 49 53 57 61 65 68 69 71 72 72 71 69 67 65 63 62 61 60 60 59 59 59 59 58 58 58 58 58 58
26 26 26 25 25 26 26 28 30 33 36 38 40 43 46 50 53 57 62 65 68 69 70 71 70 70 68 66 64 62 61 60 59 59 59 59 59 59 59 59 60 61 61 60
27 27 28 28 28 28 28 29 31 33 36 38 40 43 46 50 54 58 62 65 68 69 69 69 69 68 67 64 62 61 60 59 59 59 59 59 59 60 60 61 62 63 63 62
28 28 29 28 28 28 27 29 31 33 36 38 40 43 47 50 54 58 62 66 67 67 68 68 68 67 65 62 60 59 59 59 58 58 58 58 59 60 61 62 64 65 64 62
29 30 31 30 30 29 29 31 33 34 37 39 41 44 48 51 55 59 63 65 66 66 66 67 66 66 63 61 59 58 58 58 57 57 57 58 60 61 61 63 64 66 65 62
30 32 34 35 34 33 34 35 36 36 38 40 42 45 48 52 56 59 63 64 65 65 66 66 65 64 62 60 58 58 58 57 56 56 57 58 59 60 61 63 64 66 66 62
31 34 36 38 38 36 37 38 39 40 39 42 44 46 49 53 56 59 62 63 64 64 65 64 64 62 60 58 57 56 56 56 55 55 56 57 59 60 61 62 64 65 65 63
30 33 36 38 40 41 42 41 41 43 42 45 46 47 50 52 55 58 61 63 63 64 64 64 63 61 59 57 55 55 55 54 54 55 56 57 58 59 60 62 64 65 65 64
30 33 37 39 41 42 45 44 44 43 45 47 47 48 50 52 55 58 61 62 62 63 63 63 62 60 58 56 54 54 53 53 53 54 56 57 57 58 60 62 63 65 65 64
31 35 38 42 44 45 47 46 45 45 46 46 47 48 50 52 55 58 60 61 62 62 62 62 61 59 56 55 53 53 52 52 52 53 55 56 57 57 58 60 61 63 63 63
29 33 37 40 42 44 47 47 46 46 46 47 47 48 50 52 55 58 60 61 61 61 61 61 60 58 56 54 52 51 51 51 51 52 53 54 56 56 57 58 59 60 61 61
29 32 36 40 43 45 48 48 48 47 47 47 48 49 50 52 55 57 59 60 60 60 60 60 59 57 55 53 51 50 50 50 50 51 51 52 54 55 55 56 57 58 59 59
30 33 36 39 43 45 48 49 49 49 48 48 48 49 51 52 54 57 59 59 59 59 59 59 58 56 54 52 50 49 48 49 49 49 50 51 52 53 54 56 56 57 58 59
28 32 36 39 43 46 48 50 50 50 49 49 49 50 51 53 54 57 58 59 59 58 58 58 57 55 53 51 50 48 48 48 48 48 49 49 50 52 53 54 55 57 57 57

GEFSCGP_500_meanwind_054.txt.gz
Wind_Speed
13 14 16 17 18 20 21 22 22 23 23 23 24 24 26 28 30 33 36 39 43 46 50 54 58 63 68 72 75 79 81 83 85 85 84 82 79 76 74 72 69 67 64 62
14 16 17 18 19 20 21 21 22 22 22 23 23 24 27 29 32 35 38 42 45 49 53 57 61 66 70 73 77 80 82 84 85 84 83 80 76 74 71 69 67 64 62 59
14 16 17 19 19 20 20 20 21 22 22 23 24 24 28 31 34 37 40 44 48 51 55 59 64 68 71 74 77 80 82 84 84 82 80 76 73 70 68 65 63 61 59 57
14 16 17 18 19 20 20 20 21 22 23 24 27 27 29 33 36 39 43 46 50 54 57 61 65 69 72 75 78 81 82 83 82 80 77 74 71 69 66 64 61 59 58 57
14 16 17 18 19 19 20 20 21 22 23 24 27 30 32 36 38 42 45 48 52 55 59 63 66 70 73 75 78 81 82 82 80 77 74 72 70 67 65 62 60 58 57 56
14 15 17 17 18 19 20 20 21 22 23 25 28 32 35 38 40 44 47 50 53 57 60 64 67 70 73 76 78 80 81 80 77 74 72 70 68 66 63 60 58 57 56 56
13 15 16 17 18 20 21 22 23 24 25 28 31 33 37 39 42 45 48 51 54 57 61 64 67 70 73 76 78 79 79 77 75 72 71 69 67 65 62 60 58 58 58 57
14 15 16 17 19 20 22 23 25 27 28 28 31 34 37 40 43 46 49 52 55 58 62 65 67 70 73 75 77 78 78 75 73 70 68 67 65 63 61 60 60 61 60 60
14 15 17 18 20 21 22 24 26 28 30 31 33 36 38 42 44 47 49 52 55 59 62 65 68 70 72 75 76 77 76 73 71 69 67 65 64 62 61 60 61 62 62 61
15 16 18 19 20 22 23 25 27 30 33 36 36 37 40 42 45 47 50 53 56 59 62 65 68 70 72 74 75 75 74 71 69 67 65 64 62 62 61 61 62 62 63 63
14 16 18 20 22 23 24 26 28 29 32 36 39 37 41 43 45 47 50 53 56 59 62 65 67 69 71 73 74 74 72 69 67 65 63 62 61 61 61 61 63 63 64 64
14 16 19 21 23 24 26 27 29 31 32 34 38 38 42 43 45 47 50 53 56 59 62 65 67 69 71 72 73 72 70 67 65 63 62 61 61 61 61 61 63 64 65 65
14 16 18 21 23 25 26 28 30 31 33 35 37 39 42 43 45 47 50 54 57 60 62 64 66 68 70 71 71 70 68 65 63 62 61 60 60 60 61 61 63 64 65 65
13 16 19 21 23 25 27 30 32 34 35 36 38 40 42 44 46 48 51 54 57 59 62 64 66 67 69 70 70 68 66 64 62 60 60 59 60 60 61 62 63 65 65 64
13 16 19 21 24 26 29 31 33 35 37 38 39 40 42 44 46 49 51 54 57 59 61 63 65 66 68 69 68 67 65 62 61 59 59 59 59 60 61 62 63 64 65 64
12 15 18 21 23 25 28 31 34 36 38 40 41 41 43 45 47 49 52 54 57 59 61 63 64 66 67 68 67 65 63 61 60 59 58 58 58 59 60 61 62 63 64 64
11 14 16 19 23 25 28 32 34 37 40 42 43 44 45 46 47 50 52 55 57 59 61 62 64 65 66 66 66 64 62 60 59 58 57 57 57 58 59 60 62 62 63 63
11 14 17 19 23 27 30 33 36 38 41 43 44 45 46 47 49 51 53 55 57 59 61 62 63 64 65 65 65 63 61 60 58 57 56 56 56 57 58 59 60 61 62 62
13 15 18 21 23 26 30 34 37 39 41 44 46 47 48 49 50 51 54 56 57 59 60 61 62 63 64 64 64 62 61 59 58 57 56 55 55 56 57 58 59 60 61 61
14 16 19 22 25 29 32 35 39 42 44 47 49 50 51 51 51 53 55 56 57 58 60 61 62 63 63 64 63 62 60 59 57 56 55 55 55 55 56 56 57 59 60 60
16 17 19 22 25 28 31 35 39 42 45 48 50 51 53 53 53 53 55 56 57 58 60 61 61 62 62 63 62 61 60 58 57 56 55 54 54 55 55 55 56 57 58 59
19 20 21 24 27 29 32 36 39 41 44 47 50 52 54 54 54 55 56 57 57 58 59 60 61 61 61 62 62 61 59 58 56 56 55 54 54 54 54 54 54 55 55 56
22 22 23 24 27 30 32 35 38 41 44 47 50 52 55 56 56 56 56 57 58 58 59 60 60 60 61 61 61 60 59 57 56 55 54 54 53 54 53 53 53 52 53 54
25 25 25 25 27 30 33 35 38 41 44 47 50 52 55 57 58 57 57 57 58 58 59 59 60 60 60 60 60 60 58 57 55 54 54 53 52 52 53 52 51 51 51 51
28 29 28 27 28 30 32 35 38 41 43 47 50 52 54 57 59 59 58 58 58 58 59 59 59 59 59 59 59 59 58 56 54 53 53 52 52 51 52 52 51 50 51 51
30 32 32 30 31 32 34 36 38 41 43 46 49 52 54 56 59 60 59 58 58 58 58 58 59 58 58 58 58 58 57 56 54 52 51 51 51 50 51 50 51 51 50 50

GEFSCGP_500_meanwind_060.txt.gz
Wind_Speed
12 13 15 15 16 16 16 16 16 17 18 18 18 20 22 23 25 28 30 32 34 37 40 43 46 50 54 58 62 65 69 73 76 80 83 85 85 82 78 74 70 68 66 64
11 13 14 14 14 14 14 15 15 16 17 17 18 20 23 24 26 28 30 32 35 38 41 45 48 52 56 59 63 67 70 74 77 81 83 84 82 78 74 70 68 66 64 62
11 12 12 12 13 13 14 14 15 16 16 17 18 20 23 25 27 28 31 34 36 39 43 46 50 54 57 61 64 68 71 74 78 81 82 82 79 76 71 68 65 64 63 61
9 10 11 11 12 12 13 14 15 16 17 18 20 20 24 26 27 30 32 35 38 41 44 48 52 55 59 62 65 68 72 75 78 80 81 79 76 72 69 65 64 63 62 61
8 8 9 10 11 12 13 14 15 16 17 19 21 22 25 27 29 31 34 36 39 42 46 49 53 56 59 63 66 69 72 75 78 79 80 77 74 70 67 64 63 62 61 62
6 7 8 9 10 12 13 14 15 16 17 19 23 25 27 28 30 33 35 38 40 44 47 50 54 57 60 63 66 69 72 75 77 78 78 75 72 68 65 63 62 61 61 62
5 6 7 9 10 12 13 15 16 18 19 21 24 26 27 29 31 33 36 39 42 45 48 51 54 57 61 64 67 69 72 74 76 77 76 73 70 66 64 62 61 61 61 62
4 5 7 8 10 12 14 16 18 20 21 20 23 26 28 30 32 35 37 40 43 46 49 52 55 58 61 64 66 69 71 73 75 75 74 71 68 65 63 62 61 61 61 62
3 4 6 8 10 13 14 16 18 20 21 22 24 27 30 32 34 36 38 41 44 47 50 53 56 58 61 64 66 69 71 72 73 73 72 70 67 64 62 61 61 61 61 62
3 4 5 8 10 12 15 17 19 22 25 27 27 30 33 35 37 38 40 42 45 48 51 54 56 59 61 64 66 68 70 72 72 72 70 68 65 63 61 60 60 60 61 61
3 4 5 7 9 12 15 17 20 23 25 29 31 33 35 37 38 40 42 44 46 49 52 54 57 59 61 64 66 68 69 71 71 71 69 67 64 62 61 60 60 60 60 60
4 4 6 7 10 12 15 17 20 23 25 27 30 33 36 38 40 42 44 46 48 50 52 55 57 59 62 64 66 67 69 70 70 70 68 66 63 61 60 59 59 59 59 60
6 6 7 8 10 13 15 18 20 22 25 27 30 33 37 39 42 44 46 48 50 51 54 56 58 60 62 64 65 67 68 69 69 69 67 65 62 61 59 58 58 58 58 59
8 8 8 9 11 13 15 18 20 23 25 28 30 33 37 40 43 45 48 50 52 53 55 57 59 61 62 64 65 67 68 68 69 68 66 64 62 60 59 58 58 57 57 58
11 10 10 11 12 14 16 19 21 23 26 29 31 34 38 41 44 47 49 52 54 56 57 58 60 61 63 64 65 66 67 68 68 67 65 64 61 59 58 57 57 57 56 57
13 13 12 13 14 15 17 19 22 24 26 29 32 34 38 42 45 48 51 53 55 58 60 60 61 62 63 64 65 66 67 67 67 66 65 63 61 59 58 57 56 56 56 56
16 16 15 15 16 16 18 19 22 25 27 30 33 36 39 42 45 49 52 54 56 59 62 63 62 62 63 64 65 66 66 67 67 66 64 62 60 59 57 57 56 55 55 55
20 19 19 18 18 19 20 21 23 25 28 31 33 37 39 42 46 49 52 55 57 60 63 64 64 64 63 64 65 66 66 66 66 65 64 62 60 58 57 56 55 55 54 54
24 23 23 22 22 22 22 24 25 27 28 32 35 37 40 43 46 49 52 55 58 60 63 65 66 65 64 64 65 66 66 66 66 65 64 62 59 57 56 55 55 54 54 54
27 27 26 26 26 25 26 27 28 30 31 33 36 39 41 44 47 49 52 55 58 60 63 65 67 67 65 65 65 65 65 65 65 65 63 62 59 57 56 55 54 54 54 53
30 30 29 29 29 28 29 30 31 31 34 36 38 40 42 45 47 49 52 55 58 60 62 65 67 68 67 65 65 65 65 65 65 65 64 62 59 57 55 54 54 53 53 53
34 33 33 32 31 31 32 32 33 34 34 36 38 41 43 45 47 49 52 55 57 60 62 64 66 68 68 66 65 65 65 65 64 64 63 62 59 57 55 54 53 53 52 52
38 37 37 35 33 34 34 34 35 36 37 38 39 41 43 46 47 49 51 54 57 59 61 63 65 67 68 67 65 65 65 65 64 63 63 62 60 57 55 53 52 52 51 51
41 40 40 38 34 35 37 37 38 39 39 40 41 42 44 46 48 48 50 53 56 59 61 62 64 66 68 67 66 65 64 64 63 63 62 61 60 57 55 52 52 51 50 50
45 43 41 40 37 38 39 39 40 40 41 41 42 43 45 47 48 49 50 52 56 58 60 61 63 65 67 67 66 65 64 63 63 62 62 61 59 57 55 53 51 50 50 50
45 43 43 42 40 43 42 41 42 42 43 43 44 45 46 47 48 49 49 52 55 57 59 60 61 63 65 67 66 65 63 63 62 61 61 60 59 57 54 52 51 51 50 50

GEFSCGP_500_meanwind_066.txt.gz
Wind_Speed
11 12 12 12 13 13 13 13 13 14 14 15 16 18 18 20 23 26 28 31 32 34 36 39 41 43 45 48 50 52 54 57 60 63 66 69 73 77 80 83 84 83 80 76
11 11 12 12 11 11 12 12 13 13 15 16 17 19 20 22 24 27 29 31 33 35 37 39 42 44 46 49 51 53 55 58 60 63 67 70 73 77 80 82 82 80 76 73
11 10 10 10 10 10 10 12 13 13 13 15 17 18 20 21 24 27 29 31 33 36 38 40 43 45 48 50 52 54 56 58 61 64 67 71 74 77 80 81 80 78 74 71
10 10 10 9 9 9 9 10 11 13 14 14 16 17 18 21 24 26 28 31 34 36 39 41 43 46 48 51 53 55 57 59 61 65 68 71 74 77 79 80 78 75 72 70
10 10 9 8 8 8 8 9 10 11 12 14 16 17 17 21 23 26 28 31 34 37 40 42 44 47 49 52 53 55 57 60 62 65 68 71 74 77 79 79 76 73 70 68
10 10 9 8 8 7 7 8 9 10 11 12 14 17 19 21 24 26 29 32 35 38 41 43 46 48 51 53 55 57 59 61 63 66 69 72 74 77 78 77 75 71 69 67
11 10 9 9 8 8 7 7 8 9 10 12 15 17 19 22 25 27 30 33 36 39 41 44 47 50 53 55 57 59 60 62 64 67 69 72 74 76 77 76 73 70 67 65
12 10 10 10 9 8 8 8 9 10 11 13 14 16 18 21 24 27 31 34 37 40 43 46 49 52 54 57 60 61 62 63 65 68 70 72 74 76 76 75 72 69 67 65
13 12 12 11 10 10 10 10 10 11 12 13 15 17 18 22 25 28 31 35 38 41 44 47 50 53 56 59 62 64 65 65 66 68 70 72 74 75 75 74 71 68 66 64
14 14 13 13 12 12 12 12 12 13 15 16 17 20 23 25 27 29 32 35 38 42 46 49 52 54 57 60 63 66 67 67 67 69 71 72 74 75 74 73 70 67 65 63
16 16 15 15 14 14 14 14 14 16 17 19 20 21 24 26 29 31 34 37 40 43 47 51 53 56 59 61 64 67 69 69 69 69 71 72 73 74 74 72 69 67 65 63
18 18 17 17 17 17 17 16 17 17 19 20 22 23 25 27 29 32 35 38 41 44 48 51 55 57 60 62 65 67 70 71 71 70 71 72 73 74 73 71 69 66 64 63
20 20 20 19 19 19 19 19 19 20 21 22 24 26 28 29 31 33 36 39 41 45 48 52 55 58 60 63 66 68 70 72 72 71 71 72 73 73 73 71 68 65 63 62
22 22 22 22 22 22 21 22 22 23 23 24 25 26 29 32 34 36 38 41 43 46 49 52 55 58 61 63 66 68 70 73 74 73 72 72 72 72 72 70 67 65 63 61
25 24 24 24 25 25 25 24 25 26 26 27 27 28 30 32 35 37 40 42 45 47 49 52 55 58 62 64 66 68 70 73 74 73 72 72 72 72 72 70 67 64 62 61
27 27 27 27 28 29 28 26 28 28 29 29 30 31 32 34 36 38 40 43 45 48 50 52 55 58 61 64 66 68 70 72 74 74 73 72 72 72 71 70 67 64 62 60
30 31 31 31 31 32 30 28 30 31 31 32 33 34 35 36 37 40 42 44 46 49 51 53 55 58 61 64 66 68 70 72 74 74 73 72 72 71 70 69 66 64 61 59
32 33 35 35 34 35 31 31 32 33 33 35 36 37 38 39 39 41 44 46 47 50 52 53 55 57 60 63 66 67 70 71 73 74 73 72 72 71 70 69 66 63 61 59
35 36 37 38 38 38 33 33 35 37 36 37 39 40 41 42 42 42 45 47 48 50 52 54 55 57 60 63 66 67 69 71 72 74 73 72 71 70 69 68 66 63 61 59
37 38 39 40 42 42 37 37 38 40 40 40 41 42 43 44 46 45 47 48 49 51 53 54 56 57 59 62 65 67 68 70 71 73 73 72 71 70 69 68 66 63 61 58
39 40 41 42 44 44 40 40 41 42 43 43 44 45 46 47 48 49 50 50 51 52 53 55 56 57 59 61 64 66 68 69 70 72 73 72 71 70 69 67 66 63 60 58
42 43 43 44 46 44 42 41 42 44 45 46 48 49 50 50 50 51 51 52 53 53 54 56 57 57 59 60 63 65 67 68 70 71 72 71 70 69 68 67 65 63 60 58
46 45 46 48 47 44 42 41 43 45 48 49 51 52 53 53 53 53 53 54 54 54 55 56 57 57 58 60 61 64 66 67 68 69 70 70 69 68 67 66 65 63 60 58
51 49 50 51 48 43 43 43 44 46 50 51 53 55 56 56 55 55 55 55 55 55 55 56 57 58 58 59 61 63 64 66 67 68 69 69 68 67 67 65 64 63 61 58
55 56 55 54 50 48 46 46 47 50 51 53 55 56 57 58 58 58 57 56 56 56 56 56 57 58 58 59 60 62 63 64 65 66 67 68 67 66 66 65 64 62 61 58
57 57 59 58 54 57 55 53 53 54 55 56 57 58 58 59 60 60 60 59 58 58 57 57 57 58 58 59 60 61 62 63 64 64 65 66 66 65 64 63 63 62 60 58

GEFSCGP_500_meanwind_072.txt.gz
Wind_Speed
13 13 13 13 13 12 11 10 9 9 8 8 8 9 9 9 10 11 12 14 15 17 19 22 24 26 28 30 33 35 37 39 42 44 47 49 51 53 55 57 59 61 64 68
13 13 14 14 14 13 12 11 10 9 9 8 9 9 10 10 10 11 13 14 15 17 19 22 24 27 29 31 33 36 38 41 43 46 48 51 53 55 57 58 60 63 66 69
14 14 14 15 15 14 13 12 11 10 10 10 10 10 11 11 12 13 14 15 16 18 20 22 25 27 30 32 35 37 40 42 45 47 50 52 55 57 59 61 62 64 67 70
15 15 15 15 16 15 14 14 13 12 11 11 12 12 12 13 13 14 15 16 18 19 21 23 25 28 31 33 36 39 42 44 47 49 52 54 57 59 61 62 64 66 68 71
15 16 16 16 17 16 16 15 15 14 14 13 14 14 14 15 15 16 17 19 20 21 22 24 26 29 32 35 37 40 43 46 49 51 54 56 59 61 63 64 65 67 69 71
16 17 17 17 18 17 17 17 17 17 17 16 16 17 16 17 18 19 20 21 22 23 24 26 28 31 33 36 39 42 45 48 51 53 55 58 60 62 64 66 66 68 70 71
17 18 18 18 18 19 19 19 19 19 19 19 19 19 18 19 20 21 22 23 24 26 27 28 31 33 35 38 41 43 46 49 52 55 57 59 62 64 66 67 68 68 70 71
17 18 19 19 20 20 20 21 22 23 22 21 22 22 21 22 22 23 24 26 27 28 29 31 33 35 37 40 42 45 47 50 53 56 58 61 63 65 67 68 69 69 70 71
19 19 20 21 21 22 22 22 24 25 25 25 25 24 23 24 25 26 27 28 29 30 31 33 35 37 39 42 44 46 49 51 54 57 59 62 64 66 68 70 70 70 70 71
22 21 21 22 23 23 24 24 25 27 28 29 28 27 26 26 28 29 30 30 31 33 34 35 37 39 42 44 46 48 50 52 54 57 60 62 65 67 69 71 71 70 70 71
24 23 22 23 24 25 25 26 27 29 31 32 32 28 29 29 30 31 32 33 34 35 37 38 40 42 44 46 48 50 52 53 55 58 60 63 66 68 70 71 72 71 70 70
26 25 24 25 26 27 27 28 29 31 33 34 36 31 30 32 33 34 34 35 37 38 39 41 42 44 46 48 50 51 53 54 56 58 61 63 66 68 70 71 72 71 70 70
27 27 27 26 27 29 29 29 31 34 36 36 38 34 31 34 36 37 38 39 39 40 42 43 45 47 48 50 51 53 54 56 57 58 61 63 66 68 70 71 72 72 70 69
29 29 29 29 30 32 31 31 33 37 38 39 38 36 32 35 39 41 42 42 43 44 45 46 47 49 50 52 53 54 55 57 57 59 60 63 66 68 70 71 72 72 70 69
32 31 31 31 32 36 35 33 34 38 39 42 41 40 36 38 42 43 44 46 46 47 48 49 50 51 52 53 55 55 56 57 58 59 60 63 65 68 70 71 71 71 70 69
35 35 34 33 34 38 38 35 36 39 41 43 44 43 39 43 45 46 46 48 49 50 51 52 52 53 54 55 56 57 57 58 58 59 60 62 65 67 69 70 70 70 70 69
36 38 39 38 37 40 39 36 38 40 41 43 45 44 44 46 48 48 49 50 51 52 53 53 54 55 56 56 57 57 57 58 59 59 60 62 64 66 68 70 70 70 69 68
39 39 42 43 43 43 39 38 39 41 41 42 44 45 47 48 49 49 51 52 52 53 54 55 56 56 57 57 58 58 57 58 59 59 60 62 64 65 67 68 69 69 68 67
40 42 44 46 47 48 41 39 41 43 42 42 45 46 48 50 51 50 51 53 54 55 56 57 57 58 58 58 58 58 58 59 59 60 60 62 63 64 66 67 67 68 67 66
43 44 46 48 50 50 45 44 44 46 45 45 46 47 49 52 53 53 53 55 56 57 58 59 59 59 59 59 59 59 59 60 60 60 60 61 62 63 65 66 66 66 66 65
47 48 49 50 52 52 47 47 47 47 47 48 50 51 53 55 57 57 58 59 60 61 62 62 62 61 61 61 61 61 60 60 61 60 60 61 62 63 63 64 65 65 65 64
51 52 52 52 55 53 49 50 49 50 51 52 54 55 58 59 60 61 62 62 63 64 64 65 65 64 63 63 64 63 62 62 62 61 60 61 62 62 62 63 63 63 63 63
54 54 55 57 57 54 53 54 53 55 56 57 58 59 61 63 64 64 65 65 65 66 66 66 66 65 64 64 64 64 63 63 62 61 61 61 61 62 61 61 61 61 61 61
56 56 57 58 57 55 56 56 57 59 62 62 63 63 64 66 66 67 67 66 67 66 66 66 66 65 64 64 64 63 63 63 62 61 60 61 61 61 60 59 60 60 59 59
54 54 56 57 55 57 57 58 60 62 63 64 64 65 66 67 67 67 67 67 66 66 65 65 64 64 63 62 62 61 61 61 60 60 59 59 59 59 58 58 58 58 58 58
50 52 55 57 54 59 60 60 62 63 63 64 65 64 64 65 65 65 64 63 63 62 62 62 61 60 60 59 58 58 58 58 58 58 58 58 57 57 56 56 56 57 56 56

GEFSCGP_500_meanwind_078.txt.gz
Wind_Speed
18 20 21 22 22 22 22 22 21 22 23 21 20 18 18 20 17 18 18 18 19 20 20 21 22 23 24 25 26 27 28 30 31 33 35 38 40 42 44 46 48 50 51 53
19 21 22 22 23 23 23 23 23 23 24 24 22 19 20 21 20 20 20 20 21 22 22 23 24 25 26 27 28 29 30 32 33 35 37 39 42 44 46 48 50 52 53 55
20 21 23 23 24 24 24 25 24 25 25 26 25 21 21 23 21 21 22 22 23 23 24 25 26 28 29 29 30 32 33 34 36 37 40 42 44 46 48 50 52 53 55 56
21 22 23 24 25 26 25 26 27 27 27 26 27 24 18 23 22 23 23 24 25 25 26 27 28 30 31 32 33 34 36 37 39 40 42 45 47 48 50 52 54 55 57 58
22 23 24 25 26 27 27 28 28 28 28 27 27 28 20 23 24 25 25 25 26 27 28 30 31 32 33 35 36 37 38 40 42 44 45 47 49 51 52 54 56 57 58 60
23 24 25 25 26 27 28 29 30 29 29 28 27 29 24 25 25 26 27 27 28 29 31 32 33 35 36 37 39 40 41 43 45 46 48 50 51 53 55 56 57 59 60 61
22 24 25 26 27 28 28 30 31 32 30 29 29 29 25 27 27 28 29 29 30 32 33 35 36 37 39 40 42 43 44 46 48 49 51 52 54 55 57 58 59 60 61 63
23 23 25 26 27 28 29 30 32 35 34 32 30 30 25 28 29 30 31 32 33 34 36 37 39 40 42 43 44 46 47 49 50 52 53 55 56 57 58 60 61 61 62 64
25 24 25 27 28 29 30 30 32 35 37 36 33 31 26 27 29 31 32 34 35 37 39 40 42 43 45 46 47 49 50 52 53 55 56 57 58 59 60 61 62 63 64 65
28 26 25 27 29 30 31 32 33 35 39 40 37 32 28 28 30 31 34 36 38 41 42 44 46 47 48 49 51 52 53 55 56 57 58 59 60 61 62 62 63 64 65 66
30 29 27 28 29 31 31 32 34 37 39 42 43 35 29 31 32 35 37 39 42 45 47 48 49 50 51 52 53 55 56 57 58 59 60 60 61 62 63 63 64 65 65 67
31 31 29 29 31 32 33 33 35 37 40 42 45 41 31 33 36 39 42 45 47 48 49 50 51 52 53 54 55 57 57 58 60 61 62 62 63 64 64 64 65 65 66 67
33 33 33 31 32 34 34 34 35 39 41 43 45 44 37 39 41 43 46 48 50 50 50 52 53 53 54 56 57 58 59 60 61 62 63 63 64 65 65 65 65 66 66 67
35 35 35 35 35 38 38 36 37 40 42 45 45 46 42 43 45 46 47 50 51 52 52 53 54 55 56 57 58 59 60 61 62 63 63 64 65 66 65 65 66 66 66 67
38 38 37 37 37 40 41 38 38 41 42 46 47 48 47 48 49 50 51 52 53 53 54 55 56 57 58 59 59 60 61 62 62 63 64 65 66 66 66 66 65 65 65 66
39 41 42 41 39 42 42 38 39 42 43 46 47 48 48 51 52 53 54 55 56 56 57 57 58 59 60 60 61 61 62 63 64 65 66 66 67 67 67 66 65 65 65 65
41 43 45 46 44 46 43 41 42 43 43 45 48 50 51 53 54 56 57 58 58 58 59 60 60 61 62 62 63 64 65 66 66 67 67 68 68 67 66 65 65 64 64 64
45 46 49 51 50 51 47 45 46 47 47 48 51 53 55 57 57 58 60 61 60 61 62 63 64 64 64 65 66 67 66 66 67 68 68 68 67 66 65 64 63 63 63 63
46 48 50 53 55 55 50 48 50 52 51 52 55 57 59 60 60 59 60 62 63 64 65 66 66 67 66 67 68 68 68 68 68 68 68 68 66 64 63 62 61 61 61 61
46 47 49 51 54 55 52 52 53 54 55 55 57 59 61 62 64 62 61 63 64 65 66 67 67 67 68 68 69 69 68 67 67 66 65 63 61 60 59 59 59 58 58 58
46 47 48 50 53 53 52 53 55 56 57 57 59 61 62 64 65 65 65 65 65 66 66 66 67 67 67 67 66 65 64 63 62 61 59 58 57 56 56 56 55 55 54 54
45 47 47 50 52 52 52 53 55 57 58 60 61 63 64 65 65 66 66 65 65 65 64 64 64 63 62 62 61 59 58 58 57 56 56 55 55 54 54 54 53 52 52 52
45 46 48 50 50 50 51 53 55 58 60 61 62 63 64 65 64 64 64 63 62 61 61 60 59 57 56 56 56 54 54 54 53 54 54 54 53 53 54 53 52 51 51 51
46 46 48 50 50 50 52 55 56 58 60 60 61 61 61 62 61 61 61 60 58 57 56 55 53 53 52 52 52 53 53 53 53 54 54 53 53 53 53 52 50 49 49 49
48 47 49 51 51 53 53 55 56 58 58 58 58 59 59 59 58 57 56 55 54 53 53 53 53 52 52 53 53 54 54 54 54 54 54 54 54 53 52 51 50 49 47 47
47 48 52 54 54 56 55 56 57 57 57 58 57 57 56 56 55 54 54 53 53 53 53 53 53 53 53 53 54 55 55 55 55 55 55 54 54 53 52 51 50 48 47 46

GEFSCGP_500_meanwind_084.txt.gz
Wind_Speed
18 20 21 22 23 23 24 24 24 25 26 24 22 20 21 25 26 24 24 25 24 24 26 26 26 27 27 28 29 29 30 31 32 33 34 35 36 38 40 41 43 44 46 47
17 19 21 22 23 24 25 25 25 25 26 26 23 20 22 25 25 25 25 25 26 26 27 27 28 28 29 30 31 32 32 33 34 36 37 38 39 41 43 44 46 48 49 50
17 19 20 22 23 23 24 26 26 26 26 25 25 18 21 24 25 25 26 26 27 27 28 29 29 30 31 32 33 34 35 36 37 39 40 41 43 44 46 48 49 51 52 53
17 18 20 21 23 24 25 26 27 27 26 25 25 22 20 22 25 26 26 27 28 28 29 30 31 32 33 35 36 37 38 39 40 42 43 44 46 47 49 50 52 53 54 55
17 18 20 21 23 25 26 26 26 26 26 24 24 24 22 22 24 26 27 28 28 29 30 32 33 34 36 37 38 40 41 42 44 45 47 48 49 50 52 53 54 56 57 58
19 20 21 22 23 25 26 27 27 26 25 24 23 23 24 24 25 26 28 29 29 30 32 33 35 36 38 39 41 42 43 44 46 48 49 51 52 53 54 55 57 58 59 60
19 21 22 22 23 24 26 27 29 28 26 24 24 23 24 27 28 29 29 30 31 32 33 35 36 38 39 41 43 44 46 47 49 51 52 53 54 56 56 58 59 60 60 61
19 20 22 23 24 25 26 27 29 31 30 27 24 22 24 28 30 32 32 33 33 33 35 36 38 39 41 43 44 46 47 49 51 53 54 55 56 57 58 59 60 61 61 62
21 21 23 24 25 26 27 28 30 32 33 31 27 23 24 29 31 33 34 35 35 36 38 39 41 42 44 44 46 47 49 50 52 54 55 55 57 58 59 60 61 61 62 64
24 23 23 24 25 26 28 29 31 33 36 37 34 28 29 30 32 34 37 38 38 39 41 42 43 44 45 46 47 48 50 51 52 54 55 56 57 58 59 60 61 62 64 65
26 25 24 26 27 28 28 30 32 34 36 39 41 35 32 35 38 40 41 41 42 42 42 43 44 45 46 47 48 49 50 51 52 54 55 56 57 58 59 61 62 64 65 65
27 28 27 27 28 30 30 31 33 36 38 40 44 41 35 40 43 45 45 45 45 45 46 46 46 47 47 48 49 50 51 53 54 55 56 57 58 59 61 62 64 66 66 67
30 30 31 30 30 33 33 32 34 37 40 42 45 44 41 44 47 48 49 49 49 49 48 49 49 49 49 50 51 52 53 54 56 57 58 59 60 62 63 65 66 66 67 67
32 31 32 33 33 37 37 35 36 39 42 46 46 47 44 48 49 49 49 50 50 50 50 50 50 50 50 51 52 53 54 56 57 59 60 61 62 64 65 66 66 67 67 66
35 35 35 35 36 38 39 37 37 41 43 46 46 47 47 49 50 50 50 50 51 51 50 51 51 51 52 52 53 55 56 58 60 61 62 63 64 65 65 65 64 64 63 63
37 38 38 37 36 39 39 36 38 40 42 44 45 45 47 49 50 50 51 51 52 52 52 53 53 54 54 55 56 57 58 60 61 62 62 62 63 63 62 62 61 60 60 59
35 37 39 38 38 39 37 37 38 40 41 44 46 47 49 49 50 50 51 52 53 54 54 54 55 56 57 58 59 59 59 59 60 60 60 59 58 58 57 57 57 56 57 58
35 37 40 41 41 41 38 39 41 43 43 45 46 47 49 49 49 51 53 54 54 55 56 56 57 57 58 59 59 58 58 57 57 56 55 55 54 54 54 54 54 55 56 56
35 37 40 41 43 43 40 42 44 46 46 47 49 50 50 51 51 53 55 56 57 58 58 59 59 59 59 58 57 56 55 54 54 53 53 53 53 52 52 53 53 54 55 54
35 36 39 41 44 46 46 47 49 51 52 52 53 53 54 55 56 55 56 58 58 59 60 60 60 59 57 57 56 55 54 54 53 53 53 53 54 54 54 54 55 54 54 54
38 40 42 44 47 48 48 50 52 54 56 56 56 57 58 58 60 60 60 61 61 61 61 61 60 58 57 56 56 55 54 54 53 53 54 54 55 55 55 55 54 54 54 54
42 45 46 48 50 50 52 54 55 57 59 59 60 60 61 61 62 63 63 63 63 62 62 61 60 58 57 56 56 55 55 54 54 54 55 55 55 55 55 55 55 55 54 54
47 48 49 51 52 53 56 58 59 61 62 62 63 64 64 64 65 65 64 64 63 62 61 60 59 57 56 56 56 56 55 55 55 55 56 55 55 55 55 55 54 53 53 53
51 51 53 55 55 56 59 61 62 64 65 65 66 67 67 67 67 66 65 64 63 61 61 60 58 57 56 56 56 56 56 56 56 55 55 54 54 54 54 53 53 53 52 52
55 56 58 59 59 61 62 64 65 66 67 67 68 68 68 68 67 66 65 64 63 62 60 59 58 56 55 55 55 56 56 55 55 55 54 54 54 54 53 52 52 52 51 50
57 60 63 63 64 66 66 67 68 69 69 69 69 69 68 68 67 66 65 64 63 62 60 58 57 56 56 55 55 56 56 55 55 54 54 54 54 53 52 51 50 49 49 47

GEFSCGP_500_meanwind_090.txt.gz
Wind_Speed
16 17 17 18 19 20 20 21 20 21 22 22 24 25 25 26 27 27 27 27 27 27 28 28 28 29 30 31 32 33 35 36 38 38 39 40 40 41 41 42 43 45 47 48
15 16 17 18 19 20 21 21 21 21 22 23 23 25 26 26 26 26 26 27 27 27 28 28 28 29 31 32 33 35 36 37 39 40 41 42 43 43 44 45 47 49 50 52
15 16 17 18 19 19 20 21 21 21 20 22 22 23 26 26 26 26 26 26 27 27 28 29 29 30 31 32 34 36 37 38 39 41 43 44 45 46 47 49 51 52 53 55
15 17 18 19 19 20 20 21 22 22 21 20 22 21 26 27 26 26 26 26 27 27 28 29 30 31 32 33 35 36 38 39 40 42 44 46 47 48 49 52 53 54 56 58
16 16 17 19 20 20 21 21 22 22 22 21 22 22 24 27 26 27 27 27 28 28 29 29 30 32 33 34 35 37 39 40 42 44 45 47 49 50 52 54 55 57 58 60
17 17 18 19 20 21 22 22 23 23 23 22 22 23 24 27 27 28 29 29 29 30 30 31 31 32 34 35 36 38 40 42 44 46 48 50 51 53 55 56 58 60 61 62
17 17 19 20 21 22 23 24 25 25 24 24 24 25 26 29 30 31 31 31 31 31 31 32 33 34 36 37 38 40 42 44 46 48 50 52 53 55 57 58 60 62 63 63
19 19 19 21 23 23 24 25 27 28 28 26 24 24 26 31 33 34 33 32 32 32 34 35 36 37 37 38 40 41 43 45 47 49 50 52 54 56 57 59 61 62 63 64
20 21 21 23 24 25 25 26 27 29 31 31 28 27 28 31 35 36 37 36 34 34 35 36 37 37 39 40 41 43 45 46 48 50 52 53 55 57 58 60 62 63 64 66
22 22 21 23 24 25 26 27 29 30 33 35 33 30 31 34 36 37 39 38 36 35 36 37 38 39 40 42 43 44 46 48 49 51 53 55 56 58 59 61 62 63 64 65
24 24 23 24 24 26 25 27 29 32 33 37 38 34 33 35 36 38 38 38 37 38 39 40 41 42 43 43 45 46 48 49 51 52 54 55 56 58 59 61 62 63 65 66
25 25 25 25 27 28 28 28 30 33 35 36 39 38 34 37 39 39 40 41 41 42 42 43 44 44 45 46 48 49 50 51 53 54 55 57 58 59 60 61 63 64 65 66
26 27 28 27 29 31 30 29 30 33 35 36 37 37 35 38 41 42 43 44 45 45 46 46 47 48 49 50 52 53 53 54 56 56 57 58 59 60 61 62 63 64 64 64
28 28 29 30 30 32 32 31 32 34 36 37 37 39 36 40 42 44 45 46 48 49 49 50 51 52 53 54 55 56 57 58 59 60 60 61 61 62 62 62 62 62 62 62
31 31 31 31 30 31 31 30 31 34 37 41 40 40 41 43 45 46 47 49 51 52 53 54 55 56 57 58 59 60 61 62 62 63 63 63 63 62 61 60 60 60 60 60
32 33 33 30 29 32 31 30 32 35 37 40 42 42 45 48 48 49 51 53 55 56 57 58 60 61 62 62 63 63 64 64 64 64 64 63 62 61 60 59 59 59 59 60
31 32 33 31 31 32 31 32 34 37 39 42 45 46 49 50 52 53 55 57 59 60 61 63 64 65 66 67 67 67 67 66 66 65 64 63 61 60 60 59 59 59 60 60
31 31 33 34 34 35 34 37 40 42 43 46 48 50 52 53 55 57 59 61 63 64 66 67 68 69 69 69 69 69 69 68 66 65 64 62 61 60 60 59 59 60 60 61
29 31 35 37 40 41 39 42 45 48 49 51 53 54 56 58 59 61 63 66 67 69 70 71 72 72 72 71 71 70 69 68 66 65 64 62 61 61 60 60 60 60 60 59
30 33 37 40 44 45 45 48 50 53 55 56 57 59 61 63 65 65 68 70 72 73 73 74 74 74 73 73 72 70 68 66 65 64 63 62 61 60 60 59 59 58 58 58
34 37 39 42 46 49 51 53 54 57 59 61 62 64 67 69 70 72 73 74 75 76 76 76 75 75 73 72 71 69 67 65 64 63 61 60 59 59 58 57 57 57 56 56
38 40 43 47 49 51 54 56 58 61 63 64 66 68 70 72 73 74 75 76 77 77 76 76 75 73 71 70 69 66 65 63 62 61 59 58 58 57 57 56 55 54 54 53
41 43 47 51 53 54 57 60 62 64 66 68 70 71 73 74 76 77 78 78 77 77 75 74 73 71 68 67 66 64 63 61 60 59 58 57 56 56 55 55 53 53 52 52
45 47 51 54 55 57 60 62 64 66 68 70 72 74 75 77 78 78 78 77 76 75 73 71 70 68 65 63 62 62 61 60 58 57 56 55 54 53 53 52 52 51 51 49
48 52 56 57 59 61 63 65 67 69 71 73 74 76 77 78 78 78 77 75 73 72 70 68 67 65 63 61 60 60 59 58 57 55 54 53 52 51 50 50 49 49 48 47
51 56 58 60 62 64 66 68 70 71 72 74 76 77 77 77 76 75 74 72 70 68 66 65 63 62 61 59 58 57 56 56 54 53 51 50 49 49 48 47 46 45 45 45

GEFSCGP_500_meanwind_096.txt.gz
Wind_Speed
11 12 12 13 13 14 14 14 15 17 17 17 18 18 17 17 17 18 18 19 18 18 18 19 20 22 23 24 25 26 27 29 31 33 34 36 37 38 39 40 42 44 46 48
10 11 12 13 13 14 14 14 14 16 18 18 18 18 16 16 16 17 18 19 19 19 19 20 21 22 24 25 26 28 29 30 32 34 36 36 38 38 40 42 44 46 48 50
10 11 12 13 13 13 14 14 14 14 16 18 18 17 16 15 15 16 17 18 19 20 21 22 23 24 25 26 27 29 30 32 33 35 36 38 39 40 42 44 46 47 49 51
11 12 12 12 13 13 14 15 15 14 15 16 18 18 17 16 16 17 17 19 20 21 23 24 24 25 26 27 28 30 31 32 34 35 37 38 40 41 43 46 47 49 51 52
12 12 13 13 13 14 15 16 15 15 15 16 17 18 19 18 18 18 19 20 21 22 23 25 26 27 27 28 29 31 32 33 34 36 38 39 41 42 44 46 48 50 51 53
13 13 13 14 14 15 16 17 17 16 16 16 17 18 20 20 20 20 20 21 22 24 25 26 27 28 29 30 31 32 33 34 36 37 39 40 42 44 45 47 49 51 53 54
14 14 14 15 16 16 17 18 19 18 17 17 18 19 20 22 22 22 23 23 24 25 26 27 27 28 30 31 32 33 35 36 38 40 41 43 44 46 48 49 51 53 54 56
14 15 16 16 17 18 18 19 20 21 20 18 19 19 21 23 24 24 24 24 24 25 26 27 29 31 32 33 35 37 38 40 41 43 45 47 48 50 51 53 55 56 57 59
16 16 17 18 18 19 20 20 22 23 23 21 19 19 21 24 25 25 25 25 26 27 29 30 32 34 35 37 39 40 42 43 45 47 48 50 52 54 56 57 59 60 61 62
18 18 18 19 20 20 21 22 23 24 26 26 22 20 23 25 25 27 28 29 29 30 32 34 35 37 39 41 43 45 47 48 50 52 53 55 57 59 60 62 63 64 65 65
20 19 19 20 20 21 22 23 25 26 27 28 27 22 24 25 27 29 31 32 33 35 36 38 40 42 44 46 48 50 51 53 55 57 59 60 62 63 65 66 67 67 68 68
22 21 19 21 22 23 23 24 26 27 27 28 28 24 25 28 30 32 34 35 37 40 41 43 45 47 49 51 53 55 57 59 61 63 65 66 67 69 69 70 70 70 70 70
23 23 22 22 24 25 24 25 27 29 28 27 27 26 28 31 33 35 37 39 42 44 46 48 50 52 54 57 59 61 63 65 67 68 69 70 71 72 73 73 72 72 72 71
25 24 25 25 26 27 26 26 28 29 30 29 28 28 29 33 36 38 40 43 46 48 50 53 55 57 60 62 64 67 69 70 71 72 73 74 74 75 75 74 74 73 72 71
27 26 26 26 28 29 27 25 27 29 30 32 31 32 34 37 39 41 44 47 49 51 54 57 60 62 65 67 69 71 73 74 75 75 76 76 76 76 76 75 74 73 72 71
29 29 29 28 29 30 27 26 28 29 31 33 35 36 38 41 43 46 48 51 53 56 58 62 64 67 69 72 74 75 76 77 78 78 78 78 77 76 75 73 72 71 70 69
30 31 32 30 29 30 28 28 30 31 33 35 37 39 42 44 47 50 52 55 58 61 63 66 69 71 73 75 77 79 79 80 80 79 79 78 76 74 72 71 70 68 67 67
30 31 33 33 31 30 29 31 32 34 36 38 41 43 46 48 51 54 57 59 62 65 68 70 73 75 77 79 80 81 81 81 80 79 77 75 73 71 69 68 66 66 65 63
30 32 34 35 34 32 30 34 36 38 40 41 44 46 49 52 55 57 60 63 66 69 71 74 76 79 80 82 82 82 81 79 78 75 73 70 69 67 65 63 62 61 60 59
31 33 35 36 37 37 36 38 39 42 43 45 48 50 53 56 59 60 63 67 69 72 75 77 79 81 82 82 82 80 78 76 74 71 69 66 64 62 60 59 58 58 57 56
31 34 35 36 39 40 41 42 43 45 48 50 52 55 58 60 63 66 68 71 73 76 78 80 81 81 81 80 79 77 74 72 70 67 64 62 59 58 57 56 55 55 54 53
33 34 35 38 40 42 43 45 46 49 51 54 56 59 62 64 67 69 71 73 75 77 79 80 81 80 78 76 75 73 70 68 65 63 60 57 56 55 54 54 53 52 51 49
34 35 38 40 42 44 46 47 49 52 55 57 60 63 65 67 69 72 73 75 77 78 79 80 79 77 74 72 71 69 66 64 61 59 56 55 53 52 52 52 50 49 47 46
35 38 41 43 44 46 48 50 52 55 58 61 63 65 68 70 72 73 75 76 77 78 78 77 76 74 70 68 66 65 63 61 59 57 55 53 52 51 50 49 47 46 45 44
37 41 43 45 46 49 50 53 55 58 60 63 65 67 69 72 73 75 76 77 77 76 75 74 72 70 68 65 63 61 60 59 57 55 53 51 49 48 46 45 44 43 42 42
40 44 46 47 48 51 53 55 57 60 62 64 67 69 70 72 74 75 76 76 75 74 72 70 69 67 65 63 60 58 58 57 55 53 50 48 46 45 44 42 41 41 41 40

GEFSCGP_500_meanwind_102.txt.gz
Wind_Speed
14 14 15 15 15 16 16 16 17 18 16 16 16 16 17 18 18 19 20 20 21 21 21 22 22 23 23 23 24 25 26 27 28 29 30 32 33 35 36 38 40 42 43 45
14 15 15 15 15 16 16 16 16 17 17 16 16 16 17 18 18 19 20 20 21 21 22 23 23 23 24 24 25 26 26 28 29 30 32 33 34 36 38 39 41 43 44 46
15 16 16 16 16 16 16 15 16 17 18 17 16 16 17 18 19 20 20 21 22 22 23 23 24 24 25 26 26 27 28 29 30 31 32 33 35 36 38 40 42 44 46 47
16 17 17 17 16 16 16 16 16 17 17 17 17 17 17 18 19 20 21 22 23 23 24 24 25 25 26 27 28 29 29 30 31 32 34 35 36 37 39 41 43 45 47 49
17 17 17 18 17 17 17 18 18 18 18 18 18 18 18 19 20 21 22 23 24 24 24 25 26 26 27 28 28 29 30 32 33 35 36 38 39 41 42 44 46 48 50 52
18 18 18 19 18 18 19 19 19 19 19 19 19 20 20 20 21 22 23 24 25 25 25 26 27 28 29 30 31 32 33 35 37 38 40 41 43 45 46 48 50 52 54 56
18 19 19 19 19 19 20 20 21 20 20 20 20 21 22 21 22 23 24 25 25 26 26 27 29 30 31 32 33 35 36 38 40 41 43 45 47 48 50 52 54 55 57 59
19 19 19 20 20 20 21 21 22 23 23 21 22 22 23 24 25 25 26 26 27 27 28 29 31 32 33 34 36 38 39 40 42 44 46 48 51 52 54 57 59 61 63 65
20 20 20 20 21 22 22 23 24 25 25 24 22 22 24 26 27 27 27 28 28 29 30 31 33 34 36 38 40 41 43 44 46 49 51 53 56 58 60 63 65 68 70 72
21 20 20 22 23 23 24 25 25 26 28 27 25 23 25 27 28 28 28 29 30 31 32 34 36 38 39 42 44 46 48 50 52 54 56 58 61 63 66 69 71 73 75 77
22 22 22 23 24 25 26 26 27 28 29 31 29 26 27 28 29 30 30 31 32 34 36 38 39 42 44 46 49 51 53 55 58 60 62 64 67 69 72 74 76 78 79 81
24 24 24 25 26 27 27 27 29 30 31 32 32 29 29 30 31 32 33 34 35 37 39 41 44 46 48 51 53 56 58 60 63 65 67 69 72 75 77 79 81 82 83 84
26 26 26 26 27 28 28 28 30 32 33 33 32 30 31 33 34 35 36 37 39 41 43 46 48 50 53 55 58 60 63 65 67 70 72 75 77 80 82 83 84 84 85 84
28 27 27 28 29 30 29 30 32 34 34 35 32 32 33 36 37 38 38 40 42 45 47 49 52 54 57 60 62 64 67 69 72 74 77 79 81 83 84 84 84 84 83 83
29 29 28 29 30 31 31 31 34 35 36 37 35 35 35 37 39 40 42 44 46 49 51 53 56 59 61 63 66 68 71 73 76 78 80 82 83 84 84 83 83 82 81 81
30 31 31 30 32 34 34 33 35 36 37 37 38 37 38 39 40 43 45 47 50 52 54 57 60 62 65 67 70 72 74 76 79 81 82 83 83 83 83 82 82 81 79 77
32 33 34 33 33 36 35 34 35 36 37 38 38 39 39 41 43 46 48 50 52 55 57 60 63 66 68 71 73 75 77 79 81 82 83 83 83 82 82 81 80 77 75 72
33 34 36 37 36 37 36 35 35 37 37 38 39 40 42 44 46 49 51 53 55 58 61 63 66 69 71 74 75 77 79 80 82 82 82 82 82 82 80 78 75 72 69 67
34 35 38 39 39 39 36 36 37 38 39 38 40 42 44 46 48 51 54 56 59 61 64 67 70 72 74 75 77 79 80 82 82 82 82 81 81 79 76 73 69 67 64 61
34 36 39 40 42 41 38 37 38 40 41 40 42 44 46 49 51 53 56 58 61 64 67 70 72 74 75 77 79 80 82 83 83 82 81 79 77 75 72 68 65 63 60 57
34 37 38 40 42 41 40 41 41 42 43 44 45 47 49 52 54 56 58 61 64 67 70 72 74 75 77 79 80 82 82 82 82 80 78 76 73 70 67 65 62 60 57 54
36 38 39 40 41 42 42 43 43 44 45 47 48 50 53 55 57 59 62 65 68 70 72 74 75 76 78 80 81 82 81 81 79 77 75 71 68 65 63 61 59 56 54 52
37 39 40 41 41 42 43 44 45 47 48 49 51 54 56 58 60 63 65 68 70 72 73 75 76 77 78 80 81 81 80 79 77 74 70 67 64 62 60 58 56 53 51 50
39 39 40 41 42 44 45 46 48 49 50 52 54 57 59 61 63 66 68 70 71 73 74 76 78 79 79 79 79 79 78 77 74 71 67 64 61 58 56 54 52 51 49 48
39 40 42 43 44 45 47 48 49 51 53 55 57 59 61 63 66 68 70 71 73 74 76 77 79 80 79 79 78 76 75 74 71 67 64 61 59 56 53 50 49 48 46 46
40 42 44 44 45 47 48 50 51 53 55 57 59 61 63 66 68 70 71 72 74 76 77 78 79 79 78 77 75 74 73 71 69 65 62 59 56 53 51 48 45 45 45 44

GEFSCGP_500_meanwind_108.txt.gz
Wind_Speed
16 15 14 13 13 13 13 14 15 15 15 16 17 18 18 18 18 19 19 19 19 19 19 20 20 21 21 21 21 22 23 24 24 25 26 27 28 29 30 32 33 35 36 38
17 16 15 14 14 14 14 14 15 15 15 16 17 18 18 18 19 19 19 19 20 20 20 21 22 22 22 22 23 23 24 24 25 26 27 28 29 30 32 33 35 37 38 40
18 16 15 15 15 15 15 15 15 15 15 16 17 18 18 19 19 19 20 20 21 21 22 22 23 23 24 24 24 24 25 25 26 27 28 30 31 33 35 37 38 40 41 43
18 17 16 16 16 15 15 15 15 16 16 16 17 18 19 19 19 20 21 21 22 22 22 23 24 24 25 25 26 26 27 28 29 30 31 32 34 35 37 38 40 42 44 45
18 18 17 17 16 16 16 16 16 16 17 17 18 19 19 20 21 21 22 22 22 23 23 24 25 26 26 27 28 28 29 30 31 32 33 35 36 38 39 41 43 45 47 49
19 19 18 17 17 17 17 17 17 17 17 18 18 20 20 20 21 22 22 23 24 24 25 26 27 27 28 29 30 31 31 32 33 34 36 37 39 41 43 45 46 49 51 53
20 19 18 18 18 17 17 17 18 18 18 18 19 21 21 21 22 23 24 24 25 26 27 28 28 29 30 31 32 33 33 34 35 37 39 41 43 44 47 49 51 53 55 58
20 19 18 18 18 18 18 18 19 20 20 20 21 22 22 22 23 24 25 26 27 28 29 29 30 31 33 34 34 35 36 37 39 41 43 45 47 49 51 54 56 58 60 62
20 19 18 18 18 18 18 19 19 21 22 22 22 22 23 24 25 26 27 28 29 30 31 31 33 34 36 36 37 38 39 41 43 45 47 49 51 54 56 59 61 63 65 67
19 19 19 19 19 19 20 20 21 22 24 24 24 23 25 26 27 27 28 29 30 31 32 34 36 37 38 39 40 42 44 45 47 49 51 54 56 59 61 63 66 68 70 72
20 20 19 20 20 21 21 22 23 25 26 27 27 25 27 28 29 29 30 31 32 33 34 36 38 39 40 42 43 45 47 49 51 53 56 58 61 63 66 68 70 72 73 75
21 21 20 21 21 22 23 23 25 26 27 28 29 28 28 30 31 32 33 34 34 36 37 39 40 42 43 44 46 48 50 53 55 57 60 62 65 67 69 71 73 75 77 78
21 21 21 22 23 24 24 25 26 28 29 30 30 30 30 33 34 35 35 36 37 38 40 41 42 44 45 47 49 52 54 56 59 61 64 66 69 71 72 74 75 77 78 80
22 22 22 24 25 25 25 26 27 29 31 32 30 31 32 35 36 37 37 38 39 40 41 42 44 46 48 50 53 55 57 60 62 65 67 69 71 72 74 75 77 78 79 80
23 23 24 25 26 27 27 27 28 30 32 34 33 33 34 37 38 38 38 39 40 41 43 44 46 48 51 53 56 58 60 63 65 67 69 71 72 74 75 77 78 79 80 79
25 25 25 26 27 29 28 27 30 32 33 35 36 35 36 37 38 39 40 41 42 43 45 47 49 51 54 56 58 60 63 65 67 69 71 72 74 75 77 78 79 79 79 78
26 26 27 27 28 31 30 28 31 33 34 36 37 37 38 38 39 40 41 42 43 45 47 49 51 54 56 58 61 63 65 67 69 70 72 74 76 77 78 79 79 79 78 77
27 28 30 31 31 32 31 30 31 34 35 36 38 38 39 39 40 41 42 43 45 47 49 52 54 56 59 61 63 65 67 68 70 72 74 76 77 79 79 79 79 78 77 75
28 29 31 33 34 34 32 32 34 36 36 36 38 38 39 40 41 42 44 46 48 50 52 54 56 59 61 63 65 66 68 70 72 74 75 77 79 79 79 78 77 76 75 73
29 31 33 34 36 37 35 34 35 37 37 37 38 39 40 41 43 44 46 48 50 52 54 57 59 61 63 65 67 68 70 72 73 75 77 78 79 79 78 77 76 74 73 70
30 32 34 35 37 38 37 38 38 39 40 41 41 41 42 43 45 46 48 50 52 55 57 59 61 63 65 67 69 70 72 74 75 77 78 79 78 78 77 76 74 73 71 67
32 34 34 35 37 38 39 40 41 42 43 43 44 44 45 46 47 48 50 53 55 57 59 61 63 65 67 69 71 72 73 75 77 78 78 78 77 76 76 74 72 70 67 63
34 35 36 37 38 39 41 42 43 44 45 45 46 46 47 48 50 51 53 55 57 59 61 63 65 67 68 70 72 74 75 77 78 78 78 77 76 75 75 73 70 67 63 60
37 37 38 39 39 41 43 44 45 46 46 47 48 49 49 50 52 54 56 57 59 62 64 66 67 69 70 72 73 76 77 78 79 78 77 76 75 74 72 69 66 62 59 55
39 39 39 40 41 43 44 45 46 47 48 49 50 50 51 53 55 56 58 60 62 64 66 67 69 70 72 73 75 77 78 79 79 78 76 75 74 72 68 64 61 57 53 51
39 40 41 42 43 44 45 46 47 48 49 50 50 52 53 55 57 58 60 62 64 66 68 69 70 72 73 75 76 78 79 79 78 76 75 73 71 68 64 59 54 51 49 46

GEFSCGP_500_meanwind_114.txt.gz
Wind_Speed
22 21 20 19 18 17 17 16 16 17 16 17 17 17 17 17 18 18 18 18 18 19 19 19 20 21 22 22 23 23 23 24 24 25 25 26 26 27 28 29 30 31 33 34
23 22 20 19 19 18 17 17 18 18 17 18 18 18 17 17 17 18 18 18 19 20 20 21 22 22 23 23 24 24 25 25 26 27 27 28 28 29 31 32 33 34 35 36
24 22 20 20 19 18 18 18 18 18 18 19 19 18 17 18 18 19 19 20 20 21 21 22 23 23 24 25 25 26 27 28 28 29 29 30 31 32 33 34 35 37 38 39
24 23 21 21 20 19 19 18 19 19 19 19 20 20 17 18 19 20 21 21 21 22 22 23 24 25 26 26 27 28 29 29 30 31 32 33 34 35 36 37 38 39 41 42
24 23 22 21 21 20 19 19 19 19 20 20 20 22 19 17 19 21 22 22 22 23 24 25 26 26 28 29 29 30 31 31 32 33 34 35 36 37 38 39 41 42 44 45
25 24 23 22 22 21 20 20 20 20 21 20 19 22 22 18 20 22 22 23 24 25 26 26 27 28 29 30 31 32 33 33 34 36 37 38 38 40 41 42 44 45 47 49
26 25 24 23 22 22 21 20 21 21 21 21 19 21 22 21 22 23 23 24 25 26 27 28 29 30 31 32 34 34 35 36 37 38 39 40 41 42 44 45 47 49 51 53
27 26 24 23 23 22 21 21 21 21 21 22 20 21 21 22 24 25 25 26 27 28 29 30 31 32 34 34 36 36 38 39 39 40 41 42 44 45 47 49 51 53 54 56
28 27 24 24 23 23 21 21 21 22 22 23 23 24 21 22 25 26 27 28 29 30 31 32 33 35 36 37 38 39 40 41 42 43 44 45 47 49 50 52 54 56 57 59
27 27 24 24 24 23 22 21 22 23 24 25 24 25 25 22 25 27 29 30 31 32 33 34 35 37 38 39 40 41 42 43 44 46 47 48 50 52 54 55 57 59 61 63
28 28 25 24 24 23 23 23 23 24 25 26 26 26 27 26 27 29 31 31 32 33 35 36 38 39 40 40 41 43 44 45 46 48 50 51 53 55 57 58 60 62 64 65
28 28 27 25 24 25 24 23 24 25 26 27 28 28 26 28 30 32 32 33 34 35 37 38 39 40 41 42 44 45 47 48 49 51 52 54 56 58 60 61 63 64 66 67
27 27 26 26 26 25 24 23 25 27 28 28 29 30 29 30 32 33 33 34 36 37 38 39 40 41 43 44 46 47 49 50 51 53 55 57 59 61 62 64 65 66 67 69
27 26 26 26 27 25 24 25 26 28 29 29 28 29 31 34 34 34 34 36 37 38 39 41 42 43 45 46 48 49 51 52 54 55 58 60 62 63 65 66 67 68 69 71
27 26 26 26 28 27 27 26 27 28 29 31 29 30 31 36 36 37 37 37 39 40 41 42 44 45 46 48 50 51 53 54 56 58 60 62 64 65 66 67 69 70 71 73
27 26 26 27 28 29 28 26 28 29 30 32 32 31 32 34 36 38 40 40 41 42 43 44 45 47 48 50 51 53 55 57 59 61 63 64 66 67 68 69 70 72 73 75
28 28 28 28 29 30 29 26 28 29 30 32 33 32 33 35 36 39 40 41 42 44 45 46 47 49 50 52 54 56 57 59 61 63 65 66 67 69 70 71 72 74 75 76
29 29 30 29 30 31 28 27 28 30 31 32 34 34 36 37 38 40 41 42 44 45 46 48 49 51 52 54 56 58 59 61 63 65 66 68 69 70 71 73 74 76 77 77
29 29 30 31 32 32 29 28 29 31 32 32 34 36 37 38 40 41 42 44 45 46 48 50 51 52 54 56 58 59 61 63 65 67 68 69 71 72 73 75 76 77 78 78
30 30 32 32 34 34 30 30 31 33 34 33 35 37 38 40 41 42 44 46 47 48 50 51 52 54 56 58 59 61 63 65 67 68 69 70 72 74 75 76 77 78 78 78
30 32 33 34 36 35 32 33 34 35 37 37 38 39 40 42 43 45 46 48 49 50 51 53 54 55 57 59 61 63 65 66 68 69 71 72 74 75 77 78 78 78 79 78
31 33 34 35 37 35 34 36 37 38 39 40 41 42 43 44 45 47 48 49 50 51 53 54 55 57 59 61 63 65 66 68 69 71 72 73 75 77 78 78 78 79 79 78
33 33 35 35 36 37 38 39 40 41 42 42 43 45 46 47 48 49 50 51 52 53 54 56 57 59 60 62 65 66 68 69 71 72 74 75 76 77 78 78 79 78 78 76
35 34 36 37 37 38 40 41 42 43 44 44 45 47 48 49 50 51 51 52 53 54 56 58 59 60 62 64 66 68 70 71 73 74 75 76 77 78 78 78 78 77 75 73
36 35 37 38 39 40 41 42 43 44 45 46 47 48 49 50 51 51 52 53 54 56 58 59 61 63 64 66 68 70 72 73 74 75 77 77 78 78 78 77 76 74 71 68
35 36 38 39 39 40 41 42 44 45 46 48 49 49 50 51 51 52 53 54 56 58 60 61 63 64 66 68 69 71 73 75 76 77 78 78 78 78 77 76 73 69 65 62

GEFSCGP_500_meanwind_120.txt.gz
Wind_Speed
23 23 22 22 22 22 21 21 21 21 21 20 19 18 18 18 17 17 17 17 18 18 19 19 19 19 20 20 21 22 22 23 24 24 25 26 27 28 29 30 30 31 32 34
24 23 23 23 22 22 22 22 22 23 23 21 20 18 18 18 17 17 17 18 18 18 19 19 19 20 21 21 22 22 23 24 25 26 27 28 29 30 31 32 33 34 35 36
24 23 24 23 23 23 23 23 24 24 23 23 21 18 19 19 18 17 18 18 18 19 19 19 20 21 21 22 23 24 24 25 26 28 29 30 31 32 33 34 35 37 38 39
26 25 25 24 24 24 24 25 26 25 24 23 22 20 18 20 19 18 18 19 19 19 20 20 21 22 22 23 24 25 26 27 28 30 31 32 33 34 35 36 38 39 40 42
26 26 26 25 25 25 25 26 27 26 25 24 23 23 17 20 19 19 19 19 19 20 20 21 22 23 24 25 26 27 28 29 30 32 33 34 35 36 37 39 40 41 43 44
27 27 26 26 26 26 26 27 28 28 27 25 24 24 18 19 20 20 20 20 21 21 21 22 23 24 25 26 27 28 30 31 32 34 35 36 37 38 39 41 42 44 45 46
28 27 26 26 26 26 26 27 28 29 28 26 25 25 20 20 21 21 21 21 22 22 22 23 24 25 27 28 29 31 32 33 34 35 36 38 39 40 42 43 44 46 47 48
28 27 26 26 27 27 27 27 28 29 28 26 26 25 22 21 22 22 22 23 23 23 24 24 26 27 28 30 31 33 34 35 36 37 38 40 41 43 44 46 47 48 49 50
28 27 27 26 27 27 27 28 29 30 29 28 27 25 23 22 23 24 24 24 24 24 25 26 28 29 30 31 33 34 36 37 38 39 40 42 44 45 46 47 49 50 52 53
28 28 27 27 27 28 29 29 29 30 30 30 27 25 25 24 25 25 25 25 25 26 27 28 30 31 32 33 35 36 37 38 40 41 43 45 46 47 48 50 51 52 54 56
29 30 28 28 28 28 29 29 29 30 31 31 30 26 25 26 27 27 27 27 27 28 29 30 32 33 34 35 36 38 39 40 42 43 45 47 48 49 51 52 54 55 57 59
30 31 29 28 28 29 30 29 29 30 30 32 32 27 25 28 29 29 29 29 29 30 31 32 33 34 36 37 38 39 41 42 44 46 47 49 50 52 53 55 56 58 60 61
32 32 30 29 29 29 29 28 29 31 32 32 32 28 27 29 30 31 31 31 31 32 33 34 35 36 37 39 40 41 43 44 46 48 49 51 53 54 56 57 59 61 62 63
33 33 31 29 29 29 29 29 30 32 33 33 31 28 27 30 32 33 32 32 33 33 34 36 37 38 39 41 42 43 45 47 48 50 51 53 55 57 58 60 61 63 64 66
32 31 30 30 30 30 30 29 30 31 31 33 30 29 27 31 34 34 34 33 34 35 36 37 38 40 41 42 44 45 47 48 50 52 54 55 57 59 60 62 63 65 66 67
30 30 30 30 30 32 31 29 29 30 31 32 32 29 29 33 34 34 34 35 35 36 37 38 40 41 43 44 45 47 48 50 52 54 56 57 59 60 62 63 65 66 67 68
31 30 31 30 30 33 32 28 29 31 31 32 32 30 31 33 34 34 35 36 37 37 38 40 41 43 44 46 47 48 50 52 54 56 57 59 60 62 63 65 66 67 68 70
31 32 33 33 33 35 30 29 30 31 31 32 32 32 32 34 34 35 35 37 38 39 40 41 43 44 46 47 49 50 52 54 56 57 59 60 62 63 65 66 68 69 70 72
32 33 34 35 35 35 31 30 31 32 32 31 33 33 34 34 35 35 37 38 39 41 42 43 44 46 47 49 50 52 54 55 57 59 60 62 64 65 67 68 69 71 72 73
33 34 35 35 36 36 30 30 32 35 34 32 34 35 35 36 36 37 38 40 41 42 43 44 46 47 49 50 52 53 55 56 58 60 62 64 65 67 68 69 71 73 74 76
33 34 35 35 37 36 32 32 34 35 35 35 35 36 36 37 38 39 40 41 42 43 45 46 48 49 50 52 53 54 56 58 60 61 63 65 66 68 70 71 73 75 76 77
34 35 36 36 37 35 34 35 36 36 36 37 37 37 38 39 40 41 42 43 44 45 46 48 49 50 52 53 54 56 58 60 61 63 65 66 68 70 72 74 75 77 78 79
34 35 36 37 36 35 36 37 37 38 38 38 38 39 39 40 41 42 43 45 46 47 48 49 50 51 52 54 56 58 60 61 63 64 66 68 69 71 74 76 77 78 80 80
34 35 36 36 35 36 37 38 39 39 39 40 40 41 41 42 43 44 45 47 48 48 49 50 51 52 54 56 58 60 61 63 65 66 68 69 71 74 76 78 79 80 80 80
35 36 36 37 36 37 38 38 39 39 40 41 42 43 44 45 45 46 47 48 48 49 50 51 52 54 56 58 60 61 63 65 67 68 70 72 74 77 78 79 80 80 79 79
35 36 37 37 37 38 37 38 40 41 41 42 43 45 45 46 47 47 48 48 49 50 51 53 54 56 58 59 61 63 66 68 69 71 73 75 77 78 79 80 79 78 78 77

GEFSCGP_500_meanwind_126.txt.gz
Wind_Speed
27 26 24 25 25 24 24 23 23 24 24 24 23 22 23 24 23 24 24 24 24 24 24 24 24 24 24 24 24 24 24 25 25 26 26 27 27 28 29 30 31 32 33 33
28 26 26 26 26 25 25 25 25 26 26 25 24 22 24 25 24 25 25 25 25 25 24 24 25 25 25 26 26 26 26 26 27 27 27 28 29 30 31 32 33 34 34 35
29 27 28 28 27 27 26 26 26 27 27 27 26 22 24 26 26 25 26 26 25 25 25 25 26 26 27 27 27 27 27 28 28 29 29 30 30 32 33 34 35 36 37 38
30 29 29 29 28 28 27 28 28 28 28 27 28 25 21 25 26 26 26 26 25 25 26 26 27 27 28 28 28 28 29 29 29 30 31 32 32 33 34 36 36 37 38 40
30 29 29 29 29 29 29 29 30 30 30 29 27 29 20 24 26 26 26 26 26 26 26 27 28 28 28 29 29 29 30 30 31 32 33 34 35 35 36 37 38 39 40 42
31 30 30 30 30 30 30 31 31 31 31 30 27 29 24 24 25 26 26 26 26 26 27 28 28 29 29 30 30 31 31 32 33 34 35 36 37 37 38 39 40 41 42 44
30 30 30 30 30 30 30 31 32 32 31 30 28 28 25 25 25 26 26 26 27 27 28 28 29 30 30 31 31 32 33 34 35 36 37 38 39 40 40 41 42 43 45 46
31 30 30 30 30 30 30 31 32 34 33 31 29 28 25 25 26 26 27 27 28 28 29 29 30 31 32 32 33 34 35 36 37 38 39 40 41 42 42 43 45 46 47 48
32 31 30 30 30 30 30 30 31 34 35 34 31 28 24 25 27 27 28 28 29 29 30 30 31 32 33 34 35 36 37 38 39 40 41 42 43 44 45 46 47 48 49 50
32 32 31 30 31 30 31 31 31 33 36 35 32 28 26 25 27 28 29 29 30 30 31 31 32 33 34 35 37 38 39 39 40 41 42 43 44 45 46 47 48 50 51 52
32 33 32 31 31 31 31 32 33 35 36 37 35 29 26 26 27 28 30 30 30 31 31 32 33 35 36 37 38 39 40 41 42 43 44 45 46 47 48 49 50 52 53 54
32 33 32 31 31 31 32 32 33 35 36 37 37 31 26 27 29 31 32 32 31 32 32 33 35 36 37 38 39 40 41 42 43 44 45 46 48 49 50 51 52 54 55 56
34 35 34 32 32 32 33 32 33 35 37 38 38 33 28 29 31 33 34 33 33 33 34 35 36 37 38 39 40 41 42 44 45 46 47 48 49 51 52 53 54 56 57 58
35 35 34 33 32 33 33 33 34 36 38 38 36 34 30 31 34 36 36 35 35 35 35 36 37 38 39 40 41 42 44 45 46 47 49 50 51 52 53 55 56 58 59 61
35 35 34 34 34 35 35 35 35 36 37 38 36 35 30 32 35 36 36 36 36 36 37 37 38 39 41 41 42 44 45 46 47 48 50 51 52 54 55 56 58 60 61 63
36 36 36 36 35 36 37 36 36 37 37 37 37 35 32 35 36 37 37 37 37 38 38 39 40 41 41 42 44 45 46 47 49 50 51 53 54 55 57 58 60 62 63 65
37 37 37 36 35 38 38 33 34 36 36 37 38 36 35 36 36 37 38 38 39 39 40 40 41 42 42 43 44 46 47 49 50 52 53 55 56 57 59 60 62 64 65 67
37 37 37 38 38 40 35 33 34 35 35 36 37 36 36 36 37 37 38 39 40 40 41 41 42 42 43 44 46 47 49 50 52 53 55 56 58 59 61 62 64 66 67 68
37 38 39 40 40 40 35 33 34 36 36 34 36 36 37 37 37 37 38 39 40 41 41 42 42 43 44 46 47 49 50 52 53 55 57 58 59 61 63 64 66 67 68 69
37 38 39 40 41 40 34 33 34 36 36 34 35 36 36 37 37 37 39 40 40 41 42 42 43 45 46 48 49 51 52 53 55 57 58 59 61 63 64 65 67 68 70 71
37 37 38 39 41 39 35 35 35 36 35 35 35 35 36 37 38 39 40 40 41 42 43 44 45 47 48 49 51 52 54 55 57 58 59 61 62 64 65 67 69 70 72 74
36 37 38 39 40 38 36 36 36 36 36 36 36 36 37 37 39 39 40 41 42 43 45 46 47 48 49 50 52 53 55 57 58 59 60 61 63 65 67 69 71 73 75 77
36 37 38 39 38 37 38 38 38 37 37 37 37 37 37 38 39 40 41 41 43 44 46 47 48 50 51 52 54 55 57 58 59 60 61 63 65 67 69 71 73 75 78 79
38 39 40 39 37 38 38 39 39 38 38 38 39 39 39 40 41 42 42 44 45 46 47 48 49 50 52 53 55 57 58 59 59 61 63 65 67 69 71 73 75 78 79 80
38 39 38 38 37 38 38 38 38 39 39 40 40 41 41 42 42 43 44 45 46 47 48 49 50 52 53 55 56 57 58 59 61 63 65 67 69 71 73 75 78 79 80 81
38 37 37 37 36 37 37 37 38 40 40 41 42 43 43 43 44 44 45 46 47 48 49 50 51 53 54 55 56 58 59 61 63 65 67 70 72 74 76 78 79 80 80 80

GEFSCGP_500_meanwind_132.txt.gz
Wind_Speed
29 28 28 27 26 26 26 26 25 26 26 25 24 22 25 26 25 25 25 26 25 25 25 24 25 24 24 24 24 24 25 25 25 26 27 27 27 28 29 29 30 31 31 32
30 29 28 28 28 27 27 27 26 27 27 27 25 23 25 27 27 26 26 26 26 26 26 25 25 25 25 25 25 25 25 26 27 27 28 28 28 29 29 30 31 32 33 34
31 30 29 29 29 29 28 28 27 27 28 28 26 23 25 27 27 27 27 27 27 27 26 26 26 26 26 26 26 26 26 27 28 28 29 29 30 30 31 32 33 34 35 35
32 30 30 30 30 30 29 29 29 29 29 28 28 25 23 26 27 28 28 27 27 27 27 26 26 27 27 27 27 27 28 28 29 29 30 31 31 32 33 34 35 35 36 37
32 31 30 30 30 30 30 30 30 30 30 29 29 29 24 26 27 28 29 28 28 28 27 27 27 28 28 28 28 28 29 29 30 30 31 32 33 33 34 35 36 37 38 39
33 31 31 30 30 30 30 31 31 31 31 30 28 29 27 26 27 28 29 29 29 28 28 28 28 28 28 29 29 29 30 30 31 31 32 33 34 35 36 37 38 38 39 40
34 32 31 30 30 30 30 31 32 32 31 31 29 29 27 26 27 27 28 29 28 28 28 28 28 29 30 30 30 30 31 32 32 33 34 35 36 36 37 38 39 40 41 42
34 33 32 31 30 30 30 31 32 33 33 31 29 28 26 26 26 27 28 28 28 28 28 28 29 29 30 30 31 32 32 33 33 34 35 36 37 38 39 40 41 42 43 44
34 34 33 32 31 31 31 31 31 33 34 33 31 28 25 25 27 28 29 29 29 28 29 29 29 30 31 31 32 33 33 34 34 35 36 37 38 39 40 41 42 43 44 45
34 34 33 32 32 32 32 31 31 33 35 35 33 29 26 25 27 29 30 30 30 29 29 30 30 31 32 32 33 33 34 35 36 37 37 38 39 40 41 43 44 44 45 46
35 35 34 33 32 32 32 32 32 34 35 35 35 31 27 26 28 29 30 31 31 31 30 31 32 32 33 33 34 34 35 35 36 37 38 39 41 42 43 44 45 46 47 48
34 35 35 34 33 32 33 32 33 34 35 36 36 33 29 29 30 31 32 32 32 32 32 33 33 33 33 34 34 35 36 37 38 39 40 41 43 44 44 45 46 48 49 50
35 36 35 34 33 33 33 33 34 35 36 36 36 34 31 31 32 33 34 34 33 33 33 34 34 33 34 35 35 36 37 38 39 40 42 43 44 44 46 47 48 49 50 52
34 35 35 34 34 33 33 34 34 35 36 37 36 34 32 33 35 35 35 35 34 33 34 34 34 34 35 36 36 37 38 39 40 41 42 43 44 45 46 47 49 50 52 54
34 34 34 34 35 35 35 34 34 35 36 38 37 36 33 34 35 35 35 35 34 34 34 35 35 35 36 36 37 38 39 40 41 42 43 44 45 46 47 49 50 52 54 55
35 34 34 35 35 36 36 35 34 35 36 38 38 36 34 36 36 35 35 35 35 35 36 36 36 37 37 37 38 39 40 41 42 43 44 44 46 47 49 51 52 54 56 58
36 35 36 36 36 37 37 33 34 35 36 37 38 36 36 36 36 36 36 36 36 36 36 36 36 37 37 38 39 40 40 41 42 43 44 46 47 49 51 52 54 56 58 60
37 37 38 38 37 39 34 33 33 35 34 35 37 37 37 37 37 37 37 37 36 36 36 36 36 37 38 38 39 40 40 42 43 44 45 47 49 50 52 54 56 58 60 62
37 37 38 37 38 37 35 33 33 35 34 34 36 36 37 37 37 36 36 36 36 36 36 37 37 37 38 39 40 40 41 42 44 45 47 48 50 52 54 56 58 60 62 63
37 37 38 38 39 39 35 34 34 36 35 33 35 35 36 36 36 35 36 36 37 37 37 37 38 39 39 40 41 42 43 44 45 47 48 50 52 54 56 58 60 61 63 64
37 37 38 38 39 38 35 35 34 36 35 34 35 34 35 35 35 35 35 36 36 36 37 37 38 39 40 41 42 43 44 45 47 48 49 51 53 55 57 59 61 63 64 65
39 39 38 38 39 36 34 35 35 36 36 36 35 35 35 35 34 34 35 35 36 37 37 38 39 40 41 42 43 44 45 46 48 49 51 53 55 57 58 60 62 63 65 66
39 38 38 38 37 35 35 36 37 37 37 37 37 36 36 35 35 35 35 36 37 37 38 39 40 41 42 43 44 45 46 48 49 51 53 54 56 57 59 61 63 65 67 68
38 37 37 37 35 36 37 38 38 38 38 38 38 37 37 36 36 36 37 37 38 39 39 41 42 43 44 44 45 47 48 49 51 52 54 55 57 59 61 63 64 66 69 71
38 37 37 37 36 37 38 38 38 39 39 38 38 37 37 37 37 38 39 39 40 40 41 42 43 44 45 46 47 48 49 51 52 54 56 57 59 61 63 65 67 69 71 73
37 37 38 38 37 38 37 38 39 39 38 39 39 38 38 39 39 40 41 41 41 42 43 44 45 45 46 47 48 50 51 53 54 56 57 59 61 63 65 67 69 70 73 74

GEFSCGP_500_meanwind_138.txt.gz
Wind_Speed
32 32 31 30 29 28 29 29 28 28 28 28 28 27 28 28 28 28 28 28 27 27 27 27 27 27 28 28 28 28 28 28 28 28 28 29 29 29 30 30 30 30 31 31
34 32 30 31 30 29 29 29 28 28 29 29 29 28 28 29 29 29 29 29 28 29 29 28 29 29 29 29 29 29 29 29 29 29 30 30 30 30 31 31 32 32 32 33
34 32 31 31 30 30 30 29 29 29 29 30 30 28 28 28 29 29 30 30 30 30 30 30 30 30 30 30 30 30 30 30 30 31 31 31 32 32 32 32 33 33 34 34
35 34 32 32 31 30 30 29 29 30 30 29 31 30 26 28 28 29 30 30 30 31 31 31 30 31 30 30 31 31 31 31 31 32 32 33 33 33 33 34 34 35 35 35
35 34 33 32 32 31 30 30 30 31 31 31 30 32 27 28 28 29 30 30 31 31 31 31 31 31 31 31 31 31 32 32 32 33 33 33 34 34 35 35 36 36 36 37
36 35 34 33 32 31 31 31 32 32 33 33 30 32 30 29 28 29 30 30 30 31 31 31 31 31 31 31 31 32 32 32 33 33 34 34 35 35 36 36 37 37 37 38
36 35 34 33 33 32 32 32 32 33 33 34 32 32 31 29 28 29 30 30 30 30 31 31 31 31 31 31 32 32 33 33 34 34 34 35 36 36 37 37 38 38 39 39
38 37 35 34 33 33 33 33 33 34 34 34 33 32 31 30 28 29 30 30 30 30 31 31 32 32 32 32 33 33 34 34 35 35 36 36 37 37 38 38 39 40 40 41
38 38 35 34 33 34 33 32 33 35 35 35 34 33 32 31 29 29 30 30 30 31 31 32 32 32 32 33 33 34 35 35 36 36 37 37 38 39 39 40 40 41 41 43
37 38 37 34 34 34 34 33 33 34 35 36 35 33 33 32 31 30 30 31 31 32 32 32 33 33 33 34 35 35 36 36 37 37 38 38 39 39 40 41 41 42 43 44
38 39 38 35 34 34 34 34 34 35 36 36 36 34 33 33 33 32 32 32 33 33 33 33 34 34 34 35 36 36 37 37 37 38 38 39 39 40 40 41 42 44 45 46
37 38 38 36 35 35 35 33 34 35 35 35 36 35 33 33 33 34 34 35 35 35 35 35 35 35 35 36 37 37 37 37 38 39 39 39 40 40 41 42 43 44 46 47
37 38 38 37 37 36 35 34 34 34 35 36 36 35 33 34 34 35 36 36 36 36 35 35 36 36 36 36 37 37 37 38 39 39 39 40 40 41 42 43 44 45 47 48
37 38 38 37 36 35 34 34 34 35 36 36 35 34 34 35 36 37 37 37 37 37 37 36 37 37 37 37 37 37 38 39 39 39 40 40 41 42 43 44 45 46 47 49
38 38 37 37 36 35 34 34 34 35 35 36 34 34 33 36 38 38 38 38 38 38 37 37 37 37 38 37 38 38 39 39 39 40 41 41 42 43 44 45 46 47 48 50
39 38 38 38 37 37 37 35 34 34 34 35 36 35 34 37 37 38 39 39 38 38 38 38 38 38 38 38 39 39 40 40 41 41 42 43 43 44 45 46 47 48 50 51
39 39 39 38 38 39 38 34 35 35 34 35 36 34 35 37 37 38 39 39 39 39 39 38 38 38 39 39 39 40 41 42 42 43 43 43 44 45 46 47 48 50 51 52
40 40 40 40 39 40 35 33 34 34 34 34 35 35 36 38 37 38 39 39 39 39 39 39 39 39 40 40 41 41 41 42 43 43 44 45 45 46 47 48 49 51 52 53
40 39 40 41 41 39 36 34 33 35 34 33 34 34 36 37 38 38 38 39 39 39 39 40 40 40 41 41 41 41 42 43 44 44 45 45 46 47 48 49 51 52 54 55
41 40 40 40 41 39 35 34 34 35 35 32 34 35 36 37 38 37 37 38 39 39 39 40 41 41 41 41 41 42 43 44 44 45 46 46 48 49 49 50 52 53 55 56
41 40 40 40 40 39 36 35 35 35 34 34 35 36 37 37 37 37 38 39 39 39 40 40 41 41 41 41 42 43 43 44 45 46 47 48 49 49 50 52 53 55 56 58
41 42 42 41 41 37 35 36 36 35 36 36 36 36 36 37 37 37 38 39 39 40 40 41 41 42 42 43 43 44 44 45 46 46 47 48 49 50 52 53 55 56 58 60
41 41 40 41 39 36 35 35 35 36 37 37 37 36 37 37 38 39 39 40 40 41 41 41 42 43 43 44 45 45 46 46 47 48 48 49 50 51 53 55 56 58 60 61
41 39 39 39 37 36 36 36 36 37 38 38 38 38 38 39 39 39 40 40 41 42 42 43 43 43 44 45 45 46 47 48 48 49 49 50 51 53 55 56 58 59 60 62
41 40 39 39 37 37 37 37 38 39 40 40 40 40 40 40 40 40 41 41 42 43 43 44 44 45 45 45 46 47 47 48 49 49 50 51 53 55 56 57 59 60 61 63
40 40 39 38 37 38 38 38 39 40 41 41 41 40 40 40 41 42 42 42 43 43 43 44 45 45 46 46 47 47 48 49 49 50 52 53 55 56 57 59 60 61 63 64

GEFSCGP_500_meanwind_144.txt.gz
Wind_Speed
37 37 35 33 33 32 31 30 30 29 28 28 27 26 26 26 25 25 25 25 25 24 24 24 25 25 25 26 26 27 27 27 28 28 28 29 29 29 30 30 31 31 31 32
38 36 34 34 33 33 32 31 30 30 29 29 28 27 27 27 26 26 26 26 25 25 25 25 25 26 26 27 27 27 27 28 29 29 29 30 30 30 31 31 32 32 32 33
38 35 35 34 33 33 32 31 30 30 30 30 29 27 27 27 26 26 26 26 26 25 25 25 26 26 27 27 27 27 27 28 29 29 30 30 30 31 32 32 33 33 33 34
39 36 36 34 33 32 32 31 30 30 30 29 29 28 26 25 25 25 25 26 25 25 25 25 25 26 26 27 27 27 27 28 29 30 30 30 31 31 32 33 34 34 34 35
39 37 37 35 33 32 31 30 30 30 30 30 29 30 25 24 24 24 24 25 25 25 25 25 25 25 26 27 27 27 28 28 29 30 30 31 32 32 33 34 34 35 36 36
39 38 37 35 33 32 31 31 31 31 31 30 29 30 27 25 24 24 24 24 25 25 25 25 25 25 26 27 27 28 28 29 30 31 31 32 33 33 34 34 35 36 37 38
40 39 37 35 34 33 32 32 32 33 32 31 30 30 28 26 25 25 24 24 25 25 25 25 26 26 27 28 28 29 29 30 31 31 32 33 34 34 35 36 36 37 38 39
39 38 36 35 34 33 34 34 33 34 33 32 31 30 28 27 27 26 25 25 25 25 26 26 26 27 28 28 29 30 30 31 32 32 33 34 34 35 36 37 37 38 39 39
39 37 35 34 34 35 35 35 33 34 34 33 32 30 28 27 27 27 26 26 26 26 26 26 27 27 28 29 30 31 31 32 33 34 34 35 36 36 37 38 38 39 39 40
40 40 38 36 35 36 35 34 34 34 35 34 33 30 28 27 27 27 26 26 26 26 26 27 28 28 29 30 31 31 32 33 34 34 35 36 36 37 38 38 38 39 40 41
40 39 38 37 36 35 35 35 34 35 35 35 34 30 27 27 27 27 26 26 26 26 26 27 28 29 30 30 31 32 33 33 34 35 35 36 37 37 38 38 39 40 41 42
39 39 39 37 36 36 36 35 35 36 35 35 35 30 27 28 28 28 28 27 26 27 27 28 29 30 30 31 32 32 33 34 34 35 36 36 37 38 38 39 40 41 42 43
39 40 40 39 38 36 36 35 35 35 36 35 34 29 28 28 29 29 28 27 27 28 28 29 30 31 31 32 32 33 34 34 35 35 35 36 37 38 39 40 41 42 43 44
38 39 39 37 35 35 35 35 36 36 35 34 31 28 27 28 30 29 28 28 28 29 29 30 31 31 32 32 33 34 34 34 35 36 36 37 38 39 40 41 41 42 43 44
40 39 37 36 35 34 34 34 35 35 33 32 29 28 26 29 30 30 30 29 30 30 30 31 32 32 33 33 34 34 35 35 36 37 37 37 38 39 40 41 42 42 44 45
40 40 38 38 37 36 36 34 33 33 32 31 30 27 26 30 31 31 31 31 31 31 32 32 32 33 34 34 35 35 36 37 37 37 37 38 39 39 40 41 43 44 45 46
40 38 39 38 37 39 39 34 33 33 31 32 31 26 28 30 30 31 31 32 32 32 32 32 33 34 35 35 36 36 37 37 37 37 38 39 40 40 41 42 43 45 46 47
41 40 39 38 38 41 35 33 33 33 32 31 30 28 29 30 30 31 31 32 32 32 32 33 33 34 35 35 36 36 37 37 38 38 39 40 41 42 42 43 44 46 47 49
42 42 42 41 39 39 36 33 31 32 31 29 30 30 30 30 31 31 31 32 32 33 33 33 34 34 35 35 36 37 37 38 39 40 40 41 42 43 44 45 46 47 48 50
44 43 43 42 41 39 34 32 32 33 31 28 31 31 30 31 31 29 31 32 33 34 34 34 35 35 35 36 36 37 38 38 39 40 41 42 43 44 45 46 47 49 50 51
44 43 43 42 41 39 34 33 33 33 29 29 31 31 31 31 30 30 31 32 33 34 34 35 36 36 36 37 37 38 38 39 40 41 42 43 44 45 46 47 48 49 51 52
43 44 43 41 42 36 32 34 33 31 31 30 30 31 31 32 31 31 32 33 34 35 36 36 36 37 37 38 38 39 40 41 42 42 43 44 45 46 47 48 49 51 52 54
44 44 42 41 39 36 36 34 33 33 32 31 31 31 32 32 32 32 33 34 35 36 36 36 37 37 38 39 40 41 42 42 43 44 45 45 46 47 48 50 51 52 54 55
44 42 43 42 39 37 36 35 34 34 33 33 33 33 33 33 33 33 34 34 35 36 36 37 37 38 40 41 41 42 43 44 44 45 46 46 47 49 50 52 53 54 56 56
42 42 42 42 40 38 37 36 35 35 34 34 35 34 34 34 34 35 35 36 36 37 37 38 39 40 41 42 43 44 44 45 46 47 48 48 49 50 52 53 54 56 57 57
42 41 41 40 39 40 38 36 36 36 35 36 36 35 35 35 35 36 37 37 37 38 39 40 40 41 42 43 44 45 46 47 47 48 49 50 51 52 53 54 55 57 58 58

GEFSCGP_500_meanwind_150.txt.gz
Wind_Speed
43 43 42 40 39 39 38 37 36 35 34 33 32 31 31 30 29 28 28 27 27 26 26 26 26 26 27 27 27 27 27 27 28 29 30 30 30 31 31 32 32 33 33 34
44 43 41 41 41 40 39 38 37 37 36 35 34 33 32 31 30 29 29 28 27 27 27 27 27 27 28 28 28 28 28 29 29 30 30 30 31 31 32 32 32 33 34 34
44 42 41 42 42 41 39 38 37 38 37 37 36 34 33 31 30 29 29 29 29 28 28 28 28 29 29 28 29 29 29 30 30 30 31 31 32 32 33 33 33 34 35 35
45 43 42 43 42 41 40 38 38 38 38 37 37 36 33 32 31 30 29 29 28 28 29 29 29 30 30 29 30 30 30 30 30 31 31 32 32 32 33 34 34 35 35 35
44 43 42 43 41 41 40 39 39 39 39 38 37 38 33 33 32 31 30 29 29 29 30 30 30 30 30 30 30 30 30 31 31 31 31 32 32 33 34 34 35 36 36 37
44 44 43 42 41 41 41 40 39 39 39 39 36 38 35 33 32 31 30 30 30 30 30 30 30 30 30 30 30 30 30 31 31 31 32 32 33 34 35 36 36 37 37 38
45 44 43 42 42 42 41 40 40 40 40 40 36 38 36 32 31 31 30 30 30 30 30 30 29 29 29 29 30 30 31 31 32 32 33 33 34 35 36 37 37 37 38 39
45 45 43 42 42 42 41 41 41 41 40 39 38 38 34 31 30 30 30 30 30 30 30 29 29 30 30 30 30 31 32 32 33 33 33 34 35 36 36 37 38 38 39 40
45 44 43 43 41 42 42 42 41 42 42 41 39 36 32 30 30 30 30 30 31 31 30 30 30 31 31 31 31 31 32 32 33 33 34 35 36 36 37 37 38 38 39 40
44 44 43 42 42 42 42 42 41 42 42 42 40 36 31 29 30 31 31 31 31 31 30 30 30 30 31 31 31 32 32 33 33 34 35 35 36 36 37 38 38 39 40 41
45 45 44 44 43 43 43 42 42 42 43 42 40 35 30 30 30 30 31 31 31 31 30 30 30 31 31 31 32 32 33 33 34 35 35 36 36 37 38 38 39 40 41 41
45 45 44 44 43 43 44 43 43 43 43 41 40 35 31 31 31 31 31 30 30 30 30 30 31 31 31 31 32 33 34 34 35 35 36 36 37 38 38 39 40 41 41 42
44 47 46 45 45 45 45 44 43 43 43 42 40 35 31 32 33 33 32 31 30 30 30 30 31 31 31 32 33 33 34 34 35 35 36 37 38 38 39 40 40 41 42 43
44 46 46 45 44 44 44 43 43 43 43 42 38 34 32 32 34 35 34 33 32 31 31 31 31 31 32 33 33 34 34 34 35 35 36 37 38 38 39 40 41 42 42 43
44 45 45 44 44 44 44 44 44 44 42 42 37 35 32 33 35 36 35 34 33 32 32 32 32 33 33 33 33 34 34 34 35 36 37 38 38 39 39 40 41 42 43 43
45 45 45 44 44 46 46 44 44 43 43 42 40 37 32 34 36 37 36 35 34 33 33 33 33 33 33 33 34 34 35 36 36 37 38 39 39 40 40 41 42 42 43 43
45 43 44 44 45 47 47 43 43 43 42 42 41 36 35 36 37 38 37 37 35 34 34 34 35 35 34 34 34 35 36 37 38 38 39 40 40 40 41 41 42 43 43 44
44 43 44 44 46 49 44 43 42 41 40 40 40 37 37 38 38 39 38 37 36 35 35 35 35 36 35 35 35 36 37 38 39 39 40 40 40 41 42 42 43 44 44 45
45 44 45 44 46 47 44 42 41 41 39 37 39 38 38 38 39 38 38 38 36 36 35 36 36 36 36 36 37 38 38 39 39 40 40 41 41 42 43 43 44 45 46 47
46 46 46 45 45 45 40 40 40 41 39 35 38 38 38 39 39 36 37 37 37 37 36 36 36 36 36 37 37 38 39 39 40 40 41 42 42 43 44 45 45 46 47 48
46 46 46 44 43 42 38 38 39 40 35 34 35 37 38 38 37 36 37 37 37 37 37 37 37 36 36 37 38 39 39 40 40 41 42 42 43 45 45 46 47 47 48 49
47 46 45 45 44 39 36 38 38 36 36 36 35 36 37 37 37 37 37 37 37 37 37 37 37 37 37 38 38 39 40 41 41 42 43 44 45 46 46 47 48 49 49 50
47 47 46 47 44 39 38 38 36 36 37 37 35 36 37 37 37 37 37 37 37 37 37 37 37 38 38 38 39 40 41 41 42 43 44 45 46 47 47 48 49 49 50 51
47 46 47 47 45 43 40 39 38 38 38 38 37 36 37 37 37 37 37 38 38 38 38 38 38 38 38 39 40 41 42 43 44 44 45 46 47 47 48 49 50 50 51 52
47 47 47 47 43 43 41 40 38 38 38 38 38 38 37 37 37 37 38 38 38 38 39 39 39 39 39 40 41 42 43 44 44 45 46 47 48 48 49 50 51 52 53 54
44 45 46 45 42 43 42 41 41 40 39 38 39 39 38 37 37 38 39 39 39 39 39 39 40 40 40 41 42 43 44 45 45 46 47 48 48 49 50 51 52 53 54 55

GEFSCGP_500_meanwind_156.txt.gz
Wind_Speed
45 44 43 41 41 41 41 41 40 39 38 38 37 34 33 33 32 30 30 29 29 28 27 27 26 26 25 25 25 25 26 26 26 26 26 27 27 28 29 29 29 30 30 30
46 45 42 42 43 42 42 41 40 40 40 40 39 37 35 35 34 32 31 31 30 29 29 28 27 27 27 26 26 27 27 27 27 27 27 28 29 29 29 30 30 30 30 30
46 45 43 44 43 43 43 41 40 40 41 41 41 39 37 36 36 34 33 32 31 30 30 29 29 28 28 28 28 28 28 28 28 28 28 29 29 30 30 30 31 31 31 31
46 45 45 45 44 43 43 41 41 41 42 42 42 42 38 37 37 36 34 33 33 31 31 30 30 29 29 29 29 28 28 28 28 29 29 30 30 31 31 31 31 31 32 33
45 45 45 45 44 43 42 41 42 42 43 44 43 44 39 38 38 37 36 35 34 33 32 31 31 30 30 30 30 29 29 29 29 30 30 30 30 31 31 31 32 32 33 33
46 45 45 45 43 43 43 42 42 43 43 45 43 44 42 38 38 37 36 36 35 34 33 32 32 31 31 31 30 30 30 30 30 30 30 31 31 31 31 32 32 33 33 34
46 47 46 45 45 45 44 42 43 44 45 46 43 44 43 38 37 37 36 36 35 34 33 33 32 32 32 31 31 31 31 31 30 30 31 30 30 31 31 32 33 33 34 34
47 47 47 46 45 45 44 44 44 44 45 45 43 44 41 38 36 36 35 35 35 35 34 34 34 33 33 32 31 31 31 31 31 31 31 30 31 31 32 32 33 34 34 35
47 47 46 46 45 46 46 46 43 44 45 45 45 42 40 38 36 35 35 35 35 35 35 35 35 34 33 33 32 32 31 31 31 31 31 31 31 32 32 33 34 35 36 36
46 47 46 46 46 47 46 45 45 45 45 45 45 42 39 37 36 36 36 36 36 36 36 36 36 35 34 34 33 33 32 31 31 31 31 31 32 32 33 34 35 36 37 37
46 46 45 46 47 45 45 46 46 46 46 45 45 43 38 36 36 36 36 36 36 36 36 36 36 35 34 34 34 33 33 32 32 32 32 32 33 33 34 35 36 36 37 38
45 46 45 45 46 46 47 46 46 46 46 46 45 43 38 36 36 36 36 36 36 36 36 36 35 34 34 34 34 34 33 33 33 33 33 33 34 34 35 36 37 37 38 39
44 46 45 45 45 46 48 48 48 47 47 46 46 42 38 37 36 36 37 37 36 36 35 35 35 35 35 35 35 35 34 34 34 34 34 34 35 35 36 37 38 39 39 40
42 44 45 44 45 45 46 47 48 48 49 48 44 41 38 37 36 37 38 37 36 35 35 35 36 36 35 35 36 36 35 35 35 35 35 36 36 36 37 38 39 39 40 41
42 43 43 44 43 44 45 46 47 49 48 48 44 41 37 37 37 37 38 38 37 36 35 35 36 36 36 36 36 36 36 36 36 36 37 37 37 37 38 39 39 40 41 41
42 43 44 44 45 45 46 47 48 47 46 46 46 42 37 38 39 39 38 38 38 37 36 35 36 36 36 36 36 36 36 36 37 37 38 38 38 38 39 40 40 41 41 42
43 42 44 45 45 47 47 44 45 46 45 46 46 41 40 41 40 39 39 39 38 37 36 36 35 36 36 37 37 37 37 37 38 38 39 39 39 40 40 41 41 41 42 43
43 43 44 45 46 48 45 42 42 43 43 44 45 43 42 42 41 40 39 39 39 38 38 37 36 36 37 38 39 39 39 38 39 39 39 40 41 41 41 41 42 43 43 44
43 43 44 44 47 48 46 42 41 42 43 42 43 42 42 42 43 41 39 39 38 38 38 38 38 38 38 39 39 40 39 39 39 40 40 41 42 42 42 43 43 44 45 45
43 44 45 44 45 45 41 40 40 42 42 39 40 41 41 42 43 40 40 39 39 38 39 40 40 39 39 39 39 39 39 39 39 40 41 41 42 43 43 43 44 45 45 46
42 45 47 46 46 44 39 39 39 41 39 37 38 39 39 40 40 39 41 41 40 40 40 40 40 40 40 39 39 39 39 39 40 41 41 42 43 43 43 44 45 45 46 47
42 44 46 46 47 43 37 39 39 38 37 38 39 39 39 39 38 39 40 41 41 41 41 41 40 40 40 39 39 39 39 40 41 41 42 43 43 43 43 44 45 46 46 47
42 42 43 45 45 41 39 38 37 38 39 39 38 38 39 38 38 38 39 40 40 41 41 40 40 39 39 39 39 39 40 40 41 41 42 43 43 44 44 45 46 46 47 48
39 40 43 44 43 42 39 38 38 39 39 39 38 37 38 38 37 37 38 38 39 39 39 39 39 39 38 39 39 40 40 41 41 42 42 43 44 44 45 45 46 47 48 49
42 43 43 43 41 41 41 40 39 40 39 39 39 38 37 37 37 38 38 38 38 38 38 39 39 39 39 39 40 40 40 41 41 42 43 44 44 44 45 45 46 48 49 50
41 43 42 40 39 41 40 41 42 41 41 40 39 38 38 38 38 38 38 38 37 38 38 39 40 41 40 40 40 40 41 41 42 43 43 44 44 45 45 46 47 48 49 50

GEFSCGP_500_meanwind_162.txt.gz
Wind_Speed
44 45 44 43 42 42 42 43 43 43 43 42 42 40 39 38 37 35 34 34 33 32 31 31 30 29 29 28 28 28 27 27 27 26 27 27 27 27 27 27 27 27 27 27
46 46 43 42 42 42 43 43 43 43 43 43 43 41 40 39 38 37 36 35 35 34 33 33 32 31 30 30 29 29 29 28 28 28 28 28 28 28 28 28 28 28 28 28
45 44 43 44 43 43 43 43 42 43 42 44 45 44 41 40 39 39 38 37 36 35 35 34 34 33 32 31 31 31 30 29 29 29 30 30 30 29 29 30 29 29 29 29
46 44 45 46 45 44 44 42 43 43 44 44 46 47 42 41 40 39 39 38 37 37 36 36 35 35 34 33 32 32 32 31 30 31 31 30 30 30 31 30 30 30 30 30
46 45 45 46 46 45 44 43 44 44 46 47 46 49 44 41 41 39 38 39 38 38 37 37 36 36 35 34 34 33 33 32 32 32 32 31 32 32 32 31 31 31 31 31
45 45 46 46 45 46 45 45 45 46 47 49 46 48 48 42 40 39 38 38 38 38 38 37 37 36 36 35 35 34 34 34 33 33 33 32 33 33 32 32 32 32 32 31
44 46 46 47 46 46 46 46 47 48 49 49 46 49 48 42 40 39 39 39 39 39 39 38 38 37 37 36 36 36 35 35 34 34 33 33 34 34 33 33 33 33 32 32
44 45 46 47 47 46 46 46 47 47 49 48 48 50 47 43 41 39 39 39 40 40 40 39 39 39 38 37 37 37 36 35 35 34 34 34 34 34 34 33 33 33 33 33
44 44 44 46 46 46 45 46 46 47 49 49 50 49 47 44 42 40 40 40 39 39 39 39 39 39 39 38 38 37 37 37 36 35 35 35 35 35 34 34 34 34 34 34
42 44 44 44 45 47 46 45 45 47 48 50 51 49 47 44 41 39 39 39 39 39 39 39 39 39 39 39 39 39 38 38 38 37 36 36 36 36 36 35 35 35 36 36
41 43 44 45 45 45 46 46 46 48 49 49 50 49 45 44 42 40 39 38 38 39 39 39 39 39 40 40 39 39 39 39 38 38 38 37 37 37 36 36 36 36 37 37
41 43 44 45 45 45 46 46 46 48 50 50 50 49 44 44 42 41 40 39 39 40 40 40 40 40 40 40 40 40 40 40 39 39 39 38 37 37 37 37 37 38 38 38
41 42 43 43 45 45 45 45 47 49 49 51 51 50 44 43 43 42 42 40 40 40 40 40 41 41 41 41 41 41 41 41 41 40 39 39 38 38 38 38 38 38 39 39
41 42 44 44 44 45 45 45 46 48 49 50 50 48 45 44 43 43 43 42 41 41 41 41 40 40 41 42 42 42 42 42 41 40 40 40 39 39 39 39 39 39 40 40
42 43 43 44 45 46 47 45 45 47 48 49 48 48 45 44 44 43 43 42 42 42 41 41 41 40 41 42 42 42 42 41 41 41 41 40 40 40 40 40 40 40 40 41
43 43 43 44 45 48 49 47 45 46 47 48 48 47 44 45 46 45 44 44 43 43 43 42 41 41 42 42 42 42 42 41 41 41 41 40 40 40 40 40 41 41 42 42
42 42 44 45 44 48 51 47 45 46 46 46 47 45 45 47 47 47 45 45 44 44 44 44 44 43 42 42 42 42 42 41 41 41 40 40 40 40 40 41 41 42 42 42
40 41 43 44 45 50 48 45 45 45 45 45 45 45 45 46 46 46 46 45 44 44 44 44 45 44 42 42 42 42 42 41 41 41 41 40 40 40 41 41 41 42 43 43
38 40 41 42 43 46 46 44 44 46 46 44 44 44 45 46 46 47 46 45 44 43 43 43 44 44 42 42 42 42 42 42 42 42 41 41 41 41 42 42 42 42 43 43
37 39 41 42 43 43 39 40 43 45 45 42 43 44 44 45 46 45 44 45 44 43 43 42 42 43 43 42 43 43 42 42 42 42 41 41 42 42 42 43 43 43 43 44
37 38 40 41 43 42 37 37 41 44 42 42 42 43 44 45 44 43 44 45 45 44 43 41 41 42 42 42 43 43 42 42 41 42 42 41 42 42 43 43 43 43 44 44
38 39 40 40 42 39 36 37 39 40 40 41 42 42 43 43 42 42 43 43 44 44 44 42 41 41 42 42 42 42 42 41 41 41 42 42 41 42 42 43 44 44 44 45
41 39 39 41 41 38 38 39 39 39 39 39 42 42 43 42 42 41 41 41 41 42 43 42 41 41 41 41 41 41 41 41 41 42 42 42 42 42 42 44 44 45 45 45
41 41 42 42 40 39 39 40 40 40 40 39 40 42 42 43 43 42 40 40 40 41 41 42 42 41 41 41 41 41 41 41 42 42 42 42 42 42 43 43 44 44 44 45
40 42 43 44 42 41 40 40 40 41 41 40 40 41 42 42 41 41 41 40 40 41 42 43 42 42 41 41 41 41 42 41 41 41 42 42 42 43 43 43 43 43 44 45
38 42 44 44 42 43 41 40 41 43 42 41 41 41 41 42 41 40 40 40 40 40 41 42 42 42 41 41 41 41 41 41 41 40 41 41 42 42 43 43 43 44 45 45

GEFSCGP_500_meanwind_168.txt.gz
Wind_Speed
44 45 45 43 42 42 42 42 42 42 43 45 45 43 41 41 41 39 38 36 35 33 33 32 31 30 29 29 28 28 27 27 27 27 27 26 26 25 25 25 26 26 26 26
45 45 43 43 44 43 42 43 42 42 44 46 47 45 42 43 43 42 41 40 37 36 35 34 34 33 32 31 30 30 29 29 29 29 28 28 27 27 27 27 27 27 27 28
46 44 43 44 44 45 44 43 43 43 43 46 48 47 44 43 44 43 42 41 40 38 37 36 36 35 34 33 32 32 32 31 30 30 30 29 29 29 28 28 28 28 29 29
45 44 44 45 45 45 45 43 44 45 45 46 48 50 46 44 45 44 42 42 41 40 39 38 38 37 36 36 35 34 33 33 32 31 31 30 30 30 30 30 30 30 30 30
44 44 45 45 44 45 46 44 45 46 47 48 47 51 49 45 45 44 42 42 42 41 41 40 39 38 38 37 37 36 35 35 34 33 32 32 32 31 31 31 31 31 31 32
44 44 45 44 43 44 45 45 45 47 49 52 48 51 51 46 44 43 42 42 42 42 42 41 40 39 38 38 37 37 37 36 36 35 34 34 33 33 33 32 32 32 33 33
42 43 45 45 44 44 45 45 45 47 50 53 49 51 52 45 43 43 42 42 41 42 42 41 41 40 39 38 38 38 38 37 37 36 36 35 34 34 33 34 33 33 34 34
41 42 43 45 45 45 45 45 46 48 49 50 50 51 49 45 43 42 42 42 42 42 42 41 41 40 40 39 39 38 38 38 38 37 37 36 36 35 35 35 35 34 34 35
39 41 41 42 44 45 45 46 45 46 48 49 51 50 48 45 43 42 42 42 42 41 41 41 42 41 40 40 39 39 39 39 39 38 37 37 37 36 36 36 36 36 36 36
38 39 40 40 42 44 44 43 43 45 47 48 49 49 47 43 42 41 41 41 41 41 41 41 42 42 41 40 40 39 39 39 39 39 38 38 38 37 38 38 37 37 37 38
38 39 39 40 41 40 43 44 45 46 49 50 51 49 45 43 41 40 41 42 41 41 41 41 41 42 41 40 40 40 40 40 40 40 40 39 39 39 39 39 38 38 39 39
37 38 38 38 38 39 42 43 45 46 47 49 51 50 43 41 41 41 41 41 40 40 40 41 41 41 41 41 41 40 41 41 41 41 41 41 41 41 40 40 40 40 39 40
37 39 39 39 38 39 42 43 44 45 46 47 48 47 43 42 42 42 41 41 41 40 40 41 41 42 42 42 42 42 42 42 42 42 43 43 42 42 41 41 41 41 41 41
36 39 40 40 39 39 41 42 44 46 47 47 47 45 42 41 42 42 42 41 42 41 40 41 42 43 43 44 44 44 43 43 43 44 44 44 44 44 43 43 43 42 42 42
36 39 40 41 41 41 41 41 43 47 47 48 45 44 41 40 41 41 41 41 42 42 41 41 41 42 42 43 44 44 44 44 44 45 45 45 45 44 44 44 44 44 43 43
36 37 38 41 41 42 43 42 42 43 45 45 45 44 40 41 42 41 41 42 42 41 41 41 42 42 42 43 43 44 44 44 45 45 45 45 46 46 45 45 46 45 44 44
36 38 38 39 40 43 43 40 41 42 42 44 45 41 39 41 43 43 42 43 43 42 42 43 42 42 42 43 44 44 44 45 46 46 46 46 46 46 46 46 46 46 45 45
35 36 37 39 41 44 40 40 40 41 41 42 43 42 41 42 43 44 43 44 45 45 44 44 44 44 44 44 45 45 45 45 46 46 46 46 46 45 45 45 45 45 45 45
36 35 37 38 40 41 38 38 39 41 42 40 41 42 42 42 44 44 44 45 46 46 46 45 44 44 45 45 45 46 46 45 45 45 45 45 45 45 45 45 44 44 45 45
38 38 38 38 40 40 34 34 36 40 41 39 41 41 42 43 44 43 43 45 47 47 48 47 46 46 46 45 46 46 45 45 45 45 45 45 45 44 44 45 45 45 45 45
38 39 40 39 39 38 33 33 35 38 37 38 40 41 42 43 43 41 43 45 46 46 46 46 46 47 46 45 45 45 45 45 45 45 45 45 44 44 45 45 45 45 45 45
36 39 40 40 40 35 31 33 34 36 36 38 40 41 42 43 43 42 43 44 45 45 45 45 45 45 45 46 46 46 46 46 46 46 46 46 45 45 46 46 45 46 46 45
35 36 38 39 39 36 34 35 34 35 36 36 38 40 42 43 44 43 43 43 44 45 45 46 45 45 45 46 47 47 46 46 46 46 46 46 46 46 46 46 46 46 46 46
34 35 37 38 37 36 36 36 36 36 37 37 38 40 41 42 42 43 43 44 44 45 45 45 45 45 46 46 46 47 47 47 47 47 46 46 47 47 47 47 47 46 46 46
34 35 35 35 34 36 37 37 37 38 38 38 38 40 41 41 42 42 43 43 45 44 44 45 45 45 46 46 45 46 46 47 47 47 48 47 47 47 47 47 47 46 46 46
34 35 36 35 34 36 36 37 38 39 38 39 39 39 40 42 42 42 43 43 42 43 44 44 45 45 45 45 44 44 45 46 46 46 46 46 46 46 46 46 46 45 45 45

GEFSCGP_500_meanwind_174.txt.gz
Wind_Speed
41 43 44 43 44 43 43 43 44 41 41 43 45 46 43 43 43 41 40 40 40 38 38 38 37 37 36 35 33 32 32 31 31 30 29 29 29 29 29 29 29 29 29 29
41 42 42 43 44 45 45 45 44 42 42 44 46 46 44 43 44 43 43 42 42 41 40 39 39 38 37 36 35 34 33 33 32 32 31 31 31 31 30 30 30 30 30 30
39 40 41 43 44 46 47 46 45 44 43 46 48 47 44 44 45 45 44 43 43 42 42 41 41 41 40 38 37 36 35 35 35 34 34 33 33 32 32 32 32 32 32 32
39 39 42 44 45 46 47 46 46 47 47 47 48 50 45 44 45 46 44 44 43 43 43 43 43 43 42 41 40 39 38 38 37 37 36 35 34 34 34 34 34 34 33 33
38 39 41 42 44 45 46 46 47 48 50 50 49 52 47 44 44 44 44 44 44 45 45 44 44 44 44 43 43 41 40 40 40 39 38 37 36 36 36 36 36 36 35 35
38 39 40 40 41 43 44 44 46 47 49 52 49 51 49 43 41 41 42 43 44 45 46 46 46 45 45 45 45 44 42 41 41 41 40 40 39 38 38 38 38 37 37 36
37 40 40 40 41 42 42 43 45 47 48 51 49 51 50 43 41 41 41 42 42 44 46 46 47 47 47 46 46 46 44 43 43 43 42 42 41 41 40 40 40 39 38 38
37 38 40 41 41 43 42 43 43 44 46 48 49 51 49 45 42 40 41 42 43 44 46 46 47 47 48 48 47 47 46 45 45 44 44 43 42 42 41 41 41 41 40 40
37 37 38 39 40 41 43 44 44 44 45 47 48 48 48 45 43 41 41 42 43 44 46 46 47 47 48 49 49 48 48 47 46 46 45 45 44 43 42 42 42 42 42 42
37 38 36 37 39 39 40 41 43 44 44 46 48 47 46 44 43 42 42 43 44 45 46 46 47 48 49 50 49 49 49 48 48 47 46 45 45 44 45 44 43 43 43 44
37 39 38 38 39 39 40 41 43 45 46 47 47 46 43 43 43 42 42 42 44 45 46 47 47 49 49 50 50 50 49 48 48 47 47 46 46 46 45 45 44 44 45 45
37 39 40 39 38 39 40 41 42 44 47 49 49 46 40 40 41 42 43 43 43 44 45 46 46 48 48 49 49 50 49 49 48 48 48 47 47 47 46 46 45 45 45 45
37 38 39 39 39 40 41 41 42 44 47 49 51 48 40 40 41 41 42 42 42 44 44 45 45 46 47 48 48 49 50 50 49 49 49 48 48 48 47 47 46 46 46 46
37 38 38 39 39 40 41 41 41 43 46 49 50 47 42 41 41 42 43 43 43 44 45 45 45 46 47 48 48 48 49 50 50 50 50 49 49 48 48 48 48 47 47 47
37 38 38 39 38 40 41 41 41 43 44 46 47 47 43 43 43 42 43 44 45 44 45 46 46 46 47 48 48 49 49 50 51 51 50 49 49 49 48 49 49 49 48 48
38 40 41 41 39 41 42 41 41 43 44 46 46 45 42 43 43 42 42 44 45 45 45 46 46 46 46 48 48 49 50 51 52 52 51 51 50 49 49 49 49 50 50 49
38 39 41 42 41 42 42 39 40 42 43 44 45 43 42 44 43 43 43 44 44 45 47 48 48 47 47 48 48 49 49 51 51 52 53 52 51 51 50 51 51 51 51 51
40 40 41 42 42 44 39 38 39 40 40 41 44 43 45 46 46 46 45 46 46 46 47 48 48 48 48 49 50 51 51 51 51 52 52 51 51 52 52 53 53 53 53 53
39 40 41 43 44 44 39 37 38 40 40 39 41 43 44 46 48 47 46 47 47 47 47 48 48 49 49 50 51 51 52 52 51 50 51 51 51 52 53 53 53 53 54 53
38 39 41 43 44 44 39 36 37 40 40 37 40 42 43 45 47 45 45 46 46 47 47 48 48 49 49 50 51 51 51 53 52 51 51 51 51 51 52 53 53 54 54 54
37 39 41 43 44 43 39 37 38 40 38 37 40 42 42 43 44 44 44 44 44 44 46 47 48 48 48 50 50 51 51 51 51 50 51 51 51 52 52 53 53 53 53 54
36 37 39 41 43 41 38 39 39 39 38 38 38 40 41 42 42 43 43 42 43 43 44 45 46 47 47 48 49 50 50 51 51 50 50 50 50 51 52 52 52 52 53 53
38 37 38 39 40 38 38 38 38 38 38 37 38 39 40 41 41 41 41 42 42 42 42 43 45 46 47 48 48 48 49 50 50 49 49 49 50 50 50 51 51 51 51 52
37 36 37 38 36 36 37 38 38 38 38 37 38 39 40 41 42 42 42 42 42 42 42 42 44 46 46 46 46 46 47 47 48 49 48 48 49 49 49 50 50 50 50 50
37 37 38 37 35 36 36 37 38 39 40 39 38 39 40 40 41 41 41 41 42 42 43 43 44 44 45 45 46 46 47 47 47 48 49 49 49 49 49 49 49 50 51 51
35 37 38 37 36 38 36 37 39 39 40 40 40 40 40 40 41 41 41 41 41 41 41 42 43 43 43 44 45 45 46 46 47 48 48 48 48 49 49 49 49 49 50 50

GEFSCGP_500_meanwind_180.txt.gz
Wind_Speed
30 30 30 32 35 37 39 39 39 39 40 43 44 43 41 41 43 43 44 44 44 43 42 42 42 42 42 42 41 40 39 39 38 37 36 35 35 35 35 34 34 34 33 33
30 31 30 32 33 35 38 40 41 41 42 44 45 45 43 42 42 43 44 44 44 43 43 43 44 44 43 43 43 42 42 41 40 39 38 37 37 37 36 35 35 35 35 34
29 30 31 32 33 35 37 39 41 42 42 43 45 46 44 43 43 43 44 44 44 44 44 44 44 45 45 45 45 44 43 43 42 42 41 40 39 38 37 37 37 37 37 36
30 30 32 32 33 35 36 37 39 41 43 44 44 46 43 43 43 43 42 42 43 43 44 44 45 46 46 46 46 46 45 44 44 43 43 42 41 40 39 39 39 39 39 38
29 31 33 33 33 35 36 36 38 40 42 43 42 45 43 43 42 42 42 41 41 42 43 44 45 46 46 46 47 47 46 46 45 45 44 43 42 42 42 42 41 41 40 40
30 31 33 34 35 35 36 36 38 39 41 43 40 43 42 41 41 41 42 42 41 42 43 43 45 45 46 46 47 47 47 47 47 46 46 45 44 44 44 44 43 43 42 42
31 32 33 34 35 35 35 36 38 40 41 43 40 41 40 37 39 40 41 42 43 43 43 43 44 45 45 46 46 47 48 48 48 47 47 46 46 46 46 46 45 45 44 44
31 32 33 33 33 34 35 35 37 40 42 42 41 42 39 38 38 38 40 41 42 43 44 45 45 45 45 47 47 48 49 49 49 48 48 47 47 47 47 48 48 47 46 45
31 32 32 32 32 34 36 36 36 38 41 42 42 42 39 38 38 38 38 40 41 43 44 45 45 45 45 46 47 48 49 49 50 49 49 49 48 49 48 48 48 48 48 47
32 33 32 32 33 34 35 36 37 39 41 43 42 40 38 37 37 37 37 38 39 41 42 44 45 46 46 47 48 48 49 49 50 50 50 50 50 50 50 49 48 49 49 49
34 34 33 33 33 33 35 37 38 39 41 43 43 40 37 36 37 36 37 38 39 40 41 43 44 45 46 47 48 50 50 50 51 51 51 51 52 51 51 51 50 50 51 51
34 35 35 34 33 33 35 36 37 39 40 42 45 43 38 37 37 37 37 38 40 41 41 42 43 45 46 47 48 49 50 50 51 51 51 51 51 53 52 52 52 52 52 52
35 36 36 35 35 35 36 36 38 39 42 42 44 44 39 38 37 37 38 38 39 40 41 42 42 44 45 46 48 49 50 51 51 51 51 53 52 52 53 52 52 53 53 53
35 36 37 37 36 36 37 37 38 40 42 44 44 43 39 39 38 39 39 39 39 39 40 41 43 44 45 47 48 50 50 51 51 52 53 53 53 53 52 53 53 53 53 53
36 37 37 38 37 37 37 38 39 40 41 44 43 43 40 40 41 41 41 42 42 42 42 42 43 45 46 46 48 49 50 51 52 52 52 53 53 53 53 52 51 52 53 53
37 37 38 38 37 39 40 38 37 38 40 43 44 43 40 42 43 43 42 43 43 42 42 42 43 45 46 46 46 48 49 50 51 52 52 53 54 54 54 53 51 51 51 52
38 38 39 39 37 40 40 35 36 36 36 39 42 41 40 42 43 43 43 43 43 42 42 42 42 42 44 45 46 47 47 48 50 52 53 53 53 53 53 53 52 51 50 50
37 38 40 39 39 41 36 35 36 38 37 37 39 39 39 41 42 42 42 43 43 43 42 42 43 43 43 43 44 46 47 48 49 50 52 53 53 53 52 52 53 52 50 50
36 37 39 40 41 42 37 35 36 38 38 37 38 39 39 39 41 40 41 42 42 42 42 42 43 43 44 44 43 44 45 47 48 49 50 51 52 53 53 52 53 53 53 51
35 37 39 39 41 42 37 36 37 39 38 36 37 38 39 40 40 39 40 41 41 42 42 41 42 42 43 44 45 45 45 46 47 48 49 50 51 52 52 52 53 53 53 52
35 36 37 38 40 41 37 37 37 39 37 37 37 38 37 38 39 39 39 40 41 41 41 41 42 42 42 43 44 45 45 46 46 46 47 48 50 50 51 51 52 52 52 52
37 37 37 38 41 39 37 38 38 38 38 37 36 36 37 37 38 39 39 39 40 40 41 42 42 42 42 42 43 44 44 45 45 46 46 47 48 49 50 51 51 51 50 51
38 37 39 40 40 38 37 38 38 38 39 38 37 37 37 37 37 38 39 39 39 40 40 41 41 41 42 43 43 44 44 44 44 44 45 46 47 47 48 49 49 48 48 48
39 39 40 41 38 37 38 38 38 39 39 38 38 38 38 38 37 38 38 38 38 38 39 40 40 41 41 42 42 42 43 43 44 43 44 45 45 46 46 46 46 46 46 46
38 39 40 40 38 40 40 39 39 39 39 39 38 38 38 38 37 38 37 37 37 37 38 39 39 39 39 39 40 40 41 42 43 43 43 44 45 45 44 44 45 45 45 45
35 37 39 38 37 40 39 39 39 39 38 39 39 39 38 38 37 37 37 36 36 36 37 38 38 38 38 38 38 38 39 40 40 41 42 42 43 43 42 42 43 43 43 43

GEFSCGP_500_meanwind_186.txt.gz
Wind_Speed
25 26 27 28 29 30 31 33 34 34 34 37 39 39 38 38 39 40 40 41 42 43 43 43 43 44 44 43 43 43 43 43 44 44 43 43 42 41 41 40 39 38 38 38
26 27 27 28 29 30 31 33 33 34 34 36 39 38 36 36 38 39 39 40 41 42 43 43 43 44 45 45 44 45 45 44 44 44 45 45 45 44 43 43 42 40 40 40
27 26 27 28 29 30 31 32 34 35 34 35 37 37 35 35 37 39 40 40 40 41 42 43 44 44 45 45 45 45 45 45 45 45 46 47 46 45 44 43 42 42 42 42
28 28 28 29 30 32 33 33 35 36 36 35 35 37 34 34 36 38 38 39 40 40 40 41 42 44 44 45 45 45 46 46 47 47 47 47 47 46 45 44 44 44 44 44
29 29 30 31 31 33 34 34 35 36 38 38 35 38 33 33 35 35 35 36 38 39 40 40 40 42 43 44 45 45 45 46 47 47 47 47 47 47 46 46 45 45 45 45
30 31 32 31 31 33 34 34 35 36 38 38 35 37 33 32 33 34 35 36 37 38 39 39 40 41 42 43 44 44 45 46 46 47 47 47 47 48 48 47 46 46 46 47
30 31 31 32 32 32 33 34 36 38 38 38 35 37 34 33 34 35 36 37 37 38 38 39 40 41 41 42 43 44 46 47 47 48 48 48 48 49 49 49 48 47 47 47
30 30 30 31 31 32 32 34 36 38 40 40 38 38 35 35 35 37 38 38 38 38 39 40 41 41 42 42 43 45 46 47 48 48 48 48 49 50 50 50 49 49 48 48
32 32 31 31 32 33 34 34 35 39 41 43 41 40 38 37 37 37 38 39 39 40 41 41 41 42 42 43 43 45 46 47 49 49 49 49 49 50 50 51 50 50 50 50
33 34 32 33 33 34 35 35 36 38 41 43 43 41 40 37 37 38 38 39 40 41 41 42 42 43 43 43 44 45 47 48 49 49 50 50 50 51 51 51 50 50 51 52
33 34 33 33 33 34 35 36 37 38 40 42 43 41 39 39 39 39 39 40 41 41 42 42 42 42 43 43 43 45 47 49 50 50 50 50 50 51 51 51 51 52 52 52
34 36 35 34 34 35 36 36 37 38 39 41 44 43 37 39 40 41 42 41 42 43 43 44 44 44 43 43 43 44 46 48 49 50 51 51 51 52 52 51 52 52 53 53
36 37 37 36 35 36 37 37 38 40 42 43 45 45 39 40 41 42 43 43 43 43 43 44 44 44 44 44 44 44 45 47 48 49 50 50 51 51 52 52 52 52 53 54
38 39 39 38 37 38 39 38 39 41 43 44 43 43 40 40 41 42 42 43 43 43 43 43 44 45 45 45 45 45 45 46 47 48 49 50 51 51 52 53 53 53 54 54
40 40 40 40 39 40 41 41 41 42 44 45 43 42 39 39 40 41 41 43 44 45 45 45 45 45 45 45 45 45 45 46 47 47 49 50 51 51 52 53 54 54 55 55
41 42 42 41 40 42 43 41 41 42 43 44 44 42 38 40 41 42 41 42 44 45 44 44 45 45 45 45 44 44 45 46 47 47 48 49 50 52 53 52 52 53 54 54
41 41 42 42 41 44 44 39 40 42 42 43 44 40 39 41 41 42 43 42 42 42 42 42 42 43 44 44 44 44 44 45 46 47 48 49 50 51 52 53 52 52 53 53
40 40 42 43 42 45 41 39 39 41 41 41 42 41 41 42 42 42 43 43 42 42 41 41 42 42 43 44 44 44 44 45 46 47 47 49 50 51 51 52 52 51 51 52
39 40 42 43 44 45 40 39 40 41 41 39 40 40 41 42 42 41 42 43 42 42 41 41 42 42 43 44 45 45 44 44 45 46 47 48 49 50 50 51 51 50 50 50
39 39 41 42 44 46 41 40 40 41 41 39 40 40 40 41 42 40 41 41 42 42 42 41 41 41 42 43 44 44 44 43 43 44 45 46 47 48 48 49 49 49 48 48
39 39 40 42 44 45 40 39 39 40 40 39 39 40 40 40 41 41 40 40 42 42 43 43 42 41 41 41 42 42 43 43 42 42 43 44 45 46 46 47 48 48 48 48
39 40 40 41 43 42 38 39 39 39 39 39 39 41 41 41 41 40 40 40 41 42 42 42 42 41 41 40 41 41 41 42 41 41 42 42 43 43 44 44 45 46 47 48
39 39 40 42 42 41 40 39 38 39 39 39 40 41 42 42 41 40 40 40 40 40 40 40 40 40 40 40 40 40 40 41 41 40 40 40 41 42 43 44 44 44 44 44
39 39 41 43 42 41 41 40 41 41 41 41 42 42 42 42 41 41 40 39 39 39 38 38 38 37 37 37 38 38 38 39 39 39 38 38 39 39 40 41 42 42 43 44
39 40 42 44 42 42 41 41 42 42 42 42 41 42 42 42 41 40 39 38 37 37 37 37 37 36 36 36 35 36 36 36 37 37 37 36 37 38 38 39 41 41 41 41
39 41 43 44 42 44 43 42 43 43 42 42 42 42 41 41 40 39 39 37 36 36 36 36 35 34 34 34 34 34 35 35 36 36 36 36 37 37 38 39 39 40 40 41

GEFSCGP_500_meanwind_192.txt.gz
Wind_Speed
23 24 26 27 27 28 27 27 27 27 29 31 32 31 30 32 33 34 35 37 37 37 38 39 39 40 41 41 41 42 42 43 45 45 44 44 44 44 43 42 43 43 43 43
25 26 27 29 29 29 29 28 27 28 30 33 32 32 31 32 34 34 35 36 37 37 38 38 40 40 41 41 42 42 43 44 45 45 45 45 45 45 44 44 44 44 45 45
27 27 28 29 29 30 29 29 28 29 30 32 33 32 30 31 33 34 34 35 37 37 38 38 39 40 40 40 41 41 41 43 44 44 45 46 46 47 46 45 45 45 46 46
27 27 28 29 30 31 30 30 31 31 32 32 33 34 30 31 32 33 33 34 35 36 37 38 39 40 40 40 40 40 41 42 42 44 45 45 46 47 47 46 46 47 47 47
28 28 29 29 29 30 31 31 32 32 34 35 32 35 31 30 31 33 34 34 35 36 37 38 40 40 41 41 41 41 41 41 41 42 44 45 46 47 48 48 48 48 48 48
29 30 30 30 30 31 31 32 33 33 35 36 33 34 31 29 30 32 35 35 36 37 37 38 39 40 40 41 42 42 41 41 42 43 43 44 45 47 48 49 50 49 49 49
29 29 30 31 30 30 30 31 33 34 35 35 33 34 31 29 31 32 33 35 35 36 37 38 39 40 40 41 42 42 42 42 42 43 44 44 46 48 48 49 50 51 50 51
31 30 31 31 30 30 30 31 32 34 35 35 33 34 31 30 31 32 33 34 35 36 37 38 39 40 41 41 42 43 44 43 44 45 45 46 46 47 48 49 49 50 50 50
32 31 31 31 31 31 31 31 32 34 36 36 35 33 31 30 30 31 33 34 36 37 38 38 39 40 41 42 42 42 44 45 45 46 46 46 46 47 48 49 49 50 50 51
32 32 30 30 31 31 31 32 32 33 36 37 36 34 31 30 30 32 33 34 35 37 38 39 39 39 41 41 41 42 44 44 45 45 46 47 48 49 49 50 49 50 51 51
33 33 32 31 31 31 31 31 33 34 35 36 37 34 32 32 32 33 34 35 36 38 39 40 40 41 41 41 42 43 43 43 44 45 46 47 48 50 51 51 51 51 52 53
34 35 33 32 32 32 32 32 33 35 36 37 38 35 31 33 33 35 37 37 38 39 39 40 41 41 41 42 42 42 43 43 43 45 46 47 48 49 50 51 51 52 53 53
35 35 35 33 33 33 33 33 34 35 38 38 39 37 33 34 36 37 38 39 39 40 40 40 40 40 41 42 43 43 44 45 45 45 45 46 47 48 49 50 51 52 53 53
37 37 36 34 33 34 34 34 35 37 39 41 40 39 35 36 37 37 38 39 39 40 41 41 40 40 41 42 42 44 45 46 47 47 46 46 47 48 50 50 51 52 53 53
38 38 37 36 35 36 36 36 36 39 40 43 41 40 37 38 39 38 38 39 40 40 40 41 41 42 42 43 44 44 45 46 47 48 47 47 47 48 49 50 51 52 53 53
39 39 39 38 37 38 39 37 37 39 40 42 43 41 38 40 41 40 40 40 40 40 40 40 41 41 42 42 43 44 44 45 47 48 48 48 49 49 49 50 50 50 51 52
40 40 41 40 38 40 40 36 37 39 39 41 42 40 39 40 41 42 41 41 41 41 41 41 41 41 42 42 42 43 43 44 45 47 48 48 49 50 50 49 49 48 49 51
40 40 41 41 41 42 38 37 38 39 39 40 41 40 40 41 41 42 42 42 42 43 43 43 43 43 42 43 43 43 43 44 45 46 48 49 49 50 49 48 47 47 48 49
38 39 40 41 42 43 39 37 38 40 39 38 40 40 41 41 42 42 42 42 42 42 42 42 43 43 42 42 43 43 43 44 45 45 46 47 48 47 47 47 47 47 47 47
37 38 40 41 43 43 39 38 39 41 39 37 39 40 40 41 41 39 40 41 41 41 41 41 42 42 42 42 42 43 44 44 43 43 44 45 45 43 43 44 45 46 46 45
38 39 40 40 42 42 38 39 40 40 39 39 40 40 40 41 40 39 39 39 40 41 41 42 43 43 42 42 42 42 42 43 42 41 42 42 42 42 41 41 42 42 42 43
39 40 40 41 43 41 39 40 39 39 39 39 40 40 40 40 39 39 39 40 40 41 42 43 43 43 42 41 41 41 41 40 40 40 40 41 41 40 40 40 40 40 40 41
39 39 40 42 41 40 41 41 40 40 40 39 39 40 40 39 39 40 40 40 40 41 42 42 42 40 40 39 40 39 39 39 39 39 38 38 39 40 39 38 38 38 38 38
41 40 42 42 41 41 41 41 40 40 40 40 40 40 40 39 39 40 41 41 41 41 40 40 39 38 38 38 38 38 37 37 37 36 36 36 36 37 38 37 37 36 36 37
40 40 42 43 41 42 41 40 39 40 40 40 41 41 41 41 40 41 41 40 40 39 39 39 38 37 37 37 37 35 35 35 35 34 33 33 34 34 34 35 35 34 35 36
37 40 42 42 40 42 41 40 41 40 40 41 41 41 41 41 41 41 41 40 39 38 38 38 37 36 36 35 34 34 33 33 33 33 33 32 32 33 33 33 33 33 34 35

GEFSCGP_500_meanwind_198.txt.gz
Wind_Speed
27 27 28 29 30 31 31 31 30 31 31 32 31 30 29 30 32 33 34 35 36 36 35 36 37 38 39 40 40 40 40 42 43 44 44 45 45 46 47 47 47 47 47 47
28 28 29 30 31 32 32 32 32 32 32 33 32 30 29 30 32 33 34 35 36 36 36 37 38 39 40 41 42 42 42 42 43 44 45 46 47 47 48 48 48 48 48 48
29 29 30 31 31 32 32 32 32 32 32 32 33 31 29 30 32 33 34 35 36 36 37 38 39 40 40 41 42 42 42 43 43 44 45 46 47 48 48 48 49 49 49 49
31 31 32 32 32 33 32 33 33 32 32 32 33 33 29 31 32 33 34 35 35 37 38 39 40 41 41 41 43 43 43 43 44 45 45 45 47 47 48 49 50 50 51 51
33 33 33 33 33 34 33 33 33 33 34 34 33 35 30 31 32 33 33 34 35 37 37 38 40 41 41 41 42 42 42 42 43 44 45 45 45 47 47 48 49 50 51 52
35 34 34 34 34 34 34 34 34 35 36 36 34 35 33 32 32 33 34 34 35 36 36 37 38 40 41 41 41 42 42 42 43 44 45 45 45 47 47 47 48 48 49 51
36 35 36 35 35 34 35 35 36 37 37 37 35 35 34 32 33 34 34 34 34 35 36 37 38 39 41 42 42 43 43 43 44 45 46 46 46 47 47 46 47 47 48 49
36 36 35 36 35 35 36 36 36 38 39 38 36 36 34 33 33 33 33 34 34 35 36 37 38 40 41 42 43 44 45 45 45 46 47 47 47 47 47 46 47 48 49 49
37 37 36 37 36 36 36 36 37 39 41 40 38 36 34 34 33 32 33 34 34 35 36 38 39 41 42 42 43 44 45 46 46 46 47 47 47 47 48 48 48 49 49 50
38 38 37 37 37 37 37 37 37 38 41 42 40 37 35 33 33 33 34 35 36 36 38 39 41 41 42 43 43 44 45 46 46 46 47 47 47 48 49 50 50 51 51 51
39 40 38 37 37 37 38 38 38 40 42 43 43 39 36 34 34 34 34 35 37 37 38 39 41 41 42 42 43 43 44 45 46 46 47 48 48 49 49 50 51 51 52 52
39 40 39 38 38 39 39 39 39 40 42 43 45 42 37 36 35 36 36 37 37 38 39 40 41 42 42 42 43 44 44 46 46 47 48 48 48 49 50 50 51 52 52 52
40 41 41 41 40 40 40 40 40 41 43 43 44 42 37 37 36 37 38 38 39 39 40 40 41 42 42 43 43 44 44 45 46 47 48 48 49 50 50 51 51 52 52 52
43 44 43 42 41 42 42 41 42 43 44 44 43 41 37 37 38 38 39 40 40 40 41 41 41 42 43 43 44 44 44 45 45 46 47 48 50 50 51 51 51 51 51 50
44 45 44 43 43 43 44 43 42 43 44 45 42 41 38 38 40 40 40 41 41 41 41 42 42 42 43 43 44 44 45 45 45 46 47 48 49 50 50 50 50 49 49 49
43 44 43 44 43 44 45 43 41 42 43 44 44 42 39 40 41 42 42 42 42 42 42 43 44 44 44 43 43 44 45 46 47 47 48 49 49 49 48 49 49 50 50 50
43 43 43 43 42 45 45 40 41 42 42 42 43 41 41 41 42 43 43 43 43 43 43 43 44 44 44 44 44 45 45 47 48 49 49 48 47 47 47 48 49 50 49 49
42 42 43 43 44 46 42 40 40 41 40 40 41 41 42 42 43 43 44 45 45 45 44 44 44 44 45 45 45 45 46 47 47 48 48 48 46 46 46 47 48 49 49 49
42 42 43 43 45 46 41 39 40 41 41 39 41 41 42 42 43 43 45 46 46 46 45 44 44 44 44 44 44 45 45 46 47 47 47 46 46 46 47 47 47 48 48 47
41 41 42 44 45 46 41 39 40 42 42 39 41 42 42 43 43 43 44 45 46 46 46 45 44 44 44 44 44 44 44 45 45 44 43 44 44 45 46 46 46 46 46 46
41 42 42 43 45 44 40 39 40 41 40 41 42 42 42 43 43 43 44 44 45 44 45 45 45 45 44 44 44 44 44 44 43 42 42 43 44 45 45 45 45 45 44 44
43 43 43 42 44 42 39 40 40 41 41 41 42 42 43 43 43 43 44 44 44 44 45 46 46 45 44 44 44 44 44 43 43 42 42 42 43 43 44 43 43 44 44 43
43 42 43 43 42 41 40 41 41 42 42 42 43 43 43 44 44 44 44 44 44 45 45 46 46 45 44 44 44 44 43 42 42 41 41 41 41 41 41 41 41 40 40 40
42 42 43 43 41 40 41 41 42 43 44 44 44 44 44 44 44 44 44 43 43 44 44 44 44 44 44 44 44 43 43 43 41 40 40 39 39 38 38 37 37 36 36 36
41 42 42 42 40 41 41 42 43 44 45 44 44 44 44 44 44 44 43 43 43 43 43 43 42 42 42 42 42 42 41 41 40 40 39 38 38 36 35 34 33 33 33 33
39 40 41 41 40 42 42 42 44 44 44 44 43 44 43 44 43 43 42 42 42 42 42 41 41 41 41 40 40 40 40 39 38 38 37 36 35 34 33 32 31 31 32 32

GEFSCGP_500_meanwind_204.txt.gz
Wind_Speed
29 29 30 30 30 30 30 30 30 31 32 32 31 31 31 31 32 32 32 32 33 33 34 35 36 37 38 39 40 40 40 41 42 42 43 43 44 45 46 46 46 47 47 47
30 30 30 31 31 31 31 31 31 32 33 33 32 31 31 31 31 32 32 32 33 33 34 34 35 36 38 39 40 40 41 42 43 44 44 45 45 46 47 48 48 48 48 48
31 31 31 31 31 32 32 32 32 33 34 34 34 33 31 31 32 32 32 32 32 32 33 34 35 36 37 38 39 41 43 43 44 45 46 47 47 47 47 47 48 49 49 49
32 32 33 33 32 33 33 33 34 34 35 34 34 35 32 32 32 32 32 32 32 33 33 34 35 36 37 38 40 42 44 44 45 45 46 46 47 47 48 48 49 49 50 50
33 33 34 34 34 34 34 34 35 35 36 36 34 36 33 32 32 32 32 32 33 33 34 35 36 37 38 39 41 42 44 44 45 45 45 45 46 46 47 48 49 49 49 50
33 34 34 34 34 34 34 35 36 36 36 37 35 36 34 32 31 31 32 33 34 34 35 35 37 37 38 39 41 42 43 43 44 44 45 45 46 46 46 47 48 48 48 49
34 35 35 34 34 34 34 35 36 37 37 37 36 36 35 33 33 33 33 33 34 35 36 36 37 37 38 39 40 41 42 42 43 43 44 44 45 46 46 47 47 47 47 48
36 36 36 35 35 35 35 35 35 37 38 39 38 37 36 35 35 35 35 35 36 36 37 37 38 38 39 40 40 41 41 42 43 43 44 45 46 46 46 47 47 47 46 47
37 38 37 37 36 36 36 36 36 38 40 41 40 39 36 36 36 36 37 37 37 37 38 38 38 39 40 40 41 41 42 42 43 44 44 45 46 47 46 47 48 47 47 47
39 39 39 38 38 38 38 37 37 39 41 42 42 39 36 35 35 36 37 38 38 39 38 38 39 39 40 41 41 42 43 43 43 44 44 45 45 46 47 48 48 48 48 49
39 40 40 40 39 38 38 38 38 40 42 42 43 40 36 36 36 37 37 38 38 38 38 38 38 40 40 40 41 41 42 43 44 45 45 45 45 45 47 47 48 48 48 49
39 40 40 39 38 38 39 38 39 40 41 42 43 42 37 36 37 37 38 38 38 39 39 38 38 39 40 40 40 41 41 43 44 45 46 46 46 46 46 47 47 48 49 49
40 40 40 40 39 38 39 38 39 41 42 42 42 41 37 37 38 38 40 39 39 39 39 39 38 39 39 40 40 41 42 43 44 45 45 45 46 46 46 46 47 48 49 49
42 42 41 40 40 39 40 39 40 41 42 42 41 40 38 38 39 40 41 40 40 40 39 39 39 39 40 40 40 41 42 43 44 44 44 45 45 46 46 47 48 48 49 49
43 43 42 42 42 42 41 41 41 42 42 43 41 40 38 38 40 41 41 40 40 39 39 39 40 40 41 41 41 41 42 43 44 44 45 45 46 47 48 48 48 49 48 48
42 43 42 43 42 43 43 41 41 41 40 41 41 40 38 39 40 40 39 39 39 39 39 40 40 41 41 42 42 42 42 43 43 44 45 46 47 48 49 49 49 48 49 49
41 41 42 43 42 44 44 39 40 40 39 40 41 39 39 40 40 39 39 39 39 39 39 40 41 41 42 42 42 42 43 43 44 44 46 47 48 48 49 49 49 49 49 49
41 41 42 43 43 46 42 40 39 40 39 40 41 40 39 39 39 39 39 40 39 39 40 40 41 41 42 42 43 43 43 43 44 45 47 47 48 49 49 48 47 47 47 47
40 40 41 42 44 44 41 39 38 39 40 39 40 40 40 40 40 38 38 39 40 40 41 41 41 42 42 42 43 44 44 44 45 46 47 47 47 47 47 46 46 45 45 45
39 39 40 41 42 43 41 39 39 41 41 39 39 40 40 39 39 38 38 39 40 41 42 42 42 42 42 42 43 43 44 45 45 45 45 45 45 45 44 44 44 44 44 43
39 39 40 41 43 43 40 40 40 40 40 38 38 38 38 38 38 38 37 38 39 40 41 41 41 41 41 42 42 43 43 43 43 44 44 44 44 43 43 43 44 44 44 43
39 40 40 41 43 42 40 39 39 39 39 38 38 37 38 37 37 37 38 38 39 40 40 40 40 41 41 42 42 43 43 43 42 43 43 43 43 43 43 42 42 42 42 42
39 40 40 41 41 40 40 40 40 40 39 38 38 38 38 38 38 38 38 39 39 39 39 40 40 41 41 42 43 43 42 42 42 42 42 41 41 41 42 42 41 41 41 40
38 38 39 39 38 39 40 40 39 39 38 38 38 38 38 39 39 39 39 39 39 39 40 40 41 41 42 42 43 42 42 42 41 41 41 41 41 40 40 39 39 39 38 38
38 38 38 38 37 38 38 38 39 39 39 39 39 39 39 39 39 39 39 39 39 39 40 40 41 42 42 42 42 41 41 41 41 41 40 40 39 39 38 38 37 36 35 35
38 38 38 37 36 37 37 38 38 39 39 40 40 40 40 40 39 39 39 38 39 39 40 41 41 41 40 41 41 41 41 40 40 40 39 38 38 37 37 36 35 35 34 33

GEFSCGP_500_meanwind_210.txt.gz
Wind_Speed
34 34 33 32 32 33 33 33 33 34 35 36 36 35 34 34 35 35 35 35 36 37 37 37 38 38 38 38 38 38 38 39 39 40 41 42 43 43 43 43 44 44 45 45
35 35 33 33 34 34 34 35 35 36 37 37 38 37 35 35 36 35 35 35 36 36 36 38 38 38 38 38 38 38 39 39 39 40 42 43 44 44 45 45 45 46 46 47
37 35 34 34 35 35 35 35 35 37 38 38 39 39 36 36 36 36 35 35 36 37 37 38 38 38 38 37 38 39 39 40 40 41 43 44 44 46 46 46 46 47 48 49
37 36 35 35 36 36 36 36 37 38 39 39 39 40 37 36 36 36 36 36 36 36 37 38 38 38 38 38 39 40 40 41 41 42 44 45 46 47 47 48 48 48 48 49
37 37 37 36 36 37 37 37 38 38 39 41 40 42 38 37 37 37 37 37 37 37 38 38 39 39 39 39 39 40 41 42 43 44 45 46 47 47 48 48 49 49 49 50
38 38 37 37 37 38 38 38 38 39 41 43 40 42 41 38 37 37 37 37 38 38 38 39 39 40 40 40 40 41 42 43 43 44 45 46 47 47 48 48 49 50 50 50
38 39 38 38 38 38 38 37 39 41 42 43 41 42 41 38 38 38 37 38 38 38 38 39 39 40 40 41 42 42 43 43 43 45 46 46 47 48 49 49 50 51 52 51
39 39 39 39 39 38 39 38 39 41 42 42 42 42 41 39 39 38 38 39 39 39 39 39 40 40 41 41 43 43 44 44 45 46 47 48 48 49 49 50 50 51 51 51
40 41 40 40 39 40 39 39 39 41 42 43 43 42 41 39 38 38 38 38 38 39 39 40 41 41 42 42 43 44 45 45 46 47 47 48 48 48 49 49 50 50 50 50
41 42 43 42 41 40 39 38 39 41 42 43 43 42 41 39 39 38 38 39 38 39 40 40 40 41 42 43 44 45 45 46 46 46 47 47 47 48 48 49 49 50 50 50
41 43 43 43 42 39 39 39 40 41 42 43 43 42 40 40 39 38 38 39 39 41 41 41 41 42 43 44 44 45 45 46 46 46 46 47 48 48 48 49 49 49 49 49
41 43 44 43 42 40 41 40 40 41 42 42 43 44 41 40 39 39 39 39 40 41 41 41 41 42 43 44 44 45 45 45 45 46 46 47 47 47 48 48 48 48 49 49
41 42 42 42 42 41 41 41 41 42 43 44 44 44 41 40 40 40 40 40 41 41 41 42 42 43 44 45 45 44 45 45 45 46 46 46 46 46 47 47 47 48 49 49
41 42 41 41 41 40 40 40 42 44 45 45 44 43 41 40 40 41 41 41 41 41 42 42 43 44 45 45 44 44 44 44 44 44 45 45 45 45 46 46 47 48 49 50
42 42 41 41 41 42 42 41 42 44 44 45 43 42 40 40 40 41 42 43 43 44 43 43 43 44 44 43 43 44 44 44 44 44 43 43 44 44 44 45 47 48 49 49
43 43 42 42 41 43 44 43 43 43 44 44 44 42 40 40 41 42 43 43 44 44 44 44 44 43 43 43 43 43 43 43 42 43 43 43 44 44 44 45 47 48 48 48
42 43 43 43 42 44 46 42 42 42 42 43 44 43 41 41 41 42 43 44 44 44 43 43 42 42 42 42 42 42 42 42 42 43 43 43 44 44 45 45 46 47 47 48
42 42 43 44 44 47 43 41 41 41 41 41 42 42 42 42 42 42 44 44 44 43 42 41 42 42 42 42 42 42 42 42 43 43 44 44 44 44 45 46 47 48 48 49
41 41 43 44 45 46 42 40 40 40 40 40 41 41 41 42 42 42 42 42 42 42 41 41 42 41 41 41 40 41 41 42 42 42 43 44 45 45 45 46 47 49 49 49
39 40 41 42 43 44 41 39 39 40 41 39 39 40 40 41 42 41 41 41 41 40 40 41 41 41 40 40 40 40 40 41 41 42 43 44 45 45 45 46 47 47 47 47
38 39 40 41 42 42 40 39 40 41 40 39 39 39 39 40 40 40 40 39 39 39 40 40 41 41 39 39 39 40 41 42 42 43 43 44 44 45 45 45 46 47 47 47
36 38 38 39 41 40 39 40 41 41 40 40 39 39 38 38 38 38 38 38 38 39 39 40 40 39 39 40 40 40 41 42 42 43 43 43 44 44 44 45 45 46 46 46
36 35 35 36 38 38 39 40 40 40 40 39 39 38 38 37 37 37 37 38 38 38 38 39 39 39 40 40 40 40 41 42 42 42 42 43 43 44 44 45 45 45 46 45
36 36 36 36 36 37 39 40 40 40 40 40 40 39 38 38 37 37 38 38 38 38 38 38 38 38 39 40 40 41 42 42 42 42 42 42 42 43 44 44 44 44 44 43
35 36 38 38 38 39 39 38 38 39 40 40 39 38 38 38 38 38 38 38 38 38 38 38 38 38 39 40 41 41 41 41 41 42 42 41 42 42 43 43 43 42 41 42
36 37 37 37 36 38 38 39 39 40 40 39 39 39 38 38 39 39 38 38 38 38 38 39 39 39 39 40 40 41 41 41 41 42 42 42 42 42 41 41 40 39 39 38

GEFSCGP_500_meanwind_216.txt.gz
Wind_Speed
36 37 36 35 35 35 36 35 35 35 36 37 36 35 34 35 35 35 35 35 35 36 36 37 37 37 38 39 39 39 39 39 39 39 40 40 40 40 41 42 43 44 44 45
38 36 35 36 36 36 36 36 35 36 37 39 39 38 36 36 36 36 36 36 36 37 38 38 38 38 38 38 39 39 39 40 40 41 40 41 41 41 41 42 43 44 45 46
37 35 35 37 37 37 37 37 36 37 39 40 41 40 38 37 37 37 37 37 37 37 38 38 38 37 38 38 39 39 40 40 40 41 41 41 42 42 42 43 44 44 45 47
37 36 37 37 38 38 38 38 38 39 41 41 42 43 39 38 38 37 37 37 37 37 38 38 38 38 38 38 39 40 40 40 40 41 42 42 43 43 43 43 44 45 46 48
37 37 37 37 38 38 38 38 40 41 42 43 42 44 39 38 38 37 37 36 36 36 37 37 38 38 38 39 40 40 40 41 41 42 42 43 43 44 44 43 44 45 46 47
37 38 38 37 38 38 37 38 40 41 42 44 41 43 41 37 36 36 37 37 37 37 38 37 38 39 39 39 39 39 40 41 42 42 42 43 43 43 44 44 45 46 47 48
38 39 39 38 38 38 38 38 39 41 42 43 40 43 42 38 37 36 37 37 37 38 38 38 38 38 38 38 39 39 40 41 42 42 42 43 44 44 45 45 46 47 47 47
38 39 39 39 38 38 37 37 39 40 41 41 41 43 41 39 38 37 37 37 37 37 37 38 38 38 37 38 39 40 41 41 42 43 43 44 45 46 46 46 47 47 48 48
38 39 39 38 37 37 37 38 38 40 42 42 42 42 40 37 37 36 37 37 37 37 37 38 38 38 38 39 40 41 41 41 42 43 43 44 46 47 47 47 48 49 49 51
38 38 38 38 39 38 38 37 38 40 41 42 43 42 39 36 36 36 36 36 36 37 37 38 38 39 39 40 41 41 41 42 43 44 44 45 46 47 47 48 49 50 50 51
40 40 39 39 39 38 37 38 39 40 42 42 43 41 38 37 36 36 36 36 36 36 38 38 39 40 40 41 41 41 42 42 43 44 46 46 46 46 48 49 49 50 50 50
39 40 41 40 39 39 39 39 39 40 41 42 42 42 37 36 36 37 37 36 36 37 37 38 39 40 40 40 41 42 42 43 44 45 46 46 47 47 48 49 49 49 50 50
40 41 42 41 41 41 41 40 40 40 42 42 42 41 37 36 36 36 36 37 37 37 37 38 39 39 39 40 41 42 43 43 44 46 47 47 47 48 48 49 49 49 50 50
40 42 42 41 40 40 40 40 40 41 42 41 41 39 36 35 35 36 36 37 37 37 38 38 39 39 40 40 41 43 43 44 44 45 46 47 47 48 49 50 51 51 50 49
39 40 40 40 40 41 40 39 40 41 41 41 39 39 37 36 37 37 38 38 38 38 38 39 40 40 41 42 42 43 43 43 44 45 46 47 48 48 49 49 50 49 48 48
37 39 39 40 40 41 42 41 40 41 41 41 41 39 37 38 39 39 39 40 40 40 40 40 41 42 42 42 42 42 43 44 44 45 45 46 47 48 48 48 47 47 47 47
38 39 39 39 39 41 43 39 39 40 40 41 41 39 39 39 39 39 39 40 40 40 41 41 41 41 42 42 42 43 43 43 44 44 45 45 46 46 46 46 46 46 46 46
40 39 39 39 39 42 39 38 39 39 39 39 39 38 38 38 38 39 39 40 40 40 41 42 42 42 42 42 42 42 42 42 43 43 44 44 45 45 44 44 44 45 45 45
39 39 39 40 41 41 39 37 37 38 39 38 37 37 37 37 38 38 38 38 39 40 40 40 41 41 41 40 40 41 41 42 43 43 43 43 43 43 43 43 43 44 45 45
38 38 39 39 41 40 37 36 37 38 39 37 36 35 36 37 37 36 37 37 38 39 39 40 40 40 40 40 41 41 41 42 42 41 42 42 42 42 43 43 43 44 45 45
36 37 37 37 38 38 35 35 35 36 36 34 34 35 35 36 36 36 36 36 36 37 38 38 39 39 40 40 41 40 41 41 40 40 41 42 42 42 43 43 44 44 44 44
34 35 36 36 37 36 35 35 35 35 34 34 34 35 35 35 35 36 36 35 36 36 37 37 38 39 39 39 39 39 40 40 39 40 41 41 41 42 42 42 43 43 43 43
34 34 34 35 36 36 35 36 36 37 36 35 35 35 35 35 35 36 35 35 35 35 36 37 38 38 38 38 38 39 39 39 39 40 40 41 41 41 41 41 42 43 43 43
35 35 35 34 34 35 35 36 36 36 36 36 36 36 36 36 36 36 35 35 35 35 36 36 36 36 36 37 37 38 38 39 39 39 39 40 40 40 40 41 42 42 42 42
32 34 35 35 34 35 36 36 36 36 36 36 36 36 36 35 35 35 35 35 35 35 35 35 36 36 37 37 37 38 38 38 39 39 39 39 39 40 40 41 41 41 42 42
29 31 33 33 33 34 34 35 36 36 35 35 35 35 35 35 35 35 36 36 36 36 36 36 37 37 37 37 37 38 38 38 39 39 39 39 39 40 40 40 40 41 41 40

GEFSCGP_500_meanwind_222.txt.gz
Wind_Speed
42 42 40 38 39 40 39 39 38 37 38 39 40 38 37 37 36 36 35 36 36 36 36 36 36 37 37 37 38 38 38 39 39 40 40 41 41 41 41 41 42 42 42 43
42 42 40 40 40 41 40 40 38 38 39 40 40 39 37 37 37 36 36 36 37 37 37 37 37 38 38 39 39 39 39 40 40 41 41 42 42 43 43 42 43 43 43 44
42 41 42 41 41 41 40 40 38 39 40 41 42 40 37 37 38 38 37 37 37 37 37 38 38 39 39 39 40 40 40 41 41 42 42 43 43 44 44 44 44 44 45 45
42 42 42 41 40 40 40 40 40 40 41 41 42 42 37 38 38 38 38 38 38 38 38 39 39 40 40 41 41 41 42 42 43 43 43 44 44 44 44 45 45 46 46 46
41 42 41 41 40 40 41 40 41 41 42 43 42 44 40 39 38 38 37 38 39 39 39 40 41 41 41 41 41 42 42 42 43 44 44 44 44 45 45 46 46 46 47 47
42 42 41 41 41 41 41 41 41 42 43 45 43 44 43 40 38 37 38 39 40 40 41 41 41 41 41 41 41 42 42 42 42 43 44 45 45 46 46 47 47 48 48 48
43 42 41 42 42 42 41 41 42 43 45 46 43 45 43 40 38 38 39 39 40 41 42 42 42 42 41 41 42 42 42 42 43 43 44 45 46 46 46 47 48 49 49 49
44 44 43 42 42 42 41 41 42 44 46 46 44 45 42 39 37 38 39 39 40 41 41 41 41 42 42 42 42 42 42 42 43 43 43 44 46 47 47 48 49 49 50 50
43 43 43 43 42 42 43 42 41 44 45 46 46 44 41 38 38 38 39 39 39 40 40 41 41 41 41 41 42 42 41 42 42 43 44 45 46 47 47 48 49 50 50 50
43 43 43 43 45 45 44 42 42 43 45 46 46 44 41 38 37 38 38 38 39 40 40 40 40 40 41 42 42 42 42 42 43 44 45 46 46 47 48 49 49 49 49 50
42 43 43 43 44 44 44 44 44 45 45 46 46 44 41 38 37 38 38 38 38 39 39 40 39 40 41 41 41 41 42 42 43 44 45 46 47 48 48 49 50 50 49 50
43 44 43 43 42 43 44 43 43 44 45 45 45 43 40 38 37 37 37 37 38 38 39 40 40 40 41 41 42 42 42 43 44 45 46 47 47 48 48 49 49 49 50 51
42 44 44 44 44 44 44 43 43 45 46 46 45 43 39 38 37 37 37 37 37 38 38 39 40 41 41 41 42 42 43 44 45 46 46 47 47 48 48 49 50 50 50 51
41 43 43 42 43 43 44 44 44 45 46 46 45 42 38 37 37 37 37 38 38 37 38 39 40 41 41 41 41 42 43 44 45 45 46 46 47 47 48 49 50 50 50 51
41 41 42 42 41 42 43 43 44 44 45 45 43 42 39 38 38 38 38 39 39 38 39 40 40 40 40 41 41 42 43 44 45 45 45 46 46 47 48 49 49 50 51 51
40 40 40 42 41 41 42 41 41 42 42 43 43 42 39 39 39 39 39 39 39 39 39 39 39 38 39 40 40 41 42 43 43 44 45 45 46 47 48 48 49 50 50 51
39 39 39 40 40 41 42 39 39 40 40 41 41 40 39 40 39 39 38 39 39 39 39 39 39 39 40 40 41 41 41 42 43 44 45 45 46 47 47 48 48 49 49 49
38 38 39 40 40 41 38 38 38 39 38 39 39 39 40 40 40 40 40 40 39 39 39 40 40 39 40 40 41 42 43 43 43 44 45 46 47 47 47 47 47 48 48 49
38 38 38 39 40 40 38 37 37 39 39 38 38 39 40 41 41 41 40 40 40 40 39 40 40 40 41 41 42 42 43 43 43 44 45 46 46 45 45 45 46 47 47 47
38 38 38 39 40 40 37 37 38 39 40 38 37 38 38 39 40 39 39 40 40 40 40 40 40 40 40 41 41 41 41 42 43 43 44 44 44 44 44 45 45 45 45 45
35 37 38 38 39 39 36 37 37 38 38 38 38 38 38 38 38 38 38 39 39 40 40 40 39 40 40 40 41 41 41 42 42 42 43 43 43 43 43 43 43 43 43 45
34 35 35 37 39 37 36 36 37 36 37 37 38 38 38 37 36 36 37 38 39 39 39 39 39 39 39 40 40 40 40 41 42 42 42 42 42 42 42 42 42 42 43 44
34 34 33 35 37 37 37 36 36 36 36 37 37 37 38 37 37 37 37 37 37 38 38 38 39 38 39 39 39 39 40 40 41 41 41 41 41 41 41 41 41 42 42 43
33 33 33 33 34 34 35 35 36 36 36 36 36 36 36 36 36 37 37 37 37 37 37 37 37 38 38 38 38 39 39 39 39 40 40 40 40 40 40 41 41 41 41 42
32 33 34 34 33 34 34 35 35 36 36 36 36 36 35 35 35 36 36 35 36 36 36 36 37 37 38 38 38 38 38 38 38 38 39 39 39 39 39 40 40 40 41 41
29 31 32 32 32 32 32 33 33 34 34 35 35 35 35 35 35 35 35 35 35 35 35 36 37 37 37 37 37 37 37 37 37 37 37 37 38 39 39 40 40 40 40 41

GEFSCGP_500_meanwind_228.txt.gz
Wind_Speed
44 45 44 42 42 42 42 41 40 39 39 40 40 38 38 39 39 39 39 39 38 38 37 37 36 35 35 35 35 34 34 34 35 35 36 36 37 37 38 38 39 39 40 40
45 45 43 43 43 44 43 42 41 40 41 41 41 40 39 39 39 39 39 40 40 39 39 38 37 36 36 36 36 36 35 36 36 37 37 38 38 38 39 40 41 41 42 42
44 44 43 44 43 44 43 42 41 41 41 42 42 41 39 38 39 39 40 40 40 40 39 39 38 37 37 36 36 36 36 37 37 38 38 39 39 40 41 41 42 43 44 44
44 44 44 44 44 43 43 42 42 42 42 42 42 42 38 38 38 39 39 40 39 39 39 39 39 38 37 37 37 37 38 38 38 38 39 40 40 41 42 43 43 44 45 45
44 43 44 44 43 43 42 42 42 42 43 43 42 43 39 38 39 39 39 39 40 40 40 40 39 39 38 38 38 38 39 39 39 39 40 41 42 42 43 44 45 45 45 46
44 43 43 43 42 42 42 41 43 44 44 45 42 43 41 39 38 38 39 39 39 39 40 40 39 39 39 39 39 39 40 40 40 41 41 42 43 44 44 45 45 45 45 46
44 44 44 43 44 43 42 42 43 45 46 46 43 44 43 40 38 38 38 37 38 39 40 40 39 39 39 39 40 41 41 41 41 42 42 43 44 44 44 45 45 46 46 46
44 44 43 43 43 43 42 42 44 45 46 46 45 45 43 40 39 38 38 38 38 39 39 39 39 40 40 40 40 41 41 41 41 42 43 43 44 44 45 45 46 46 46 46
44 45 45 43 43 44 44 43 42 45 47 47 47 45 42 40 39 38 38 38 38 38 39 39 40 40 40 40 40 41 41 41 42 42 43 44 44 44 45 46 46 46 46 47
41 43 45 45 44 44 45 44 44 45 47 47 48 45 42 39 39 38 38 37 38 38 38 39 40 40 40 40 40 41 41 42 42 43 43 43 44 44 45 45 46 46 47 47
39 41 43 44 45 44 44 45 46 46 47 47 47 45 42 39 38 38 37 37 37 38 38 39 39 40 40 40 41 41 41 42 42 42 43 43 44 44 45 45 46 47 47 48
39 39 40 42 43 43 43 44 44 46 46 46 45 45 41 39 38 38 37 37 38 38 38 38 39 39 40 40 41 41 41 42 42 42 42 42 43 44 44 46 47 47 48 48
38 39 39 39 42 43 43 43 43 44 45 45 44 43 39 38 37 37 37 37 38 38 38 38 39 39 40 40 40 41 41 42 42 42 42 43 43 44 45 46 46 47 47 49
38 39 39 39 39 40 41 42 43 44 45 45 43 41 39 38 38 37 37 37 37 38 38 38 38 39 39 40 40 41 41 41 42 42 42 43 43 44 45 46 46 46 47 48
38 39 40 40 40 39 40 41 42 44 44 44 42 41 39 39 39 39 39 38 37 38 37 38 38 39 39 39 40 40 41 41 42 42 43 43 44 45 45 46 46 47 48 49
37 38 39 40 41 41 41 41 41 42 43 43 42 41 39 39 38 39 39 39 38 38 38 38 39 39 39 39 39 39 40 41 42 42 43 44 44 45 45 46 46 47 48 49
37 37 38 39 40 41 42 40 40 40 40 41 41 39 38 38 38 39 40 40 40 40 39 40 40 40 40 40 40 40 40 41 42 42 43 43 44 45 45 46 46 47 48 48
35 36 37 37 38 40 39 39 39 38 38 38 38 37 37 37 38 39 39 40 41 41 41 41 40 40 39 39 39 39 40 40 40 41 42 43 44 45 46 47 47 48 48 48
33 34 35 35 36 37 37 36 37 37 35 35 36 36 36 36 37 37 38 39 39 40 40 39 39 39 38 39 39 39 39 40 41 41 43 43 44 45 45 46 47 47 48 48
32 34 35 35 35 36 35 35 35 36 35 34 35 35 35 35 35 35 37 38 38 38 39 39 38 39 39 39 39 39 40 40 41 41 42 43 44 44 45 45 46 46 47 47
30 32 33 33 34 34 34 34 34 34 35 35 35 35 34 35 35 34 35 36 37 37 37 37 37 38 38 39 40 40 40 40 41 41 42 42 43 43 44 44 45 45 45 45
28 29 31 31 32 32 32 32 33 33 34 35 35 35 35 35 35 35 35 35 35 36 36 36 36 37 38 38 39 40 40 40 41 41 41 41 42 42 43 43 43 43 43 43
26 27 29 31 31 31 31 32 33 33 34 34 34 35 35 35 35 35 35 35 34 35 35 36 36 37 38 39 39 40 40 40 40 40 40 40 40 41 41 41 41 41 41 41
26 26 27 28 29 31 31 31 32 33 33 33 33 34 34 34 35 36 36 36 36 36 36 37 37 38 38 38 38 38 38 38 38 38 38 39 39 39 39 39 39 39 40 41
24 26 26 26 27 28 29 30 31 31 31 31 32 33 33 33 33 34 35 35 36 36 36 36 36 36 36 36 36 36 37 37 37 37 37 37 37 37 37 38 38 39 39 40
23 24 25 25 25 26 26 28 28 29 29 29 30 30 30 31 31 32 32 33 33 34 34 35 35 34 35 35 35 36 36 35 35 35 35 35 36 36 37 37 37 38 38 38

GEFSCGP_500_meanwind_234.txt.gz
Wind_Speed
47 47 47 46 44 43 43 43 43 42 42 42 42 41 40 40 39 39 38 38 37 36 36 36 36 36 35 35 35 35 34 34 35 35 35 34 34 34 35 35 36 36 37 37
47 48 46 46 45 45 45 44 43 43 44 43 43 43 41 42 41 40 39 39 38 38 38 37 37 37 37 37 37 37 36 36 36 36 35 36 36 36 36 37 37 37 38 38
47 46 45 46 46 46 46 45 44 44 44 45 45 45 43 43 42 41 41 40 40 40 39 38 38 38 38 38 38 38 38 38 37 37 37 37 38 38 38 38 38 38 39 40
45 45 46 47 47 46 46 45 44 44 45 45 46 46 44 43 43 42 42 42 41 41 41 40 39 39 39 39 39 39 39 39 39 39 39 39 39 39 39 39 40 40 41 41
45 45 46 46 45 45 45 44 44 44 45 47 46 48 45 44 43 42 42 42 42 41 41 41 40 40 40 40 40 40 40 40 41 41 40 40 40 40 40 41 41 42 42 42
44 44 45 45 44 45 44 44 44 45 46 48 46 47 46 44 43 42 42 42 42 42 42 42 41 41 41 41 41 41 41 42 42 42 42 41 41 42 42 42 43 42 42 42
42 43 44 44 44 44 44 44 44 45 47 48 45 47 46 43 43 42 42 42 42 43 42 42 42 42 42 42 42 42 42 43 43 43 43 43 42 43 43 43 44 44 43 43
42 43 43 43 43 43 44 44 44 45 47 47 45 46 44 42 42 43 43 42 42 43 43 43 43 43 43 43 43 43 43 43 43 43 43 43 43 44 44 44 45 45 44 44
42 43 43 43 42 43 43 43 43 44 46 46 47 46 45 42 41 42 43 42 41 41 42 42 43 43 42 42 43 43 43 43 44 43 44 44 44 44 45 45 46 46 46 46
40 42 42 43 43 44 44 43 43 45 46 46 47 46 45 43 42 42 43 42 40 40 40 41 42 42 42 42 43 43 43 43 44 44 44 44 44 45 46 46 47 47 47 48
39 40 41 42 43 42 43 44 45 45 46 46 46 46 44 43 42 41 41 41 40 40 41 41 41 41 41 42 43 43 43 44 44 44 44 44 44 45 46 47 47 48 48 49
37 38 40 40 40 41 42 43 44 45 45 45 46 45 43 42 42 41 42 41 40 41 41 41 41 41 41 42 43 43 43 44 44 44 44 44 45 46 46 47 47 48 49 49
35 37 38 39 40 41 42 42 43 44 45 45 45 45 43 43 42 41 41 41 41 41 41 41 41 41 42 42 42 42 43 43 44 44 44 45 46 46 47 47 48 49 49 49
37 38 39 38 39 40 41 41 42 44 46 45 45 44 43 43 42 41 41 41 41 41 41 40 41 40 41 41 42 42 42 43 43 44 44 45 46 47 47 48 48 48 48 48
36 38 39 39 39 39 40 40 42 44 45 45 44 43 43 43 42 40 40 40 39 39 39 40 40 41 41 41 42 42 42 42 43 43 44 45 46 47 47 48 48 47 47 47
35 36 37 38 40 39 39 40 41 42 43 43 43 43 42 42 42 40 39 39 39 38 38 38 39 40 40 40 41 42 42 42 42 43 44 45 46 46 47 47 47 47 47 47
34 34 34 36 39 41 41 39 39 39 40 41 42 40 40 40 39 39 38 38 38 38 37 37 38 39 39 40 40 41 41 42 42 43 44 45 46 46 46 46 46 46 47 47
33 34 34 34 35 38 38 38 38 38 38 39 40 39 39 40 39 39 39 39 38 38 38 38 38 38 39 40 40 40 41 42 43 43 44 45 45 46 46 46 47 47 47 48
30 31 32 33 33 35 35 35 36 37 37 37 38 39 39 40 40 40 39 40 40 39 39 39 39 39 40 41 41 41 41 42 42 43 44 45 46 46 45 45 46 47 47 47
29 30 31 31 33 33 33 32 33 35 36 36 37 37 38 39 40 39 39 40 41 40 40 40 40 41 41 42 42 43 43 43 43 44 44 45 45 45 45 45 46 46 47 47
28 29 30 30 31 32 32 31 32 33 34 35 36 37 37 37 38 38 38 39 40 41 41 41 41 42 42 42 42 42 42 42 42 43 43 43 43 43 44 44 45 46 46 46
25 27 29 30 31 31 30 30 31 31 32 33 34 35 36 36 36 37 37 38 39 40 41 41 41 41 41 42 42 42 42 42 42 42 42 42 42 42 43 44 44 43 43 44
25 27 28 30 30 30 29 29 30 31 31 32 33 34 35 35 36 36 37 38 38 39 40 40 41 41 41 41 41 42 42 42 41 41 41 41 41 41 41 42 41 42 42 42
26 26 28 29 29 29 29 30 31 31 32 32 33 33 34 35 35 36 37 37 37 37 38 39 40 40 40 40 40 40 40 40 39 40 40 40 40 40 40 40 40 40 41 41
25 27 27 27 28 30 31 31 32 33 33 32 32 32 33 34 34 34 34 34 34 35 36 36 37 38 38 37 38 38 38 38 38 38 38 38 38 38 38 38 38 38 39 39
25 26 27 26 27 28 28 29 29 30 30 31 30 30 31 32 32 31 31 32 32 33 33 34 35 35 35 36 36 36 36 37 36 36 36 36 36 36 36 36 36 37 37 37